[[[{"header":{"parameterUnit":"kt","parameterCategory":2,"dx":1,"dy":1,"la1":29.587661999999998,"la2":31.0,"lo1":-88.76705300000003,"lo2":-86.6583820000003,"nx":115,"ny":88,"refTime":"2022-10-18T06:00:00:Z","depth":0,"parameterNumber":1,"parameterNumberName":"U-component_of_WINDS"},"data":[17.9738,18.1075,18.2412,18.3229,18.3675,18.4789,18.5606,18.5828,18.5828,18.5828,18.5999,18.6166,18.641,18.6799,18.6646,18.6723,18.6874,18.6799,18.6799,18.6799,18.7023,18.6799,18.6646,18.6646,18.6799,18.6799,18.6949,18.7023,18.7169,18.7096,18.6948,18.6799,18.6799,18.6571,18.6494,18.6415,18.641,18.6248,18.624,18.624,18.6166,18.6255,18.6415,18.6571,18.6874,18.7096,18.8066,19.0459,19.158,19.3001,19.4945,19.6288,19.6654,19.6411,19.616,19.5826,19.5648,19.5558,19.4518,19.2661,19.1473,19.0433,18.8057,18.6126,18.5977,18.5828,18.5828,18.5828,18.5828,18.5828,18.5828,18.5828,18.5828,18.5828,18.5828,18.5828,18.5828,18.5828,18.5828,18.5828,18.5828,18.5828,18.5828,18.5828,18.5828,18.5828,18.5828,18.5828,18.5828,18.5828,18.5828,18.5828,18.5828,18.5828,18.5828,18.5828,18.5977,18.6423,18.7091,18.8874,19.0211,19.0879,19.1622,19.2513,19.229,19.1845,19.1829,19.2572,19.211,19.2018,19.1407,19.085,19.0882,19.0614,18.9899,18.0778,18.1001,18.1298,18.2189,18.3452,18.3823,18.464,18.568,18.5828,18.5914,18.6166,18.6255,18.6494,18.6799,18.7023,18.7096,18.7096,18.7023,18.7023,18.7096,18.7096,18.6949,18.6799,18.6799,18.6799,18.6874,18.7023,18.7096,18.7096,18.7023,18.6874,18.6799,18.6571,18.6415,18.6415,18.6415,18.633,18.6166,18.6157,18.6073,18.6166,18.6174,18.6335,18.6571,18.6874,18.7169,18.8215,18.9861,19.173,19.3375,19.5095,19.6285,19.6642,19.6701,19.6298,19.6035,19.5855,19.5558,19.4964,19.2736,19.1473,18.9988,18.7388,18.6051,18.5903,18.5828,18.5828,18.5828,18.5828,18.5828,18.5828,18.5828,18.5828,18.5828,18.5828,18.5828,18.5828,18.5828,18.5828,18.5828,18.5828,18.5828,18.5828,18.5828,18.5828,18.5828,18.5828,18.5828,18.5828,18.5828,18.5828,18.5828,18.5828,18.5828,18.5828,18.5903,18.5977,18.6645,18.7982,19.0062,19.1696,19.2439,19.3181,19.3998,19.437,19.4221,19.4131,19.3668,19.4169,19.4372,19.359,19.2879,19.2658,19.1837,19.1292,18.2412,18.2486,18.3303,18.36,18.3675,18.4492,18.516,18.5754,18.5828,18.5999,18.633,18.6415,18.6646,18.7023,18.7096,18.7169,18.7169,18.7169,18.7169,18.7169,18.7096,18.7023,18.7023,18.6874,18.6874,18.6874,18.7096,18.7096,18.6948,18.6799,18.6646,18.641,18.641,18.6248,18.6092,18.6092,18.6083,18.5999,18.6073,18.5914,18.5914,18.6174,18.634,18.6571,18.7023,18.7769,18.8888,19.0534,19.2328,19.3973,19.5544,19.6733,19.7537,19.7446,19.7265,19.6853,19.6078,19.5558,19.4964,19.3553,19.1919,19.0508,18.8354,18.6423,18.62,18.5828,18.5828,18.5828,18.5828,18.5828,18.5828,18.5828,18.5828,18.5828,18.5828,18.5828,18.5828,18.5828,18.5828,18.5828,18.5828,18.5828,18.5828,18.5828,18.5828,18.5828,18.5828,18.5828,18.5828,18.5828,18.5828,18.5828,18.5828,18.5828,18.5828,18.5903,18.6126,18.7462,18.8799,19.0656,19.2364,19.3553,19.4518,19.4815,19.5112,19.5467,19.5375,19.4837,19.504,19.4901,19.4704,19.4504,19.3976,19.3146,19.2456,18.4046,18.4194,18.5309,18.5234,18.4269,18.5309,18.5828,18.5828,18.5914,18.6166,18.6415,18.6494,18.6799,18.7096,18.7169,18.7169,18.7169,18.7169,18.7169,18.7169,18.7169,18.7096,18.7023,18.7096,18.7096,18.7023,18.7023,18.7096,18.6948,18.6723,18.6568,18.6248,18.6083,18.6083,18.5914,18.5914,18.5914,18.5914,18.5914,18.5914,18.5999,18.6174,18.6494,18.6648,18.7023,18.7916,18.9412,19.1132,19.2777,19.4497,19.6067,19.7405,19.8648,19.8639,19.8369,19.7878,19.6449,19.5781,19.5038,19.3998,19.229,19.073,18.9171,18.7611,18.6497,18.6051,18.5828,18.5828,18.5828,18.5828,18.5828,18.5828,18.5828,18.5828,18.5828,18.5828,18.5828,18.5828,18.5828,18.5828,18.5828,18.5828,18.5828,18.5828,18.5828,18.5828,18.5828,18.5828,18.5828,18.5828,18.5828,18.5828,18.5828,18.5828,18.5828,18.5977,18.6571,18.776,18.9245,19.1028,19.2884,19.3998,19.5038,19.541,19.5467,19.5375,19.5282,19.5093,19.4901,19.4605,19.4301,19.4093,19.3702,19.3302,19.3041,18.5606,18.5606,18.5754,18.568,18.568,18.568,18.5828,18.5828,18.6073,18.6248,18.6415,18.6723,18.6874,18.7096,18.7169,18.7169,18.7096,18.7096,18.7096,18.7169,18.7096,18.7096,18.7096,18.7169,18.7096,18.7169,18.7169,18.7169,18.7023,18.6723,18.641,18.624,18.5999,18.5914,18.5828,18.5828,18.5828,18.5828,18.5828,18.5914,18.6166,18.633,18.6494,18.6799,18.7172,18.8066,18.9636,19.1132,19.2852,19.4497,19.6142,19.7636,19.8589,19.9012,19.8592,19.7878,19.6524,19.5855,19.5187,19.437,19.2661,19.0879,18.9245,18.776,18.6484,18.5816,18.5742,18.5742,18.5742,18.5742,18.5828,18.5828,18.5828,18.5828,18.5828,18.5828,18.5828,18.5828,18.5828,18.5828,18.5828,18.5828,18.5828,18.5828,18.5828,18.5828,18.5828,18.5828,18.5828,18.5828,18.5828,18.5828,18.5828,18.5828,18.5828,18.6126,18.6794,18.8131,18.9616,19.1399,19.3478,19.4593,19.5484,19.5467,19.5375,19.5282,19.4923,19.4729,19.4504,19.4301,19.3988,19.3741,19.3412,19.3001,19.2656,18.5828,18.5828,18.5828,18.5828,18.5828,18.5828,18.5828,18.5914,18.6083,18.633,18.6415,18.6723,18.6874,18.7169,18.7169,18.7096,18.6948,18.7023,18.6874,18.6874,18.6874,18.6948,18.7023,18.7096,18.7169,18.7169,18.7169,18.7169,18.7096,18.6723,18.6255,18.5999,18.5914,18.5828,18.5828,18.5828,18.5828,18.5828,18.5828,18.5999,18.6166,18.6335,18.6494,18.6799,18.7023,18.8814,19.0833,19.1506,19.3525,19.5768,19.6291,19.8009,20.0163,20.013,19.9945,19.9141,19.7266,19.5781,19.541,19.4815,19.3181,19.1399,19.0136,18.8266,18.6767,18.5654,18.5566,18.5654,18.5654,18.5654,18.5742,18.5828,18.5828,18.5828,18.5828,18.5828,18.5828,18.5828,18.5828,18.5828,18.5828,18.5828,18.5828,18.5828,18.5828,18.5828,18.5828,18.5828,18.5828,18.5828,18.5828,18.5828,18.5828,18.5828,18.5828,18.5977,18.7462,18.9022,19.0211,19.1696,19.4073,19.5187,19.5484,19.5467,19.5282,19.4923,19.463,19.443,19.4198,19.3988,19.3741,19.3412,19.3001,19.2656,19.2494,18.5828,18.5828,18.5828,18.5828,18.5828,18.5828,18.5828,18.5914,18.6166,18.633,18.6415,18.6799,18.7023,18.7169,18.7096,18.7023,18.6799,18.6723,18.6571,18.6571,18.6723,18.6799,18.6874,18.7096,18.7169,18.7169,18.7169,18.7169,18.7096,18.6723,18.6174,18.5914,18.5828,18.5828,18.5828,18.5828,18.5828,18.5828,18.5828,18.5999,18.6248,18.6335,18.6571,18.6874,18.7096,18.8963,19.0982,19.1954,19.3749,19.6142,19.6815,19.838,20.0977,20.0811,20.069,20.0107,19.7712,19.5558,19.5558,19.5484,19.4147,19.1473,19.0567,18.8607,18.6589,18.5312,18.5387,18.5387,18.5387,18.5477,18.5566,18.5654,18.5742,18.5742,18.5828,18.5828,18.5828,18.5828,18.5828,18.5828,18.5828,18.5828,18.5828,18.5828,18.5828,18.5828,18.5828,18.5828,18.5828,18.5828,18.5828,18.5828,18.5828,18.5828,18.5828,18.5828,18.7908,18.9765,19.0433,19.1622,19.3924,19.5335,19.5393,19.5375,19.5282,19.4827,19.4504,19.4198,19.3882,19.3741,19.3412,19.3001,19.2656,19.2494,19.2255,18.5828,18.5828,18.5828,18.5828,18.5828,18.5828,18.5828,18.5914,18.6255,18.6415,18.6494,18.6874,18.7169,18.7096,18.6874,18.6799,18.6723,18.6494,18.6415,18.6415,18.6568,18.6723,18.6799,18.7023,18.7096,18.7169,18.7169,18.7169,18.7096,18.6648,18.6255,18.5999,18.5914,18.5828,18.5828,18.5828,18.5828,18.5828,18.5828,18.6083,18.6255,18.6415,18.6648,18.7097,18.7692,18.9337,19.1057,19.2478,19.4198,19.5768,19.6964,19.867,19.9701,19.9608,19.9945,19.938,19.7489,19.6152,19.5632,19.5558,19.385,19.1235,19.0461,18.835,18.6314,18.5037,18.5037,18.5037,18.5037,18.5296,18.5387,18.5477,18.5566,18.5654,18.5742,18.5742,18.5742,18.5828,18.5828,18.5742,18.5742,18.5742,18.5742,18.5742,18.5742,18.5828,18.5828,18.5828,18.5828,18.5828,18.5828,18.5828,18.5828,18.5828,18.5828,18.5828,18.7611,19.0136,19.0805,19.1622,19.3776,19.5558,19.5467,19.5282,19.5188,19.4901,19.4504,19.4093,19.3668,19.3339,19.3075,19.2583,19.169,19.1671,19.1332,18.5828,18.5828,18.5828,18.5828,18.5828,18.5828,18.5828,18.5914,18.6255,18.634,18.6494,18.6948,18.7169,18.7096,18.6874,18.6799,18.6494,18.641,18.6248,18.6009,18.633,18.649,18.6646,18.6799,18.7023,18.7169,18.7169,18.7169,18.7169,18.6648,18.6335,18.6092,18.5999,18.5914,18.5828,18.5828,18.5828,18.5828,18.5914,18.6009,18.6335,18.6494,18.6723,18.7247,18.829,18.9711,19.1655,19.33,19.4721,19.6142,19.7262,19.8301,19.9692,19.9895,19.9424,19.9678,19.838,19.6821,19.5781,19.5558,19.3834,19.0832,19.0277,18.8292,18.5736,18.4827,18.4753,18.4753,18.4753,18.4943,18.5204,18.5204,18.5296,18.5296,18.5387,18.5387,18.5477,18.5566,18.5566,18.5312,18.5221,18.5477,18.5566,18.5566,18.5654,18.5742,18.5828,18.5828,18.5828,18.5828,18.5828,18.5828,18.5828,18.5828,18.5828,18.5828,18.7611,19.0211,19.125,19.1919,19.3924,19.5375,19.5282,19.5188,19.4901,19.4704,19.4301,19.3988,19.3559,19.3227,19.2625,19.1807,19.0868,19.0238,18.9486,18.5828,18.5828,18.5828,18.5828,18.5828,18.5828,18.5828,18.5914,18.6092,18.6255,18.6494,18.6948,18.7169,18.7023,18.6799,18.6568,18.6335,18.624,18.6073,18.5914,18.6157,18.6248,18.6415,18.6723,18.6874,18.7096,18.7169,18.7169,18.7169,18.6723,18.6494,18.6335,18.6009,18.5828,18.5828,18.5828,18.5828,18.5828,18.5914,18.6083,18.6335,18.6415,18.6723,18.7243,18.8664,19.0234,19.1954,19.3599,19.517,19.6665,19.7862,19.8978,20.0521,19.9608,19.9362,19.9991,19.8158,19.6672,19.6004,19.5244,19.3724,19.1388,18.9698,18.8249,18.515,18.4634,18.456,18.456,18.456,18.4657,18.4849,18.4943,18.4943,18.5037,18.5111,18.5204,18.5204,18.5296,18.5221,18.5037,18.5037,18.513,18.5387,18.5312,18.5492,18.5654,18.5654,18.5654,18.5828,18.5828,18.5828,18.5828,18.5828,18.5828,18.5828,18.5828,18.7165,18.9839,19.125,19.229,19.352,19.4985,19.5093,19.4901,19.4605,19.4329,19.4093,19.3956,19.3523,19.2708,19.1778,19.0841,18.9946,18.9122,18.8127,18.5828,18.5828,18.5828,18.5828,18.5828,18.5828,18.5828,18.5828,18.5914,18.6092,18.6494,18.6948,18.7096,18.6799,18.6571,18.641,18.6248,18.5999,18.5828,18.5914,18.6073,18.6248,18.6415,18.6571,18.6874,18.7096,18.7169,18.7169,18.7169,18.6648,18.6494,18.6335,18.6083,18.5828,18.5828,18.5828,18.5828,18.5828,18.5828,18.6083,18.6335,18.634,18.6872,18.7769,18.9188,19.0907,19.2553,19.4198,19.5618,19.6964,19.8161,19.9501,20.0753,19.9394,19.9374,20.0155,19.7357,19.5855,19.5558,19.5282,19.3389,19.0512,18.9456,18.7781,18.5147,18.4263,18.4263,18.4263,18.4263,18.4363,18.456,18.4657,18.4753,18.4849,18.4943,18.5017,18.4943,18.4943,18.4943,18.4849,18.4943,18.5037,18.5037,18.513,18.5312,18.5312,18.5387,18.5566,18.5742,18.5828,18.5828,18.5828,18.5828,18.5828,18.5828,18.5828,18.6943,18.9394,19.131,19.2704,19.4021,19.4891,19.4901,19.4504,19.4301,19.4198,19.3988,19.3849,19.3339,19.2814,19.1398,19.0165,18.9049,18.8127,18.6646,18.5828,18.5828,18.5828,18.5828,18.5828,18.5828,18.5828,18.5828,18.5754,18.6009,18.6415,18.6874,18.7096,18.6799,18.6494,18.6335,18.6166,18.5914,18.5828,18.5828,18.5914,18.6092,18.6335,18.6571,18.6799,18.7096,18.7169,18.7169,18.7169,18.6648,18.6494,18.6255,18.6083,18.5914,18.5828,18.5828,18.5828,18.5828,18.5914,18.6083,18.6335,18.6415,18.6947,18.8741,19.0309,19.1954,19.3525,19.5095,19.6366,19.7338,19.8535,19.9501,19.9491,19.917,19.8927,19.822,19.715,19.5632,19.5467,19.4985,19.3346,19.0416,18.9449,18.7225,18.478,18.3719,18.3855,18.3958,18.3958,18.4061,18.4363,18.4462,18.456,18.456,18.4657,18.4753,18.4657,18.4753,18.4657,18.4657,18.456,18.456,18.4657,18.4753,18.4849,18.4943,18.513,18.5477,18.5742,18.5828,18.5828,18.5828,18.5828,18.5828,18.5977,18.6794,18.7908,19.0136,19.177,19.3075,19.4076,19.4479,19.4729,19.4403,19.4198,19.3988,19.3775,19.3632,19.3227,19.2772,19.1763,19.0603,18.9122,18.6355,18.4946,18.5828,18.5828,18.5828,18.5828,18.5754,18.516,18.4937,18.4863,18.4269,18.4447,18.5521,18.665,18.7023,18.6723,18.6494,18.6255,18.6083,18.5914,18.5828,18.5828,18.5914,18.6009,18.6255,18.6494,18.6648,18.7096,18.7169,18.7169,18.7096,18.6648,18.6415,18.6255,18.5999,18.5914,18.5828,18.5828,18.5828,18.5828,18.5914,18.6166,18.6415,18.6568,18.7545,18.9487,19.1132,19.2852,19.4497,19.6067,19.7114,19.8161,19.9656,20.0252,20.0472,20.0074,19.9448,19.8543,19.6704,19.5707,19.5467,19.5059,19.4086,19.1349,18.9433,18.7278,18.4054,18.3507,18.3613,18.3719,18.3824,18.3855,18.4162,18.4162,18.4263,18.4263,18.4363,18.4363,18.4462,18.4462,18.4462,18.4462,18.4363,18.4263,18.4363,18.4462,18.4462,18.456,18.4943,18.5312,18.5654,18.5828,18.5828,18.5828,18.5828,18.5828,18.5977,18.7314,18.8874,19.0508,19.2067,19.3279,19.4405,19.4752,19.463,19.4403,19.4093,19.3882,19.3668,19.3412,19.3075,19.2539,19.1744,19.0701,18.7786,18.4729,18.3195,18.568,18.568,18.568,18.5606,18.5457,18.4046,18.3526,18.3229,18.1744,18.2364,18.4403,18.5903,18.65,18.6494,18.6415,18.6174,18.5828,18.5828,18.5828,18.5828,18.5914,18.6009,18.6335,18.6494,18.6723,18.7096,18.7169,18.7169,18.7023,18.6571,18.641,18.6166,18.5999,18.5914,18.5828,18.5828,18.5828,18.5914,18.5999,18.6248,18.6415,18.6797,18.7845,18.9638,19.1281,19.2926,19.4721,19.6142,19.7488,19.9133,20.0703,20.1526,20.0846,20.0828,19.9608,19.8245,19.6421,19.5632,19.5375,19.5188,19.4752,19.3443,19.0863,18.7171,18.373,18.3399,18.3507,18.3507,18.3613,18.3719,18.3855,18.4061,18.4162,18.4162,18.4263,18.4263,18.4363,18.4363,18.4363,18.4263,18.4263,18.4263,18.4363,18.4363,18.4363,18.4462,18.4849,18.5221,18.5566,18.5742,18.5828,18.5828,18.5828,18.5903,18.6051,18.7388,18.9171,19.0805,19.2646,19.3928,19.4678,19.4556,19.4504,19.4198,19.3988,19.3775,19.3632,19.3115,19.2772,19.2302,19.1502,19.0311,18.7903,18.5476,18.3504,18.412,18.4046,18.412,18.412,18.4046,18.3675,18.2783,18.1669,18.1075,18.2067,18.3802,18.4555,18.5527,18.6191,18.6415,18.6174,18.5828,18.5828,18.5828,18.5828,18.5914,18.6083,18.6335,18.6494,18.6723,18.7169,18.7169,18.7096,18.6874,18.6571,18.6335,18.6166,18.5914,18.5828,18.5828,18.5828,18.5828,18.5828,18.6073,18.6248,18.6415,18.6723,18.8592,19.0535,19.2029,19.345,19.5843,19.6815,19.7787,19.9432,20.1152,20.1451,20.0775,20.0828,19.9906,19.7437,19.6272,19.5467,19.5282,19.4997,19.4605,19.3135,19.0618,18.7027,18.3802,18.292,18.3032,18.3254,18.329,18.3399,18.3613,18.3751,18.3958,18.4061,18.4162,18.4263,18.4263,18.4263,18.4263,18.4263,18.4263,18.4263,18.4263,18.4263,18.4263,18.4363,18.4657,18.5037,18.5312,18.5654,18.5742,18.5828,18.5903,18.5977,18.672,18.8057,18.9542,19.1161,19.3297,19.4574,19.4678,19.463,19.4403,19.4093,19.3849,19.3632,19.3227,19.2887,19.2539,19.2061,19.1476,19.0136,18.865,18.6728,18.4536,18.1298,18.1372,18.2115,18.2412,18.2338,18.1595,18.0704,17.9812,17.9218,18.0356,18.261,18.2986,18.4483,18.6424,18.6494,18.6174,18.5914,18.5828,18.5828,18.5828,18.5914,18.6009,18.6335,18.6494,18.6723,18.7096,18.7169,18.7023,18.6723,18.6494,18.6255,18.6083,18.5914,18.5828,18.5828,18.5828,18.5828,18.5914,18.5999,18.6166,18.649,18.7023,18.8591,19.1805,19.1954,19.3899,19.5992,19.6964,19.8011,20.0329,20.1227,20.1451,20.0999,20.0604,19.9757,19.6776,19.5826,19.5375,19.5093,19.4827,19.3987,19.2483,19.0069,18.7026,18.4641,18.3319,18.2807,18.292,18.2959,18.3181,18.329,18.3613,18.3719,18.3929,18.4032,18.4061,18.4263,18.4263,18.4263,18.4263,18.4263,18.4263,18.4263,18.4263,18.4263,18.4363,18.4657,18.4943,18.5221,18.5492,18.5742,18.5828,18.5903,18.6126,18.7314,18.8799,19.0211,19.1904,19.3947,19.4723,19.4729,19.4504,19.4198,19.3882,19.3741,19.3339,19.3001,19.2656,19.2302,19.194,19.157,19.0228,18.8686,18.6836,18.4841,17.8253,17.8624,18.0035,18.0704,18.0481,17.9218,17.8401,17.803,17.6916,17.8199,18.1719,18.187,18.3738,18.6351,18.6646,18.6174,18.5999,18.5828,18.5828,18.5828,18.5828,18.6009,18.6415,18.634,18.6723,18.7096,18.7169,18.6874,18.6571,18.6415,18.6255,18.5914,18.5828,18.5828,18.5828,18.5828,18.5828,18.5828,18.5914,18.6083,18.6415,18.6874,18.889,19.1132,19.2253,19.3599,19.6366,19.7039,19.8236,20.0928,20.1451,20.1601,20.1597,20.1201,19.9245,19.7213,19.5826,19.5282,19.4901,19.463,19.3784,19.1608,18.9484,18.7577,18.5299,18.3684,18.2693,18.2693,18.292,18.2959,18.3071,18.329,18.3507,18.3719,18.3824,18.3958,18.4162,18.4061,18.4162,18.4263,18.4263,18.4263,18.4116,18.4189,18.4189,18.4462,18.4657,18.4849,18.513,18.5492,18.5828,18.5828,18.5903,18.6571,18.7685,18.9319,19.0953,19.2572,19.3947,19.4849,19.463,19.4403,19.4093,19.3775,19.3632,19.3412,19.2772,19.2302,19.2061,19.1694,19.1318,19.0192,18.8646,18.6794,18.5001,17.7287,17.8476,17.8847,17.8921,17.8921,17.855,17.7733,17.6693,17.6335,17.8283,18.1272,18.1946,18.3812,18.635,18.6646,18.6174,18.5828,18.5828,18.5828,18.5828,18.5828,18.6009,18.6335,18.6494,18.6723,18.7096,18.7169,18.6874,18.6494,18.634,18.6174,18.5999,18.5828,18.5828,18.5828,18.5828,18.5828,18.5914,18.5999,18.6248,18.6494,18.7023,18.8739,19.1655,19.2029,19.3599,19.6516,19.689,19.8161,19.9432,20.0105,20.003,19.9878,19.9484,19.8266,19.6617,19.5648,19.5188,19.4803,19.443,19.3178,19.0769,18.9043,18.7241,18.5405,18.3684,18.2693,18.2693,18.2807,18.2807,18.292,18.3032,18.3181,18.329,18.3507,18.3719,18.3855,18.3958,18.4061,18.4162,18.4263,18.4116,18.3968,18.3968,18.3968,18.4241,18.4606,18.4795,18.5037,18.5492,18.5828,18.5828,18.6126,18.6868,18.8354,19.0062,19.1235,19.3,19.4372,19.4827,19.4531,19.4301,19.3988,19.3632,19.3412,19.3075,19.2539,19.2061,19.189,19.1517,19.1063,18.995,18.8443,18.6663,18.4942,17.6544,17.7287,17.7361,17.7287,17.7361,17.7287,17.6842,17.6173,17.634,17.8287,18.075,18.1946,18.3812,18.6202,18.6571,18.6174,18.5914,18.5828,18.5828,18.5828,18.5828,18.6083,18.6415,18.634,18.6648,18.7096,18.7169,18.6874,18.6494,18.6415,18.6174,18.5914,18.5828,18.5828,18.5828,18.5828,18.5828,18.5914,18.6083,18.6248,18.6415,18.6799,18.8815,19.1132,19.2253,19.3749,19.6217,19.689,19.7712,19.8983,19.9432,19.9432,19.9053,19.8365,19.7148,19.6394,19.5648,19.5093,19.4729,19.4227,19.2598,19.0071,18.8638,18.6762,18.456,18.3277,18.2693,18.2693,18.2693,18.2693,18.2693,18.2807,18.3032,18.3071,18.3181,18.3399,18.3613,18.3824,18.3929,18.4134,18.384,18.3721,18.3573,18.36,18.3674,18.4019,18.4384,18.4721,18.5037,18.5403,18.5828,18.5828,18.5903,18.724,18.9319,19.0433,19.131,19.3354,19.4701,19.4729,19.4504,19.4198,19.3956,19.3523,19.3188,19.2845,19.2302,19.1817,19.1642,19.1391,19.0789,18.9891,18.818,18.6531,18.4942,17.6173,17.6173,17.6173,17.6173,17.6173,17.6173,17.6173,17.6099,17.6266,17.8361,18.1348,18.1872,18.3812,18.6127,18.6494,18.6174,18.5999,18.5828,18.5828,18.5828,18.5914,18.6083,18.6415,18.6494,18.6799,18.7096,18.7096,18.6874,18.6494,18.6415,18.6092,18.5914,18.5828,18.5828,18.5828,18.5828,18.5828,18.5914,18.6166,18.6255,18.6494,18.6948,18.8442,19.0982,19.1805,19.3525,19.5768,19.674,19.7563,19.8834,19.8983,19.8983,19.8455,19.732,19.6552,19.6085,19.5467,19.4997,19.4556,19.3902,19.1682,18.9154,18.7647,18.577,18.3757,18.2693,18.2693,18.2693,18.2693,18.2693,18.2693,18.2807,18.2807,18.3032,18.3144,18.3181,18.3399,18.3613,18.3719,18.3646,18.3414,18.3149,18.2883,18.2763,18.2863,18.3036,18.3993,18.4775,18.5037,18.5387,18.5742,18.5828,18.5828,18.776,18.9616,19.0062,19.131,19.3186,19.4382,19.4408,19.4301,19.4093,19.3775,19.3412,19.296,19.2539,19.2182,19.1817,19.1517,19.1136,19.0515,18.9963,18.7964,18.617,18.4726,17.6173,17.6173,17.6173,17.6173,17.6173,17.6173,17.6173,17.618,17.6497,17.8364,18.1199,18.187,18.3735,18.6201,18.6419,18.641,18.6083,18.5914,18.5828,18.5828,18.5999,18.6248,18.6415,18.6571,18.6874,18.7096,18.7023,18.6723,18.6415,18.633,18.6083,18.5914,18.5828,18.5828,18.5828,18.5828,18.5828,18.5914,18.6174,18.6415,18.6494,18.6949,18.7918,19.001,19.1132,19.3151,19.4871,19.6291,19.7114,19.7264,19.7264,19.7262,19.7032,19.6568,19.6245,19.5913,19.5208,19.4803,19.4181,19.2524,19.0474,18.8306,18.6574,18.4706,18.3277,18.2693,18.2693,18.2693,18.2693,18.2693,18.2693,18.2693,18.2693,18.2807,18.2807,18.2847,18.3071,18.3181,18.3217,18.3071,18.248,18.1767,18.1678,18.2,18.1953,18.2299,18.3748,18.4753,18.5111,18.5387,18.5566,18.5742,18.5828,18.724,18.7834,18.8428,19.0774,19.2574,19.4086,19.4061,19.4198,19.3956,19.3632,19.3188,19.2772,19.2421,19.194,19.157,19.1264,19.0804,19.0108,18.8891,18.7386,18.5809,18.3787,17.6186,17.626,17.6099,17.6173,17.6173,17.6173,17.6173,17.6254,17.6574,17.8067,18.0155,18.1718,18.3362,18.5303,18.6121,18.6255,18.5999,18.5914,18.5828,18.5914,18.6083,18.633,18.6415,18.6799,18.7023,18.7096,18.6874,18.6648,18.6415,18.6248,18.6157,18.5828,18.5828,18.5828,18.5828,18.5828,18.5828,18.5914,18.6174,18.634,18.6494,18.6874,18.7692,18.8515,19.0758,19.2852,19.4497,19.6067,19.674,19.689,19.6964,19.6888,19.6729,19.6493,19.616,19.5738,19.5114,19.4704,19.3829,19.2015,18.9849,18.8046,18.6209,18.4487,18.3131,18.2693,18.2693,18.2693,18.2693,18.2693,18.2693,18.2693,18.2693,18.2693,18.2693,18.2807,18.292,18.292,18.2628,18.1827,18.1239,18.0458,18.0298,18.109,18.1264,18.1316,18.2692,18.4657,18.4943,18.5204,18.5477,18.5654,18.5742,18.5977,18.6423,18.7672,19.0016,19.1759,19.3397,19.4209,19.3988,19.3741,19.3412,19.3075,19.2729,19.2182,19.1817,19.1517,19.1136,19.0457,18.9397,18.7819,18.6387,18.5015,18.3209,17.6344,17.6344,17.618,17.6173,17.6173,17.6173,17.6099,17.618,17.6574,17.7694,17.9335,18.0896,18.2542,18.4179,18.5297,18.5876,18.584,18.5828,18.5828,18.5914,18.6083,18.633,18.6571,18.7023,18.7169,18.7096,18.6874,18.6571,18.6415,18.6248,18.6073,18.5828,18.5828,18.5828,18.5828,18.5828,18.5828,18.5999,18.6255,18.6415,18.6571,18.7023,18.7243,18.7542,18.9561,19.1805,19.3824,19.5618,19.6591,19.6815,19.689,19.6736,19.6654,19.6411,19.6,19.5558,19.4997,19.4283,19.3252,19.1245,18.941,18.7274,18.5364,18.4007,18.2766,18.2693,18.2693,18.2579,18.2579,18.2579,18.2579,18.2693,18.2693,18.2693,18.2693,18.2693,18.262,18.2329,18.1639,18.0766,17.9997,17.8861,17.7522,17.9784,18.0501,18.0554,18.2078,18.4191,18.4753,18.5017,18.5296,18.5477,18.5654,18.5816,18.6113,18.6868,18.8978,19.087,19.3101,19.443,19.3988,19.3632,19.33,19.296,19.2612,19.2134,19.157,19.1264,19.1007,19.0094,18.9048,18.7602,18.5953,18.4365,18.2704,17.6344,17.6344,17.618,17.6173,17.6173,17.6173,17.618,17.6344,17.6499,17.762,17.9109,17.9845,18.1496,18.403,18.4253,18.4908,18.5754,18.5754,18.5828,18.5914,18.6174,18.6494,18.6723,18.7096,18.7169,18.7096,18.6723,18.6494,18.6335,18.6083,18.5914,18.5828,18.5828,18.5828,18.5828,18.5828,18.5914,18.6083,18.6335,18.6494,18.6723,18.7023,18.7169,18.7243,18.8141,18.9561,19.1954,19.4048,19.5618,19.7188,19.704,19.6736,19.6411,19.6411,19.5913,19.5282,19.4678,19.3692,19.1641,18.9741,18.7686,18.5844,18.4007,18.2766,18.2766,18.2693,18.2579,18.2274,18.2157,18.2157,18.2274,18.2506,18.2579,18.2693,18.2693,18.2693,18.2402,18.1307,18.0358,18.0139,17.7914,17.7436,17.7796,17.8813,17.9812,18.0575,18.2642,18.4241,18.4657,18.4753,18.5037,18.5296,18.5477,18.5566,18.5803,18.6051,18.8013,19.0203,19.2583,19.3369,19.2925,19.3229,19.3041,19.2656,19.2302,19.1817,19.1517,19.1136,19.0746,18.9903,18.8397,18.6964,18.5665,18.4004,18.2415,17.6344,17.6344,17.618,17.6173,17.6173,17.6173,17.618,17.6344,17.6575,17.7173,17.8064,17.9031,18.0229,18.1347,18.2978,18.4157,18.4566,18.5383,18.5828,18.5914,18.6092,18.6415,18.6799,18.7096,18.7169,18.7096,18.6723,18.6494,18.6335,18.6083,18.5828,18.5828,18.5828,18.5828,18.5828,18.5828,18.5914,18.624,18.641,18.6494,18.6799,18.7096,18.7169,18.7169,18.7243,18.8213,19.0753,19.3298,19.5541,19.6813,19.704,19.6733,19.6411,19.6328,19.5913,19.4923,19.3938,19.2705,19.0765,18.8384,18.644,18.4998,18.3569,18.2839,18.2693,18.2693,18.2579,18.2157,18.2157,18.2038,18.1992,18.2111,18.2229,18.2347,18.2229,18.1793,18.1151,18.0349,17.9256,17.773,17.6453,17.5978,17.6778,17.7975,17.9534,18.1356,18.3251,18.3968,18.4462,18.456,18.4753,18.4943,18.5037,18.5296,18.5551,18.5551,18.6925,18.9462,19.1474,19.1597,19.1821,19.2788,19.2748,19.2656,19.2061,19.157,19.1318,19.1007,19.047,18.9337,18.7602,18.617,18.5015,18.357,18.1982,17.6344,17.6266,17.618,17.6173,17.6173,17.6173,17.626,17.6422,17.665,17.6873,17.7168,17.8288,17.8887,17.926,18.141,18.2662,18.3155,18.4417,18.5234,18.5245,18.5488,18.5814,18.6126,18.6724,18.7169,18.7023,18.6646,18.6415,18.641,18.5999,18.5828,18.5828,18.5828,18.5828,18.5828,18.5828,18.5999,18.6248,18.6335,18.6571,18.6874,18.7169,18.724,18.724,18.7236,18.7979,18.939,19.2462,19.4859,19.5983,19.6441,19.6733,19.6411,19.616,19.5738,19.4701,19.3225,19.169,18.9887,18.7357,18.545,18.4487,18.3277,18.2693,18.2693,18.2693,18.2463,18.2157,18.2038,18.1919,18.163,18.163,18.1751,18.1992,18.1872,18.1098,17.9884,17.9099,17.783,17.5611,17.492,17.5431,17.6451,17.7836,17.9473,18.1663,18.3296,18.4162,18.4263,18.4462,18.456,18.4657,18.4753,18.5037,18.5204,18.5111,18.6147,18.8757,18.9579,18.9846,19.0905,19.198,19.2195,19.2466,19.1867,19.1444,19.1264,19.0732,19.0036,18.9275,18.747,18.552,18.4365,18.3065,18.1404,17.6344,17.6266,17.618,17.6173,17.6173,17.6173,17.634,17.665,17.6725,17.6872,17.7085,17.7314,17.7769,17.8812,17.9325,18.0126,18.1224,18.2858,18.3526,18.3462,18.4015,18.4253,18.448,18.6126,18.6872,18.6874,18.6571,18.6335,18.6323,18.5999,18.5828,18.5828,18.5828,18.5828,18.5828,18.5828,18.6083,18.6335,18.6415,18.6723,18.7096,18.7236,18.7375,18.7375,18.751,18.7651,18.8391,19.1016,19.2816,19.3273,19.5469,19.643,19.6254,19.5826,19.5393,19.4604,19.2852,19.0684,18.8604,18.6367,18.4641,18.3319,18.2839,18.2693,18.2693,18.2693,18.2463,18.1872,18.1751,18.163,18.1311,18.1187,18.1384,18.163,18.129,18.0442,17.9283,17.6902,17.5563,17.4803,17.4007,17.4154,17.7038,17.7841,17.9847,18.2113,18.3531,18.3958,18.4162,18.4263,18.4462,18.456,18.4657,18.4849,18.4943,18.4923,18.5588,18.7509,18.8028,18.8757,18.9916,19.0695,19.1129,19.1572,19.1672,19.1444,19.1063,19.0253,18.9626,18.8481,18.6892,18.5159,18.357,18.2198,18.0898,17.6266,17.618,17.6099,17.6173,17.6099,17.626,17.6344,17.6725,17.6799,17.6944,17.716,17.6872,17.7098,17.7618,17.8274,17.8855,17.9515,18.1149,18.1372,18.0638,18.1707,18.2539,18.284,18.4632,18.5975,18.6575,18.6494,18.6335,18.624,18.5914,18.5828,18.5828,18.5828,18.5828,18.5828,18.5828,18.6009,18.6335,18.634,18.6648,18.7096,18.7381,18.7375,18.7375,18.7501,18.7705,18.7982,19.0071,19.1735,19.2816,19.4485,19.5843,19.6337,19.5752,19.4855,19.3249,19.1275,18.9139,18.6989,18.5122,18.3544,18.2953,18.2693,18.2693,18.2693,18.2463,18.2229,18.1751,18.1507,18.1187,18.1008,18.1008,18.1008,18.1134,18.0141,17.9128,17.8457,17.6021,17.4345,17.3526,17.3095,17.3934,17.5905,17.722,17.9193,18.1239,18.2953,18.4032,18.3958,18.4162,18.4263,18.4363,18.4462,18.456,18.4753,18.5049,18.5395,18.5937,18.6547,18.752,18.8527,18.9301,19.0396,19.0841,19.1112,19.0882,19.0064,18.9397,18.8481,18.7181,18.5809,18.4365,18.3137,18.1621,18.0898,17.6186,17.6099,17.6173,17.6173,17.6099,17.6266,17.6422,17.6651,17.6872,17.7015,17.7229,17.6873,17.6725,17.6948,17.7301,17.7733,17.7807,17.8773,17.8847,17.8261,17.9846,18.0748,18.1046,18.2767,18.426,18.5081,18.5371,18.5653,18.6009,18.5914,18.5828,18.5828,18.5828,18.5828,18.5828,18.5828,18.6083,18.6415,18.634,18.6723,18.7169,18.7381,18.7375,18.7375,18.7641,18.7769,18.7968,18.9201,19.0508,19.1766,19.3416,19.4867,19.5732,19.5202,19.3928,19.2264,18.9744,18.7384,18.578,18.4133,18.292,18.2807,18.2693,18.2693,18.2579,18.2274,18.1919,18.163,18.1311,18.1062,18.0882,18.0754,18.0754,18.0754,17.931,17.8154,17.7413,17.5368,17.3557,17.2571,17.2507,17.3386,17.5066,17.6234,17.806,18.029,18.1966,18.331,18.3708,18.4061,18.4263,18.4263,18.4263,18.4363,18.4462,18.4609,18.4805,18.5046,18.5312,18.584,18.6842,18.7759,18.9217,19.0038,19.036,19.0083,18.8993,18.7951,18.6952,18.5665,18.4654,18.3643,18.2559,18.1765,18.1043,17.6186,17.6099,17.6173,17.6173,17.6099,17.6266,17.6422,17.6725,17.6872,17.7085,17.7229,17.6873,17.6725,17.665,17.6484,17.6247,17.6396,17.6619,17.6544,17.647,17.8051,17.8874,17.9028,18.0825,18.1796,18.1945,18.3127,18.4372,18.5691,18.5754,18.5828,18.5828,18.5828,18.5828,18.5828,18.568,18.5934,18.6261,18.6191,18.6574,18.7169,18.7306,18.7375,18.7442,18.7705,18.7968,18.7968,18.8223,18.8931,19.0256,19.1841,19.3672,19.4968,19.365,19.2264,19.1228,18.8151,18.6182,18.556,18.3837,18.2807,18.2693,18.2693,18.2579,18.2274,18.2038,18.18,18.1311,18.1187,18.1062,18.0882,18.0754,18.0682,18.0537,17.9021,17.736,17.606,17.4471,17.3077,17.2063,17.2281,17.3274,17.4439,17.543,17.6891,17.9449,18.0946,18.1999,18.3531,18.4061,18.4263,18.4263,18.4263,18.4263,18.4263,18.4263,18.4134,18.4179,18.4296,18.438,18.5451,18.6363,18.7859,18.8314,18.8563,18.8702,18.7616,18.636,18.529,18.4509,18.357,18.2559,18.1909,18.1332,18.0826,17.626,17.6099,17.6173,17.6173,17.6099,17.6497,17.6575,17.6725,17.7015,17.7229,17.7229,17.6873,17.6725,17.665,17.626,17.6173,17.6173,17.6173,17.6173,17.6173,17.6861,17.7163,17.7386,17.9109,17.993,18.0228,18.141,18.2885,18.4194,18.5309,18.5828,18.5828,18.5828,18.5828,18.5606,18.4789,18.5042,18.5963,18.5371,18.5678,18.7094,18.7381,18.7375,18.7442,18.7641,18.7705,18.7705,18.8014,18.878,18.9956,19.0566,19.1498,19.2676,19.1499,19.0193,18.8792,18.6901,18.5414,18.4278,18.3325,18.2693,18.2693,18.2463,18.2274,18.2157,18.18,18.1435,18.1187,18.1062,18.0882,18.0754,18.0754,18.0248,17.9093,17.7649,17.606,17.4543,17.2955,17.1993,17.1535,17.1863,17.254,17.3347,17.4444,17.627,17.8352,18.0287,18.1746,18.3279,18.3958,18.4263,18.4263,18.4263,18.4263,18.4263,18.4263,18.4236,18.3929,18.394,18.3727,18.4206,18.5226,18.5978,18.6254,18.6477,18.6544,18.6022,18.4769,18.3989,18.3354,18.2559,18.1837,18.1332,18.0754,18.0754,17.6419,17.634,17.618,17.6099,17.626,17.6499,17.6725,17.6799,17.716,17.7229,17.7085,17.6873,17.665,17.6499,17.626,17.6173,17.6173,17.6173,17.6173,17.6099,17.618,17.6186,17.6414,17.746,17.8134,17.8358,17.9538,18.101,18.2475,18.344,18.396,18.396,18.4046,18.4046,18.3897,18.308,18.3257,18.4473,18.4328,18.4782,18.6196,18.7011,18.7381,18.7306,18.751,18.7566,18.7566,18.7893,18.848,18.9141,18.9683,19.0083,19.044,19.027,18.9158,18.7216,18.5766,18.4533,18.3545,18.3032,18.2693,18.2579,18.2274,18.2038,18.18,18.1435,18.1187,18.0936,18.0882,18.0754,18.0754,18.0754,18.0104,17.8443,17.6854,17.5338,17.3749,17.2233,17.1222,17.1343,17.151,17.1979,17.2613,17.3643,17.5103,17.6818,17.8861,18.0719,18.2292,18.3664,18.4263,18.4263,18.4263,18.4263,18.4263,18.4263,18.4061,18.3824,18.3507,18.3364,18.3875,18.4852,18.5278,18.5698,18.6137,18.6129,18.4717,18.354,18.2415,18.1909,18.1693,18.1115,18.0754,18.0754,18.0754,17.6725,17.665,17.626,17.618,17.6344,17.665,17.6725,17.6869,17.7229,17.7085,17.6944,17.68,17.6574,17.6266,17.618,17.6173,17.6173,17.6173,17.6173,17.6173,17.6099,17.6099,17.6173,17.6173,17.6173,17.6552,17.7807,17.9135,18.0436,18.0658,18.0584,18.0732,18.1054,18.1149,18.1224,18.1001,18.1174,18.194,18.3135,18.426,18.485,18.6346,18.7169,18.724,18.7442,18.7566,18.7566,18.7832,18.7907,18.7641,18.8728,18.919,18.8949,18.9542,18.8884,18.6796,18.4706,18.3507,18.3399,18.3032,18.2579,18.2274,18.2157,18.18,18.1311,18.1187,18.1062,18.0754,18.0754,18.0754,18.0754,18.0754,18.0032,17.8226,17.671,17.5193,17.3605,17.2016,17.1366,17.1222,17.1343,17.151,17.1906,17.2657,17.3935,17.5431,17.7251,17.9253,18.1045,18.2929,18.3968,18.4116,18.4263,18.4263,18.4263,18.4061,18.3855,18.3613,18.3399,18.3032,18.3903,18.4737,18.5015,18.536,18.5505,18.504,18.3504,18.231,18.146,18.0971,18.0826,18.0826,18.0754,18.0754,18.0754,17.6725,17.665,17.626,17.618,17.6344,17.665,17.6725,17.6944,17.7155,17.716,17.6944,17.6725,17.6497,17.618,17.6099,17.6173,17.6173,17.6173,17.6173,17.6173,17.6173,17.6173,17.6173,17.6173,17.6173,17.6173,17.6379,17.7333,17.8805,17.9741,18.0408,18.0584,18.0671,18.0757,18.0852,17.9664,17.991,18.1418,18.1943,18.3066,18.4629,18.6346,18.7169,18.7169,18.7442,18.7501,18.7442,18.7844,18.7844,18.7442,18.761,18.7546,18.716,18.688,18.6406,18.5588,18.4253,18.3399,18.3181,18.292,18.2579,18.2157,18.1919,18.1679,18.1187,18.0936,18.0882,18.0682,18.0754,18.0754,18.0754,18.0754,17.9526,17.6927,17.6277,17.476,17.2305,17.1583,17.1222,17.1222,17.1463,17.1628,17.2094,17.2546,17.3605,17.5354,17.6477,17.7963,18.0812,18.2147,18.3084,18.4042,18.4263,18.4263,18.4263,18.4061,18.3824,18.3507,18.329,18.3325,18.456,18.4577,18.4705,18.4682,18.4315,18.3577,18.2166,18.1532,18.0826,18.0754,18.0754,18.0754,18.0754,18.0754,18.0754,17.6575,17.6499,17.626,17.626,17.6422,17.6575,17.6799,17.7085,17.7155,17.7085,17.6799,17.6575,17.6419,17.6173,17.6017,17.5934,17.5934,17.585,17.5776,17.5934,17.5934,17.6017,17.6099,17.6173,17.6173,17.6173,17.585,17.6284,17.7001,17.7712,17.8066,17.832,17.8496,17.8668,17.8754,17.7947,17.8199,17.9632,18.0899,18.2245,18.3583,18.5299,18.6496,18.7094,18.7375,18.751,18.7442,18.7576,18.7576,18.7231,18.6947,18.6273,18.5206,18.4616,18.3871,18.2927,18.2074,18.1526,18.1095,18.1532,18.1443,18.0974,18.1436,18.1507,18.1134,18.0882,18.0465,18.0032,18.0393,18.0465,17.9815,17.9743,17.8443,17.5699,17.4977,17.3966,17.151,17.1222,17.1222,17.1222,17.1582,17.1746,17.2094,17.2546,17.3424,17.4656,17.6477,17.7963,18.018,18.1927,18.3158,18.4042,18.4263,18.4263,18.4061,18.3929,18.3613,18.3399,18.3071,18.3432,18.4475,18.5042,18.4973,18.4024,18.4427,18.3884,18.1315,18.0826,18.0754,18.0754,18.0754,18.0754,18.0754,18.0754,18.0754,17.6499,17.6344,17.618,17.634,17.665,17.6725,17.6946,17.7298,17.7298,17.7089,17.6725,17.6422,17.6186,17.6017,17.585,17.5765,17.5691,17.5433,17.552,17.5691,17.5691,17.585,17.6099,17.6173,17.6099,17.6017,17.5776,17.552,17.5493,17.5224,17.4985,17.4985,17.5433,17.584,17.5765,17.6091,17.626,17.68,17.9781,18.1573,18.2009,18.3729,18.5299,18.672,18.7006,18.7075,18.6701,18.6925,18.6782,18.6498,18.6126,18.5064,18.3388,18.2719,18.1689,18.0005,17.9376,17.8873,17.8495,17.9302,17.9766,17.9256,18.0372,18.0855,18.0303,18.0176,17.9598,17.866,17.9382,17.9326,17.8226,17.7955,17.6729,17.4058,17.3749,17.2955,17.1583,17.1222,17.1222,17.1222,17.151,17.1746,17.2094,17.2726,17.3242,17.4038,17.6477,17.877,17.9885,18.2027,18.3674,18.4116,18.4263,18.4162,18.4032,18.3719,18.3399,18.3181,18.292,18.3423,18.4314,18.5506,18.6064,18.4118,18.4518,18.4101,18.1893,18.0754,18.0754,18.0754,18.0754,18.0754,18.0754,18.0754,18.0754,17.6499,17.6344,17.618,17.626,17.6422,17.6725,17.7015,17.7298,17.7085,17.6872,17.6651,17.6422,17.6106,17.585,17.5691,17.5606,17.5433,17.5345,17.552,17.5691,17.5691,17.5776,17.6099,17.6173,17.6017,17.5776,17.552,17.5345,17.5076,17.4726,17.4632,17.4632,17.5093,17.552,17.5691,17.6017,17.626,17.6799,17.8738,18.0006,18.0439,18.3205,18.4177,18.343,18.4685,18.476,18.3425,18.3563,18.3494,18.3065,18.2841,18.2308,18.153,18.1015,18.0414,17.9571,17.9003,17.8666,17.8241,17.8389,17.8089,17.7512,17.7758,17.7736,17.7124,17.6999,17.6854,17.6565,17.6602,17.6619,17.6258,17.6186,17.5321,17.352,17.3409,17.2882,17.1583,17.1222,17.1222,17.1343,17.1628,17.1979,17.2312,17.3566,17.4555,17.4993,17.7031,17.9314,18.0896,18.1832,18.3011,18.3821,18.4263,18.4162,18.3855,18.3719,18.3399,18.3254,18.292,18.3235,18.4049,18.4537,18.4242,18.392,18.3812,18.2977,18.1332,18.0754,18.0754,18.0754,18.0754,18.0754,18.0754,18.0754,18.0754,17.6574,17.6112,17.5282,17.4991,17.5154,17.4713,17.5152,17.6033,17.5824,17.598,17.6501,17.5448,17.4829,17.4505,17.3594,17.3125,17.2949,17.3599,17.4147,17.4483,17.5149,17.5691,17.6017,17.6017,17.5776,17.5691,17.5345,17.5076,17.4911,17.4632,17.4538,17.4538,17.4819,17.5166,17.552,17.585,17.618,17.6725,17.762,17.8663,17.984,18.156,18.2308,18.2158,18.3051,18.312,18.2158,18.2228,18.2233,18.1722,18.157,18.0431,17.852,17.8023,17.6904,17.5032,17.4394,17.409,17.3778,17.3639,17.3788,17.4563,17.5171,17.438,17.1799,17.216,17.2832,17.3429,17.4096,17.4402,17.4146,17.4146,17.3627,17.2098,17.2079,17.2038,17.1438,17.1222,17.1222,17.1343,17.1746,17.2094,17.2094,17.4042,17.5394,17.5758,17.7251,17.9387,18.1585,18.2495,18.3379,18.4042,18.4162,18.3958,18.3719,18.3507,18.3181,18.2959,18.262,18.293,18.4003,18.4075,18.3703,18.3378,18.3194,18.2487,18.1043,18.0754,18.0754,18.0754,18.0754,18.0754,18.0754,18.0754,18.0754,17.627,17.5653,17.4168,17.3659,17.3594,17.2329,17.2842,17.4314,17.3812,17.4415,17.583,17.3796,17.2874,17.2716,17.088,17.0112,17.0096,17.1315,17.231,17.3051,17.4383,17.5458,17.6017,17.585,17.5691,17.5606,17.5093,17.4985,17.4819,17.4706,17.4538,17.4538,17.4538,17.4819,17.5256,17.5606,17.6099,17.6725,17.6725,17.7618,17.9392,17.9691,18.0364,18.1411,18.1635,18.171,18.1485,18.1411,18.1344,18.0899,18.0446,17.8632,17.5285,17.4263,17.2347,16.9079,16.8202,16.7686,16.7485,16.7178,16.8141,17.0537,17.1935,17.0569,16.595,16.6816,16.8285,16.9505,17.0605,17.1485,17.1589,17.1445,17.0999,17.0029,17.0009,17.0133,17.0427,17.0572,17.0788,17.0788,17.1528,17.2094,17.2166,17.4042,17.5577,17.6412,17.8016,17.9828,18.1927,18.3453,18.4116,18.4263,18.4061,18.3824,18.3613,18.329,18.2959,18.2807,18.239,18.2475,18.3471,18.3248,18.2871,18.2833,18.2559,18.2126,18.1115,18.0754,18.0754,18.0754,18.0754,18.0754,18.0754,18.0754,18.0754,17.5448,17.4019,17.3722,17.3068,17.218,17.1955,17.2245,17.2736,0.0,0.0,0.0,17.1637,17.116,17.0917,17.0274,17.0022,16.9988,17.0191,17.1277,17.2977,17.3273,17.4261,17.5776,17.5691,17.552,17.5093,17.4911,17.4819,17.4632,17.4538,17.4538,17.4538,17.4538,17.4726,17.5076,17.552,17.6025,17.665,17.6725,17.7096,17.7747,17.9093,17.9317,17.8195,17.9466,17.9541,17.8195,17.812,17.7911,17.7545,17.6052,17.4694,17.3434,17.0407,16.7668,16.5267,16.3584,16.2656,16.2357,16.2052,16.275,16.4611,16.5593,16.4562,16.0895,16.1747,16.3143,16.4609,16.4625,16.4966,16.6256,16.6399,16.6311,16.6348,16.6647,16.689,16.7322,16.8333,16.9127,16.9391,17.0876,17.2021,17.2094,17.393,17.5942,17.7583,17.9367,18.1338,18.312,18.3868,18.4116,18.4116,18.3885,18.3824,18.3507,18.329,18.3032,18.2807,18.239,18.2184,18.2042,18.187,18.1496,18.1259,18.1187,18.1115,18.0826,18.0754,18.0754,18.0754,18.0754,18.0754,18.0754,18.0754,18.0609,17.4476,0.0,17.1865,17.0911,0.0,16.9644,16.9414,16.9763,16.9552,17.0092,17.1131,16.9094,16.8104,16.7775,16.6702,16.6155,16.6213,16.7833,16.9727,17.172,17.2607,17.3965,17.5691,17.5606,17.5345,17.4911,17.4893,17.4706,17.4538,17.4538,17.4538,17.4538,17.4538,17.4632,17.4726,17.5256,17.5943,17.6725,17.6725,17.6873,17.7298,17.812,17.812,17.7373,17.812,0.0,0.0,0.0,0.0,0.0,0.0,0.0,0.0,0.0,0.0,15.9523,15.767,15.6144,15.4957,15.5319,15.6093,15.6762,15.8627,15.747,15.2446,15.4031,15.6357,15.9334,15.9214,16.0044,16.201,16.2368,16.2549,16.2922,16.3239,16.3889,16.5038,16.5878,16.6961,16.8524,17.0007,17.1222,17.1949,17.4042,17.5796,17.7104,17.9441,18.159,18.2634,18.2984,18.3084,18.3084,18.337,18.3613,18.3507,18.3181,18.292,18.2693,18.2347,18.1992,18.1751,18.1384,18.0936,18.0754,18.0754,18.0754,18.0754,18.0754,18.0754,18.0754,18.0754,18.0393,17.8587,17.8299,17.8299,17.3138,17.246,16.9786,16.8754,16.8675,16.6737,16.6057,16.6342,16.7468,16.8529,16.9043,16.6048,16.4534,16.4205,16.269,16.2013,16.2234,16.5107,16.7587,16.9574,17.1276,17.299,17.4643,17.447,17.4206,17.3933,17.3748,17.3654,17.3654,17.3654,17.3727,17.3654,17.3654,17.3654,17.3748,0.0,0.0,0.0,17.6426,17.6873,17.7298,17.7298,17.7298,17.7298,17.7298,0.0,17.7298,17.7015,17.6722,17.6204,17.3728,0.0,0.0,0.0,0.0,0.0,0.0,0.0,0.0,0.0,0.0,0.0,15.0006,14.8611,14.378,14.5594,14.9018,15.3524,15.3792,15.4792,15.7617,15.7973,15.8223,15.8833,15.8953,15.9837,16.1863,16.2484,16.3856,16.6961,16.8152,16.9366,17.1222,17.3202,17.4773,17.6289,17.8593,18.0342,18.0849,18.1242,18.1611,18.1979,18.2605,18.3173,18.3326,18.3032,18.2693,18.2579,18.2111,18.1751,18.163,18.1134,18.0754,18.0754,18.0754,18.0754,18.0754,18.0465,18.0176,18.0321,17.996,17.9021,17.6493,17.5916,17.5916,17.0677,16.934,16.8894,16.8085,16.6887,16.3831,16.27,16.2908,16.2924,16.2941,16.2878,16.1824,16.128,16.0957,16.0626,16.0466,16.0539,16.2308,16.4266,16.6245,16.7946,16.9659,17.1139,17.1054,17.0954,17.0578,17.0486,17.0486,17.0486,17.0486,17.0486,17.0486,17.0486,17.0504,17.0629,16.9636,17.0558,17.3551,17.5675,17.6873,17.7298,17.7298,17.7298,17.7298,17.7298,17.7298,17.7298,17.7015,17.62,17.4489,17.0979,16.7381,16.3951,15.7383,15.135,0.0,14.3145,0.0,0.0,0.0,0.0,0.0,0.0,0.0,0.0,13.8166,14.1287,14.6915,14.7074,14.8127,15.1195,15.1552,15.172,15.2376,15.242,15.3294,15.544,15.6923,15.9017,16.2267,16.4128,16.6424,16.948,17.0543,17.2475,17.5452,17.6612,17.7009,17.746,17.8787,18.0211,18.1758,18.1825,18.2104,18.2704,18.2701,18.236,18.2201,18.1701,18.1557,18.1094,18.0864,18.0682,18.0682,18.0537,18.0609,18.0754,17.9526,17.866,17.8515,17.7288,17.6132,17.5554,17.541,17.5916,16.8003,16.7186,16.5404,16.3325,16.1232,16.0637,16.0482,16.0551,16.0482,16.0347,16.013,15.8712,15.6911,15.4886,15.4803,15.4793,15.5014,15.8426,16.1631,16.4321,16.6023,16.802,17.0462,17.0375,17.0112,16.9896,16.9896,16.9454,16.857,16.8496,16.8054,16.7244,16.717,16.6037,16.3951,16.5892,16.8204,17.074,17.3742,17.5976,17.7223,17.7298,17.7298,17.7298,17.7298,17.7298,17.7298,17.6048,17.501,17.4116,16.8672,16.4121,16.0702,15.305,14.5939,0.0,0.0,0.0,0.0,0.0,0.0,0.0,0.0,0.0,0.0,0.0,13.3692,13.6952,13.9142,14.1705,14.4845,14.5245,14.5514,14.603,14.6139,14.7399,15.0279,15.1146,15.3529,15.844,16.0799,16.3195,16.6648,16.9015,17.1127,17.3077,17.3503,17.3706,17.4151,17.6333,17.8369,17.9106,17.9792,18.0371,18.054,18.0327,17.988,17.9463,17.9229,17.8945,17.858,17.8333,17.8082,17.8082,17.8082,17.8082,17.801,17.7432,17.6999,17.6421,17.3605,17.0933,17.0644,17.1366,17.1944,16.4512,16.4141,15.9685,15.6635,15.4618,15.618,15.685,15.685,15.685,15.6783,15.6418,15.4043,15.1515,14.8832,14.8678,14.8678,14.8972,15.4009,15.8019,16.0992,16.2989,16.5357,16.8094,16.7837,16.7735,16.7539,16.7612,16.6728,16.5107,16.5034,16.4386,16.2838,16.1585,15.9858,15.7752,16.1977,16.5467,16.8152,17.1733,17.4561,17.6487,17.7005,17.7298,17.7298,17.7298,17.7148,17.67,17.5152,17.3519,17.1806,16.5852,16.0346,15.5743,14.7894,0.0,0.0,0.0,0.0,0.0,0.0,0.0,0.0,0.0,12.1754,12.4137,0.0,12.6834,0.0,13.217,13.5712,13.8604,13.9036,0.0,0.0,13.9952,14.1381,14.4719,14.508,14.7535,15.389,15.6276,15.9028,16.3271,16.6578,16.8578,16.9181,17.0177,17.1064,17.1702,17.4273,17.6159,17.6946,17.7853,17.8359,17.8488,17.8133,17.7837,17.7279,17.7004,17.6768,17.648,17.6112,17.5771,17.541,17.5338,17.5193,17.4905,17.4471,17.3894,17.2449,16.9055,16.5878,16.5878,16.7105,16.8189,15.9536,15.8868,15.1143,14.7863,14.7921,14.9483,15.0228,15.0228,15.0228,15.0024,14.9447,14.6118,14.442,14.3975,14.3746,0.0,14.3889,14.8917,15.2328,15.4407,15.744,15.9808,16.151,16.1262,16.1093,16.0982,16.0908,16.0024,15.8477,15.8647,15.792,15.6149,15.1959,15.1301,15.4193,15.7455,16.1536,16.6369,17.0169,17.2775,17.4414,17.6268,17.7298,17.7298,17.7298,17.655,17.5055,17.4625,17.1648,16.547,16.1465,15.5677,14.76,0.0,0.0,0.0,0.0,0.0,0.0,0.0,0.0,0.0,0.0,0.0,0.0,0.0,0.0,0.0,12.7306,0.0,13.2456,13.2773,0.0,0.0,0.0,13.4896,13.8193,13.858,14.1036,14.7391,0.0,0.0,15.939,16.1892,16.3306,16.3697,16.6799,16.9645,17.1358,17.2116,17.3559,17.6235,17.6597,17.6875,17.7617,17.7585,17.7181,17.6466,17.6886,17.6286,17.5729,17.5554,17.5193,17.3821,17.3749,17.3244,17.1871,16.9994,16.7972,16.3711,16.3422,16.4072,16.3928,16.5083,16.6094,15.1663,14.6836,14.2528,14.081,14.1023,14.2659,14.3402,14.3402,14.3402,14.3271,14.2777,13.931,13.7173,13.6001,13.4752,0.0,0.0,0.0,14.6491,14.9303,15.2486,15.5295,15.7736,15.7486,15.7309,15.7224,15.6193,15.495,15.3411,15.2607,14.9443,14.4271,0.0,0.0,14.8034,15.33,15.8348,16.3176,16.7862,17.1582,17.4116,17.6193,17.7298,17.7223,17.6326,17.5503,17.4755,17.0741,16.6865,16.3147,15.5802,14.8835,0.0,0.0,0.0,0.0,0.0,0.0,0.0,0.0,0.0,0.0,0.0,11.5399,11.7277,0.0,0.0,0.0,12.2157,12.4679,12.7378,12.7888,0.0,0.0,0.0,0.0,0.0,0.0,0.0,14.0891,14.3924,14.7639,15.3234,15.4853,15.6513,15.9525,16.3481,16.6637,16.8251,0.0,17.2602,17.3563,17.4394,17.4603,17.3924,17.3712,17.3023,17.1783,17.1377,17.0847,17.0331,17.0138,16.9922,16.9272,16.8477,16.7611,16.7033,16.2339,15.8006,15.6345,15.649,15.7212,15.8151,15.9595,16.0967,14.2305,0.0,0.0,0.0,0.0,13.5843,13.6586,13.6586,13.6522,13.6458,13.6039,13.2063,0.0,0.0,0.0,0.0,0.0,0.0,14.0416,14.3741,14.6786,14.9968,15.3075,15.2754,15.2288,15.1772,15.0675,14.9133,14.7072,14.3828,13.9388,13.4094,0.0,0.0,0.0,0.0,15.5303,16.0724,16.6373,17.0688,17.3446,17.5969,17.7298,17.7298,17.5653,17.4082,17.2662,16.7073,16.2226,15.798,14.9669,0.0,0.0,0.0,0.0,0.0,0.0,0.0,0.0,0.0,0.0,0.0,0.0,0.0,0.0,0.0,0.0,0.0,0.0,0.0,12.2515,12.3291,12.3744,0.0,0.0,0.0,0.0,0.0,0.0,0.0,0.0,0.0,14.5602,14.7425,15.031,0.0,0.0,16.3557,16.5611,16.8638,17.0814,17.0967,17.1698,0.0,17.0382,16.9661,16.8898,16.7731,16.6649,16.5554,16.455,16.4361,16.4072,16.3061,16.205,16.0678,15.8801,15.3529,14.9774,14.9485,14.9846,15.0496,15.1651,15.3457,15.519,0.0,0.0,0.0,0.0,0.0,0.0,0.0,0.0,12.978,12.9593,0.0,12.4169,0.0,0.0,0.0,0.0,0.0,12.8817,0.0,0.0,14.0124,14.3309,14.6269,14.5962,14.5068,14.352,14.3601,14.198,13.8585,13.1389,0.0,0.0,0.0,0.0,0.0,0.0,15.248,15.9016,16.5777,17.0092,17.1955,17.5446,17.7298,17.7223,17.5653,17.2512,16.7801,16.4212,15.8019,14.8424,14.3006,0.0,0.0,0.0,0.0,0.0,0.0,0.0,0.0,0.0,0.0,0.0,0.0,0.0,0.0,0.0,0.0,0.0,0.0,0.0,0.0,11.8581,0.0,0.0,0.0,0.0,0.0,0.0,0.0,0.0,0.0,0.0,13.6125,14.0513,14.5445,15.0337,0.0,0.0,0.0,0.0,16.7587,16.8764,16.8859,16.8554,16.8273,16.6928,16.5979,16.5833,0.0,0.0,15.9924,15.9523,15.8512,15.5479,15.4901,15.2879,14.6813,14.4213,14.2986,14.2986,14.4069,14.5152,14.5441,14.7535,14.9774,0.0,0.0,0.0,0.0,0.0,0.0,0.0,0.0,0.0,12.1248,0.0,11.7923,0.0,0.0,0.0,0.0,0.0,0.0,0.0,0.0,13.1973,13.4579,13.6651,13.6298,13.5784,0.0,13.4308,13.0753,0.0,0.0,0.0,0.0,0.0,0.0,0.0,0.0,14.9212,15.5823,16.3764,16.9123,17.1878,17.5372,17.7298,17.7223,17.5653,17.1465,16.4361,15.793,15.0901,0.0,0.0,0.0,0.0,0.0,0.0,0.0,0.0,0.0,0.0,0.0,0.0,0.0,0.0,0.0,0.0,0.0,0.0,0.0,0.0,0.0,0.0,0.0,11.7442,0.0,0.0,0.0,0.0,0.0,0.0,0.0,0.0,0.0,13.0781,13.6455,14.2562,14.8375,15.4008,15.8822,16.1972,0.0,0.0,0.0,0.0,0.0,0.0,0.0,16.3205,16.0067,15.8641,15.6885,15.4136,15.2443,15.1146,14.999,0.0,0.0,13.8653,13.6847,13.6486,13.6486,13.6919,13.7569,13.858,13.9736,14.1108,0.0,0.0,0.0,0.0,0.0,0.0,0.0,0.0,0.0,11.4856,11.3891,0.0,0.0,0.0,0.0,0.0,0.0,0.0,0.0,0.0,0.0,0.0,12.9104,12.8771,0.0,0.0,0.0,0.0,0.0,0.0,0.0,0.0,0.0,0.0,0.0,0.0,14.6984,15.4185,16.2573,16.8597,17.1804,17.5372,17.7298,17.7223,17.5653,17.139,16.4287,0.0,0.0,0.0,0.0,0.0,0.0,0.0,0.0,0.0,0.0,0.0,0.0,0.0,0.0,0.0,0.0,0.0,0.0,0.0,0.0,0.0,0.0,0.0,0.0,0.0,11.4636,0.0,0.0,0.0,0.0,0.0,0.0,0.0,0.0,0.0,0.0,0.0,13.7912,14.4306,15.0432,15.5559,15.9217,16.2705,16.4976,0.0,0.0,0.0,0.0,0.0,0.0,0.0,0.0,0.0,0.0,0.0,0.0,0.0,0.0,13.6197,13.0926,12.9894,12.9894,12.9894,0.0,0.0,0.0,0.0,0.0,0.0,0.0,0.0,0.0,0.0,0.0,0.0,0.0,0.0,0.0,0.0,0.0,0.0,10.3873,0.0,0.0,0.0,0.0,0.0,0.0,0.0,0.0,0.0,0.0,0.0,0.0,0.0,0.0,0.0,0.0,0.0,0.0,0.0,0.0,0.0,0.0,14.5944,15.3966,16.2573,16.8526,17.1804,17.5372,17.7298,17.7223,17.5578,17.2288,16.7278,0.0,0.0,0.0,0.0,0.0,0.0,0.0,0.0,0.0,0.0,0.0,0.0,0.0,0.0,0.0,0.0,0.0,0.0,0.0,0.0,0.0,0.0,0.0,0.0,0.0,0.0,11.2188,11.4012,11.496,0.0,0.0,0.0,0.0,0.0,0.0,0.0,0.0,0.0,0.0,14.4958,15.1095,15.5925,15.929,16.1924,16.3534,16.3554,16.284,16.1088,15.8315,15.5103,0.0,0.0,0.0,0.0,0.0,0.0,0.0,0.0,0.0,0.0,0.0,0.0,0.0,0.0,0.0,0.0,0.0,0.0,0.0,0.0,0.0,0.0,0.0,0.0,0.0,0.0,0.0,0.0,0.0,0.0,0.0,0.0,0.0,0.0,0.0,0.0,0.0,0.0,0.0,0.0,0.0,0.0,0.0,0.0,0.0,0.0,0.0,0.0,0.0,0.0,0.0,0.0,0.0,0.0,14.535,15.2332,16.2052,16.8597,17.1806,17.5372,17.7298,17.7148,17.3541,16.9788,0.0,0.0,0.0,0.0,0.0,0.0,0.0,0.0,0.0,0.0,0.0,0.0,0.0,0.0,0.0,0.0,0.0,0.0,0.0,0.0,0.0,0.0,0.0,0.0,0.0,0.0,0.0,0.0,11.1318,11.2046,11.2914,0.0,0.0,0.0,0.0,0.0,0.0,0.0,0.0,0.0,0.0,15.0265,15.4104,15.7318,15.9582,16.0093,16.0166,15.9556,15.7877,15.5906,15.2891,14.8493,0.0,0.0,0.0,0.0,0.0,0.0,0.0,0.0,0.0,0.0,0.0,0.0,0.0,0.0,0.0,0.0,0.0,0.0,0.0,0.0,0.0,0.0,0.0,0.0,0.0,0.0,0.0,0.0,0.0,0.0,0.0,0.0,0.0,0.0,0.0,0.0,0.0,0.0,0.0,0.0,0.0,0.0,0.0,0.0,0.0,0.0,0.0,0.0,0.0,0.0,0.0,0.0,0.0,14.4459,15.1589,16.1754,16.8597,17.1804,17.5372,17.7298,17.7298,17.2568,16.8278,0.0,0.0,0.0,0.0,0.0,0.0,0.0,0.0,0.0,0.0,0.0,0.0,0.0,0.0,0.0,0.0,0.0,0.0,0.0,0.0,0.0,0.0,0.0,0.0,0.0,0.0,0.0,0.0,10.8335,10.9208,11.1318,0.0,0.0,0.0,0.0,0.0,0.0,0.0,0.0,0.0,0.0,14.665,15.1213,15.4154,0.0,0.0,15.6709,15.6198,15.4665,15.2476,14.9337,14.4411,14.0712,0.0,0.0,0.0,0.0,0.0,0.0,0.0,0.0,0.0,0.0,0.0,0.0,0.0,0.0,0.0,0.0,0.0,0.0,0.0,0.0,0.0,0.0,0.0,0.0,0.0,0.0,0.0,0.0,0.0,0.0,0.0,0.0,0.0,0.0,0.0,0.0,0.0,0.0,0.0,0.0,0.0,0.0,0.0,0.0,0.0,0.0,0.0,0.0,0.0,0.0,0.0,0.0,0.0,15.1589,16.1679,16.8448,17.1804,17.5372,17.7298,17.7223,17.2558,16.7678,0.0,0.0,0.0,0.0,0.0,0.0,0.0,0.0,0.0,0.0,0.0,0.0,0.0,0.0,0.0,0.0,0.0,0.0,0.0,0.0,0.0,0.0,0.0,0.0,0.0,0.0,0.0,0.0,0.0,0.0,0.0,0.0,0.0,0.0,0.0,0.0,0.0,0.0,0.0,0.0,0.0,14.1113,14.7493,14.9848,15.1454,0.0,0.0,15.2622,15.1162,14.8169,14.452,13.9907,0.0,0.0,0.0,0.0,0.0,0.0,0.0,0.0,0.0,0.0,0.0,0.0,0.0,0.0,0.0,0.0,0.0,0.0,0.0,0.0,0.0,0.0,0.0,0.0,0.0,0.0,0.0,0.0,0.0,0.0,0.0,0.0,0.0,0.0,0.0,0.0,0.0,0.0,0.0,0.0,0.0,0.0,0.0,0.0,0.0,0.0,0.0,0.0,0.0,0.0,0.0,0.0,0.0,0.0,15.1648,16.0557,16.733,17.1872,17.5441,17.7291,17.7349,17.156,0.0,0.0,0.0,0.0,0.0,0.0,0.0,0.0,0.0,0.0,0.0,0.0,0.0,0.0,0.0,0.0,0.0,0.0,0.0,0.0,0.0,0.0,0.0,0.0,0.0,0.0,0.0,10.0737,0.0,0.0,0.0,0.0,0.0,0.0,0.0,0.0,0.0,0.0,0.0,0.0,0.0,0.0,13.8709,14.2914,14.4958,14.6126,0.0,0.0,14.6491,14.6126,14.3279,14.0271,0.0,0.0,0.0,0.0,0.0,0.0,0.0,0.0,0.0,0.0,0.0,0.0,0.0,0.0,0.0,0.0,0.0,0.0,0.0,0.0,0.0,0.0,0.0,0.0,0.0,0.0,0.0,0.0,0.0,0.0,0.0,0.0,0.0,0.0,0.0,0.0,0.0,0.0,0.0,0.0,0.0,0.0,0.0,0.0,0.0,0.0,0.0,0.0,0.0,0.0,0.0,0.0,0.0,0.0,14.0736,15.0674,15.9812,16.6877,17.1867,17.5503,17.7358,17.7489,17.1307,16.6455,0.0,0.0,0.0,0.0,0.0,0.0,0.0,0.0,0.0,0.0,0.0,0.0,0.0,0.0,0.0,0.0,0.0,0.0,0.0,0.0,0.0,0.0,0.0,0.0,0.0,0.0,0.0,0.0,0.0,0.0,0.0,0.0,0.0,0.0,0.0,0.0,0.0,0.0,0.0,0.0,0.0,0.0,13.9265,14.0505,0.0,0.0,0.0,14.0067,14.0067,0.0,0.0,0.0,0.0,0.0,0.0,0.0,0.0,0.0,0.0,0.0,0.0,0.0,0.0,0.0,0.0,0.0,0.0,0.0,0.0,0.0,0.0,0.0,0.0,0.0,0.0,0.0,0.0,0.0,0.0,0.0,0.0,0.0,0.0,0.0,0.0,0.0,0.0,0.0,0.0,0.0,0.0,0.0,0.0,0.0,0.0,0.0,0.0,0.0,0.0,0.0,0.0,0.0,0.0,0.0,0.0,0.0,14.9177,15.8911,16.643,17.1637,17.5412,17.719,17.7179,17.1351,16.6415,0.0,0.0,0.0,0.0,0.0,0.0,0.0,0.0,0.0,0.0,0.0,0.0,0.0,0.0,0.0,0.0,0.0,0.0,0.0,0.0,0.0,0.0,0.0,0.0,0.0,0.0,0.0,0.0,0.0,0.0,0.0,0.0,0.0,0.0,0.0,0.0,0.0,0.0,0.0,0.0,0.0,13.2444,13.5761,13.6053,13.5396,0.0,0.0,13.3425,13.3425,13.2112,0.0,0.0,0.0,0.0,0.0,0.0,0.0,0.0,0.0,0.0,0.0,0.0,0.0,0.0,0.0,0.0,0.0,0.0,0.0,0.0,0.0,0.0,0.0,0.0,0.0,0.0,0.0,0.0,0.0,0.0,0.0,0.0,0.0,0.0,0.0,0.0,0.0,0.0,0.0,0.0,0.0,0.0,0.0,0.0,0.0,0.0,0.0,0.0,0.0,0.0,0.0,0.0,0.0,0.0,0.0,0.0,14.7656,15.6153,16.3804,17.0248,17.383,17.5668,17.5836,17.0865,16.5418,0.0,0.0,0.0,0.0,0.0,0.0,0.0,0.0,0.0,0.0,0.0,0.0,0.0,0.0,0.0,0.0,0.0,0.0,0.0,0.0,0.0,0.0,0.0,0.0,0.0,0.0,0.0,0.0,0.0,0.0,0.0,0.0,0.0,0.0,0.0,0.0,0.0,0.0,0.0,0.0,0.0,12.8965,13.1017,13.0141,0.0,0.0,0.0,0.0,12.6929,12.5542,0.0,0.0,0.0,0.0,0.0,0.0,0.0,0.0,0.0,0.0,0.0,0.0,0.0,0.0,0.0,0.0,0.0,0.0,0.0,0.0,0.0,0.0,0.0,0.0,0.0,0.0,0.0,0.0,0.0,0.0,0.0,0.0,0.0,0.0,0.0,0.0,0.0,0.0,0.0,0.0,0.0,0.0,0.0,0.0,0.0,0.0,0.0,0.0,0.0,0.0,0.0,0.0,0.0,0.0,0.0,0.0,14.6078,15.5091,16.3113,16.985,17.3433,17.5342,17.5427,17.0826,16.517,0.0,0.0,0.0,0.0,0.0,0.0,0.0,0.0,0.0,0.0,0.0,0.0,0.0,0.0,0.0,0.0,0.0,0.0,0.0,0.0,0.0,0.0,0.0,0.0,0.0,0.0,0.0,0.0,0.0,0.0,0.0,0.0,0.0,0.0,0.0,0.0,0.0,0.0,0.0,0.0,12.3622,12.5537,12.7294,0.0,0.0,0.0,0.0,0.0,0.0,12.1966,12.101,0.0,0.0,0.0,0.0,0.0,0.0,0.0,0.0,0.0,0.0,0.0,0.0,0.0,0.0,0.0,0.0,0.0,0.0,0.0,0.0,0.0,0.0,0.0,0.0,0.0,0.0,0.0,0.0,0.0,0.0,0.0,0.0,0.0,0.0,0.0,0.0,0.0,0.0,0.0,0.0,0.0,0.0,0.0,0.0,0.0,0.0,0.0,0.0,0.0,0.0,0.0,0.0,0.0,0.0,0.0,14.4363,15.4023,16.2492,16.9537,17.3106,17.5011,17.5033,17.0784,16.4822,15.7377,0.0,0.0,0.0,0.0,0.0,0.0,0.0,0.0,0.0,0.0,0.0,0.0,0.0,0.0,0.0,0.0,0.0,0.0,0.0,0.0,0.0,0.0,0.0,0.0,0.0,0.0,0.0,0.0,0.0,0.0,0.0,0.0,0.0,0.0,0.0,0.0,0.0,0.0,0.0,12.1352,12.2463,0.0,0.0,0.0,0.0,0.0,0.0,0.0,0.0,11.875,0.0,0.0,0.0,0.0,0.0,0.0,0.0,0.0,0.0,0.0,0.0,0.0,0.0,0.0,0.0,0.0,0.0,0.0,0.0,0.0,0.0,0.0,0.0,0.0,0.0,0.0,0.0,0.0,0.0,0.0,0.0,0.0,0.0,0.0,0.0,0.0,0.0,0.0,0.0,0.0,0.0,0.0,0.0,0.0,0.0,0.0,0.0,0.0,0.0,0.0,0.0,0.0,0.0,0.0,0.0,0.0,15.1382,15.9847,16.7992,17.1634,17.3456,17.3641,17.0235,16.3242,15.2565,0.0,0.0,0.0,0.0,0.0,0.0,0.0,0.0,0.0,0.0,0.0,0.0,0.0,0.0,0.0,0.0,0.0,0.0,0.0,0.0,0.0,0.0,0.0,0.0,0.0,0.0,0.0,0.0,0.0,0.0,0.0,0.0,0.0,0.0,0.0,0.0,0.0,0.0,11.5077,11.8293,0.0,0.0,0.0,0.0,0.0,0.0,0.0,0.0,11.6054,0.0,0.0,0.0,0.0,0.0,0.0,0.0,0.0,0.0,0.0,0.0,0.0,0.0,0.0,0.0,0.0,0.0,0.0,0.0,0.0,0.0,0.0,0.0,0.0,0.0,0.0,0.0,0.0,0.0,0.0,0.0,0.0,0.0,0.0,0.0,0.0,0.0,0.0,0.0,0.0,0.0,0.0,0.0,0.0,0.0,0.0,0.0,0.0,0.0,0.0,0.0,0.0,0.0,0.0,0.0,0.0,0.0,0.0,15.7625,16.5067,16.8688,17.0526,17.0536,16.5799,15.8881,0.0,0.0,0.0,0.0,0.0,0.0,0.0,0.0,0.0,0.0,0.0,0.0,0.0,0.0,0.0,0.0,0.0,0.0,0.0,0.0,0.0,0.0,0.0,0.0,0.0,0.0,0.0,0.0,0.0,0.0,0.0,0.0,0.0,0.0,0.0,0.0,0.0,0.0,0.0,0.0,0.0,0.0,0.0,0.0,0.0,0.0,0.0,0.0,0.0,0.0,0.0,0.0,0.0,0.0,0.0,0.0,0.0,0.0,0.0,0.0,0.0,0.0,0.0,0.0,0.0,0.0,0.0,0.0,0.0,0.0,0.0,0.0,0.0,0.0,0.0,0.0,0.0,0.0,0.0,0.0,0.0,0.0,0.0,0.0,0.0,0.0,0.0,0.0,0.0,0.0,0.0,0.0,0.0,0.0,0.0,0.0,0.0,0.0,0.0,0.0,0.0,0.0,0.0,0.0,0.0,0.0,0.0,0.0,15.5039,16.1748,16.5664,16.7725,16.7754,16.0385,15.3392,0.0,0.0,0.0,0.0,0.0,0.0,0.0,0.0,0.0,0.0,0.0,0.0,0.0,0.0,0.0,0.0,0.0,0.0,0.0,0.0,0.0,0.0,0.0,0.0,0.0,0.0,0.0,0.0,0.0,0.0,0.0,0.0,0.0,0.0,0.0,0.0,0.0,0.0,0.0,0.0,0.0,0.0,0.0,0.0,0.0,0.0,0.0,0.0,11.474,0.0,0.0,0.0,0.0,0.0,0.0,0.0,0.0,0.0,0.0,0.0,0.0,0.0,0.0,0.0,0.0,0.0,0.0,0.0,0.0,0.0,0.0,0.0,0.0,0.0,0.0,0.0,0.0,0.0,0.0,0.0,0.0,0.0,0.0,0.0,0.0,0.0,0.0,0.0,0.0,0.0,0.0,0.0,0.0,0.0,0.0,0.0,0.0,0.0,0.0,0.0,0.0,0.0,0.0,0.0,0.0,0.0,0.0,0.0,15.1845,15.8553,16.3517,16.61,16.5799,15.5347,14.7151,0.0,0.0,0.0,0.0,0.0,0.0,0.0,0.0,0.0,0.0,0.0,0.0,0.0,0.0,0.0,0.0,0.0,0.0,0.0,0.0,0.0,0.0,0.0,0.0,0.0,0.0,0.0,0.0,0.0,0.0,0.0,0.0,0.0,0.0,0.0,0.0,0.0,0.0,0.0,0.0,0.0,0.0,0.0,0.0,0.0,0.0,0.0,0.0,0.0,0.0,0.0,0.0,0.0,0.0,0.0,0.0,0.0,0.0,0.0,0.0,0.0,0.0,0.0,0.0,0.0,0.0,0.0,0.0,0.0,0.0,0.0,0.0,0.0,0.0,0.0,0.0,0.0,0.0,0.0,0.0,0.0,0.0,0.0,0.0,0.0,0.0,0.0,0.0,0.0,0.0,0.0,0.0,0.0,0.0,0.0,0.0,0.0,0.0,0.0,0.0,0.0,0.0,0.0,0.0,0.0,0.0,0.0,0.0,14.7168,15.3874,15.8005,15.8731,15.5874,14.8279,14.2295,0.0,0.0,0.0,0.0,0.0,0.0,0.0,0.0,0.0,0.0,0.0,0.0,0.0,0.0,0.0,0.0,0.0,0.0,0.0,0.0,0.0,0.0,0.0,0.0,0.0,0.0,0.0,0.0,0.0,0.0,0.0,0.0,0.0,0.0,0.0,0.0,0.0,0.0,0.0,0.0,0.0,0.0,0.0,0.0,0.0,0.0,0.0,0.0,0.0,0.0,0.0,0.0,0.0,0.0,0.0,0.0,0.0,0.0,0.0,0.0,0.0,0.0,0.0,0.0,0.0,0.0,0.0,0.0,0.0,0.0,0.0,0.0,0.0,0.0,0.0,0.0,0.0,0.0,0.0,0.0,0.0,0.0,0.0,0.0,0.0,0.0,0.0,0.0,0.0,0.0,0.0,0.0,0.0,0.0,0.0,0.0,0.0,0.0,0.0,0.0,0.0,0.0,0.0,0.0,0.0,0.0,0.0,0.0,0.0,14.8065,15.0338,14.9633,14.5948,14.1136,13.6958,0.0,0.0,0.0,0.0,0.0,0.0,0.0,0.0,0.0,0.0,0.0,0.0,0.0,0.0,0.0,0.0,0.0,0.0,0.0,0.0,0.0,0.0,0.0,0.0,0.0,0.0,0.0,0.0,0.0,0.0,0.0,0.0,0.0,0.0,0.0,0.0,0.0,0.0,0.0,0.0,0.0,0.0,0.0,0.0,0.0,0.0,0.0,0.0,0.0,0.0,0.0,0.0,0.0,0.0,0.0,0.0,0.0,0.0,0.0,0.0,0.0,0.0,0.0,0.0,0.0,0.0,0.0,0.0,0.0,0.0,0.0,0.0,0.0,0.0,0.0,0.0,0.0,0.0,0.0,0.0,0.0,0.0,0.0,0.0,0.0,0.0,0.0,0.0,0.0,0.0,0.0,0.0,0.0,0.0,0.0,0.0,0.0,0.0,0.0,0.0,0.0,0.0,0.0,0.0,0.0,0.0,0.0,0.0,0.0,14.1662,14.0309,13.9482,13.9106,13.4444,13.0193,0.0,0.0,0.0,0.0,0.0,0.0,0.0,0.0,0.0,0.0,0.0,0.0,0.0,0.0,0.0,0.0,0.0,0.0,0.0,0.0,0.0,0.0,0.0,0.0,0.0,0.0,0.0,0.0,0.0,0.0,0.0,0.0,0.0,0.0,0.0,0.0,0.0,0.0,0.0,0.0,0.0,0.0,0.0,0.0,0.0,0.0,0.0,0.0,0.0,0.0,0.0,0.0,0.0,0.0,0.0,0.0,0.0,0.0,0.0,0.0,0.0,0.0,0.0,0.0,0.0,0.0,0.0,0.0,0.0,0.0,0.0,0.0,0.0,0.0,0.0,0.0,0.0,0.0,0.0,0.0,0.0,0.0,0.0,0.0,0.0,0.0,0.0,0.0,0.0,0.0,0.0,0.0,0.0,0.0,0.0,0.0,0.0,0.0,0.0,0.0,0.0,0.0,0.0,0.0,0.0,0.0,0.0,0.0,0.0,13.3241,13.3767,13.3917,13.3993,13.1135,12.7522,12.3003,0.0,0.0,0.0,0.0,0.0,0.0,0.0,0.0,0.0,0.0,0.0,0.0,0.0,0.0,0.0,0.0,0.0,0.0,0.0,0.0,0.0,0.0,0.0,0.0,0.0,0.0,0.0,0.0,0.0,0.0,0.0,0.0,0.0,0.0,0.0,0.0,0.0,0.0,0.0,0.0,0.0,0.0,0.0,0.0,0.0,0.0,0.0,0.0,0.0,0.0,0.0,0.0,0.0,0.0,0.0,0.0,0.0,0.0,0.0,0.0,0.0,0.0,0.0,0.0,0.0,0.0,0.0,0.0,0.0,0.0,0.0,0.0,0.0,0.0,0.0,0.0,0.0,0.0,0.0,0.0,0.0,0.0,0.0,0.0,0.0,0.0,0.0,0.0,0.0,0.0,0.0,0.0,0.0,0.0,0.0,0.0,0.0,0.0,0.0,0.0,0.0,0.0,0.0,0.0,0.0,0.0,0.0,0.0,12.6323,12.8052,12.8955,12.888,12.6774,12.3689,0.0,0.0,0.0,0.0,0.0,0.0,0.0,0.0,0.0,0.0,0.0,0.0,0.0,0.0,0.0,0.0,0.0,0.0,0.0,0.0,0.0,0.0,0.0,0.0,0.0,0.0,0.0,0.0,0.0,0.0,0.0,0.0,0.0,0.0,0.0,0.0,0.0,0.0,0.0,0.0,0.0,0.0,0.0,0.0,0.0,0.0,0.0,0.0,0.0,0.0,0.0,0.0,0.0,0.0,0.0,0.0,0.0,0.0,0.0,0.0,0.0,0.0,0.0,0.0,0.0,0.0,0.0,0.0,0.0,0.0,0.0,0.0,0.0,0.0,0.0,0.0,0.0,0.0,0.0,0.0,0.0,0.0,0.0,0.0,0.0,0.0,0.0,0.0,0.0,0.0,0.0,0.0,0.0,0.0,0.0,0.0,0.0,0.0,0.0,0.0,0.0,0.0,0.0,0.0,0.0,0.0,0.0,0.0,11.6363,12.121,12.3015,12.4067,12.3842,12.0834,11.8091,0.0,0.0,0.0,0.0,0.0,0.0,0.0,0.0,0.0,0.0,0.0,0.0,0.0,0.0,0.0,0.0,0.0,0.0,0.0,0.0,0.0,0.0,0.0,0.0,0.0,0.0,0.0,0.0,0.0,0.0,0.0,0.0,0.0,0.0,0.0,0.0,0.0,0.0,0.0,0.0,0.0,0.0,0.0,0.0,0.0,0.0,0.0,0.0,0.0,0.0,0.0,0.0,0.0,0.0,0.0,0.0,0.0,0.0,0.0,0.0,0.0,0.0,0.0,0.0,0.0,0.0,0.0,0.0,0.0,0.0,0.0,0.0,0.0,0.0,0.0,0.0,0.0,0.0,0.0,0.0,0.0,0.0,0.0,0.0,0.0,0.0,0.0,0.0,0.0,0.0,0.0,0.0,0.0,0.0,0.0,0.0,0.0,0.0,0.0,0.0,0.0,0.0,0.0,0.0,0.0,0.0,0.0,0.0,0.0,11.6247,0.0,12.2112,0.0,11.9932,11.7377,0.0,0.0,0.0,0.0,0.0,0.0,0.0,0.0,0.0,0.0,0.0,0.0,0.0,0.0,0.0,0.0,0.0,0.0,0.0,0.0,0.0,0.0,0.0,0.0,0.0,0.0,0.0,0.0,0.0,0.0,0.0,0.0,0.0,0.0,0.0,0.0,0.0,0.0,0.0,0.0,0.0,0.0,0.0,0.0,0.0,0.0,0.0,0.0,0.0,0.0,0.0,0.0,0.0,0.0,0.0,0.0,0.0,0.0,0.0,0.0,0.0,0.0,0.0,0.0,0.0,0.0,0.0,0.0,0.0,0.0,0.0,0.0,0.0,0.0,0.0,0.0,0.0,0.0,0.0,0.0,0.0,0.0,0.0,0.0,0.0,0.0,0.0,0.0,0.0,0.0,0.0,0.0,0.0,0.0,0.0,0.0,0.0,0.0,0.0,0.0,0.0,0.0,0.0,0.0,0.0,0.0,0.0,0.0,0.0,11.3916,11.7601,11.9857,0.0,11.8129,11.5912,0.0,0.0,0.0,0.0,0.0,0.0,0.0,0.0,0.0,0.0,0.0,0.0,0.0,0.0,0.0,0.0,0.0,0.0,0.0,0.0,0.0,0.0,0.0,0.0,0.0,0.0,0.0,0.0,0.0,0.0,0.0,0.0,0.0,0.0,0.0,0.0,0.0,0.0,0.0,0.0,0.0,0.0,0.0,0.0,0.0,0.0,0.0,0.0,0.0,0.0,0.0,0.0,0.0,0.0,0.0,0.0,0.0,0.0,0.0,0.0,0.0,0.0,0.0,0.0,0.0,0.0,0.0,0.0,0.0,0.0,0.0,0.0,0.0,0.0,0.0,0.0,0.0,0.0,0.0,0.0,0.0,0.0,0.0,0.0,0.0,0.0,0.0,0.0,0.0,0.0,0.0,0.0,0.0,0.0,0.0,0.0,0.0,0.0,0.0,0.0,0.0,0.0,0.0,0.0,0.0,0.0,0.0,0.0,0.0,0.0,11.542,11.7074,11.8578,11.5499,11.366,0.0,0.0,0.0,0.0,0.0,0.0,0.0,0.0,0.0,0.0,0.0,0.0,0.0,0.0,0.0,0.0,0.0,0.0,0.0,0.0,0.0,0.0,0.0,0.0,0.0,0.0,0.0,0.0,0.0,0.0,0.0,0.0,0.0,0.0,0.0,0.0,0.0,0.0,0.0,0.0,0.0,0.0,0.0,0.0,0.0,0.0,0.0,0.0,0.0,0.0,0.0,0.0,0.0,0.0,0.0,0.0,0.0,0.0,0.0,0.0,0.0,0.0,0.0,0.0,0.0,0.0,0.0,0.0,0.0,0.0,0.0,0.0,0.0,0.0,0.0,0.0,0.0,0.0,0.0,0.0,0.0,0.0,0.0,0.0,0.0,0.0,0.0,0.0,0.0,0.0,0.0,0.0,0.0,0.0,0.0,0.0,0.0,0.0,0.0,0.0,0.0,0.0,0.0,0.0,0.0,0.0,0.0,0.0,0.0,0.0,11.3691,0.0,11.6849,11.4824,11.2945,11.1741,0.0,0.0,0.0,0.0,0.0,0.0,0.0,0.0,0.0,0.0,0.0,0.0,0.0,0.0,0.0,0.0,0.0,0.0,0.0,0.0,0.0,0.0,0.0,0.0,0.0,0.0,0.0,0.0,0.0,0.0,0.0,0.0,0.0,0.0,0.0,0.0,0.0,0.0,0.0,0.0,0.0,0.0,0.0,0.0,0.0,0.0,0.0,0.0,0.0,0.0,0.0,0.0,0.0,0.0,0.0,0.0,0.0,0.0,0.0,0.0,0.0,0.0,0.0,0.0,0.0,0.0,0.0,0.0,0.0,0.0,0.0,0.0,0.0,0.0,0.0,0.0,0.0,0.0,0.0,0.0,0.0,0.0,0.0,0.0,0.0,0.0,0.0,0.0,0.0,0.0,0.0,0.0,0.0,0.0,0.0,0.0,0.0,0.0,0.0,0.0,0.0,0.0,0.0,0.0,0.0,0.0,0.0,0.0,0.0,0.0,0.0,11.5345,11.4223,11.2795,0.0,0.0,0.0,0.0,0.0,0.0,0.0,0.0,0.0,0.0,0.0,0.0,0.0,0.0,0.0,0.0,0.0,0.0,0.0,0.0,0.0,0.0,0.0,0.0,0.0,0.0,0.0,0.0,0.0,0.0,0.0,0.0,0.0,0.0,0.0,0.0,0.0,0.0,0.0,0.0,0.0,0.0,0.0,0.0,0.0,0.0,0.0,0.0,0.0,0.0,0.0,0.0,0.0,0.0,0.0,0.0,0.0,0.0,0.0,0.0,0.0,0.0,0.0,0.0,0.0,0.0,0.0,0.0,0.0,0.0,0.0,0.0,0.0,0.0,0.0,0.0,0.0,0.0,0.0,0.0,0.0,0.0,0.0,0.0,0.0,0.0,0.0,0.0,0.0,0.0,0.0,0.0,0.0,0.0,0.0,0.0,0.0,0.0,0.0,0.0,0.0,0.0,0.0,0.0,0.0,0.0,0.0,0.0,0.0,0.0,0.0,11.2112,11.3616,11.3545,0.0,11.0863,0.0,0.0,0.0,0.0,0.0,0.0,0.0,0.0,0.0,0.0,0.0,0.0,0.0,0.0,0.0,0.0,0.0,0.0,0.0,0.0,0.0,0.0,0.0,0.0,0.0,0.0,0.0,0.0,0.0,0.0,0.0,0.0,0.0,0.0,0.0,0.0,0.0,0.0,0.0,0.0,0.0,0.0,0.0,0.0,0.0,0.0,0.0,0.0,0.0,0.0,0.0,0.0,0.0,0.0,0.0,0.0,0.0,0.0,0.0,0.0,0.0,0.0,0.0,0.0,0.0,0.0,0.0,0.0,0.0,0.0,0.0,0.0,0.0,0.0,0.0,0.0,0.0,0.0,0.0,0.0,0.0,0.0,0.0,0.0,0.0,0.0,0.0,0.0,0.0,0.0,0.0,0.0,0.0,0.0,0.0,0.0,0.0,0.0,0.0,0.0,0.0,0.0,0.0,0.0,0.0,0.0,0.0,0.0,0.0,0.0,0.0,0.0,11.1781,11.1558,11.1106,0.0,0.0,0.0,0.0,0.0,0.0,0.0,0.0,0.0,0.0,0.0,0.0,0.0,0.0,0.0,0.0,0.0,0.0,0.0,0.0,0.0,0.0,0.0,0.0,0.0,0.0,0.0,0.0,0.0,0.0,0.0,0.0,0.0,0.0,0.0,0.0,0.0,0.0,0.0,0.0,0.0,0.0,0.0,0.0,0.0,0.0,0.0,0.0,0.0,0.0,0.0,0.0,0.0,0.0,0.0,0.0,0.0,0.0,0.0,0.0,0.0,0.0,0.0,0.0,0.0,0.0,0.0,0.0,0.0,0.0,0.0,0.0,0.0,0.0,0.0,0.0,0.0,0.0,0.0,0.0,0.0,0.0,0.0,0.0,0.0,0.0,0.0,0.0,0.0,0.0,0.0,0.0,0.0,0.0,0.0,0.0,0.0,0.0,0.0,0.0,0.0,0.0,0.0,0.0,0.0,0.0,0.0,0.0,0.0,0.0,11.0198,11.0238,11.0056,10.9982,10.9828,0.0,0.0,0.0,0.0,0.0,0.0,0.0,0.0,0.0,0.0,0.0,0.0,0.0,0.0,0.0,0.0,0.0,0.0,0.0,0.0,0.0,0.0,0.0,0.0,0.0,0.0,0.0,0.0,0.0,0.0,0.0,0.0,0.0,0.0,0.0,0.0,0.0,0.0,0.0,0.0,0.0,0.0,0.0,0.0,0.0,0.0,0.0,0.0,0.0,0.0,0.0,0.0,0.0,0.0,0.0,0.0,0.0,0.0,0.0,0.0,0.0,0.0,0.0,0.0,0.0,0.0,0.0,0.0,0.0,0.0,0.0,0.0,0.0,0.0,0.0,0.0,0.0,0.0,0.0,0.0,0.0,0.0,0.0,0.0,0.0,0.0,0.0,0.0,0.0,0.0,0.0,0.0,0.0,0.0,0.0,0.0,0.0,0.0,0.0,0.0,0.0,0.0,0.0,0.0,0.0,0.0,0.0,0.0,0.0,0.0,0.0,0.0,0.0,0.0,10.8278,0.0,0.0,0.0,0.0,0.0,0.0,0.0,0.0,0.0,0.0,0.0,0.0,0.0,0.0,0.0,0.0,0.0,0.0,0.0,0.0,0.0,0.0,0.0,0.0,0.0,0.0,0.0,0.0,0.0,0.0,0.0,0.0,0.0,0.0,0.0,0.0,0.0,0.0,0.0,0.0,0.0,0.0,0.0,0.0,0.0,0.0,0.0,0.0,0.0,0.0,0.0,0.0,0.0,0.0,0.0,0.0,0.0,0.0,0.0,0.0,0.0,0.0,0.0,0.0,0.0,0.0,0.0,0.0,0.0,0.0,0.0,0.0,0.0,0.0,0.0,0.0,0.0,0.0,0.0,0.0,0.0,0.0,0.0,0.0,0.0,0.0,0.0,0.0,0.0,0.0,0.0,0.0,0.0,0.0,0.0,0.0,0.0,0.0,0.0,0.0,0.0,0.0,0.0,0.0,0.0,0.0,0.0,0.0,0.0,0.0,0.0,0.0,0.0,0.0,0.0,0.0,0.0,0.0,0.0,0.0,0.0,0.0,0.0,0.0,0.0,0.0,0.0,0.0,0.0,0.0,0.0,0.0,0.0,0.0,0.0,0.0,0.0,0.0,0.0,0.0,0.0,0.0,0.0,0.0,0.0,0.0,0.0,0.0,0.0,0.0,0.0,0.0,0.0,0.0,0.0,0.0,0.0,0.0,0.0,0.0,0.0,0.0,0.0,0.0,0.0,0.0,0.0,0.0,0.0,0.0,0.0,0.0,0.0,0.0,0.0,0.0,0.0,0.0,0.0,0.0,0.0,0.0,0.0,0.0,0.0,0.0,0.0,0.0,0.0,0.0,0.0,0.0,0.0,0.0,0.0,0.0,0.0,0.0,0.0,0.0,0.0,0.0,0.0,0.0,0.0,0.0,0.0,0.0,0.0,0.0,0.0,0.0,0.0,0.0,0.0,0.0,0.0,0.0,0.0,0.0,0.0,0.0,0.0,0.0,0.0,0.0,0.0,0.0,0.0,0.0,0.0,0.0,0.0,0.0,0.0,0.0,0.0,0.0,0.0,0.0,0.0,0.0,0.0,0.0,0.0,0.0,0.0,0.0,0.0,0.0,0.0,0.0,0.0,0.0,0.0,0.0,0.0,0.0,0.0,0.0,0.0,0.0,0.0,0.0,0.0,0.0,0.0,0.0,0.0,0.0,0.0,0.0,0.0,0.0,0.0,0.0,0.0,0.0,0.0,0.0,0.0,0.0,0.0,0.0,0.0,0.0,0.0,0.0,0.0,0.0,0.0,0.0,0.0,0.0,0.0,0.0,0.0,0.0,0.0,0.0,0.0,0.0,0.0,0.0,0.0,0.0,0.0,0.0,0.0,0.0,0.0,0.0,0.0,0.0,0.0,0.0,0.0,0.0,0.0,0.0,0.0,0.0,0.0,0.0,0.0,0.0,0.0,0.0,0.0,0.0,0.0,0.0,0.0,0.0,0.0,0.0,0.0,0.0,0.0,0.0,0.0,0.0,0.0,0.0,0.0,0.0,0.0,0.0,0.0,0.0,0.0,0.0,0.0,0.0,0.0,0.0,0.0,0.0,0.0,0.0,0.0,0.0,0.0,0.0,0.0,0.0,0.0,0.0,0.0,0.0,0.0,0.0,0.0,0.0,0.0,0.0,0.0,0.0,0.0,0.0,0.0,0.0,0.0,0.0,0.0,0.0,0.0,0.0,0.0,0.0,0.0,0.0,0.0,0.0,0.0,0.0,0.0,0.0,0.0,0.0,0.0,0.0,0.0,0.0,0.0,0.0,0.0,0.0,0.0,0.0,0.0,0.0,0.0,0.0,0.0,0.0,0.0,0.0,0.0,0.0,0.0,0.0,0.0,0.0,0.0,0.0,0.0,0.0,0.0,0.0,0.0,0.0,0.0,0.0,0.0,0.0,0.0,0.0,0.0,0.0,0.0,0.0,0.0,0.0,0.0,0.0,0.0,0.0,0.0,0.0,0.0,0.0,0.0,0.0,0.0,0.0,0.0,0.0,0.0,0.0,0.0,0.0,0.0,0.0,0.0,0.0,0.0,0.0,0.0,0.0,0.0,0.0,0.0,0.0,0.0,0.0,0.0,0.0,0.0,0.0,0.0,0.0,0.0,0.0,0.0,0.0,0.0,0.0,0.0,0.0,0.0,0.0,0.0,0.0,0.0,0.0,0.0,0.0,0.0,0.0,0.0,0.0,0.0,0.0,0.0,0.0,0.0,0.0,0.0,0.0,0.0,0.0,0.0,0.0,0.0,0.0,0.0,0.0,0.0,0.0,0.0,0.0,0.0,0.0,0.0,0.0,0.0,0.0,0.0,0.0,0.0,0.0,0.0,0.0,0.0,0.0,0.0,0.0,0.0,0.0,0.0,0.0,0.0,0.0,0.0,0.0,0.0,0.0,0.0,0.0,0.0,0.0,0.0,0.0,0.0,0.0,0.0,0.0,0.0,0.0,0.0,0.0,0.0,0.0,0.0,0.0,0.0,0.0,0.0,0.0,0.0,0.0,0.0,0.0,0.0,0.0,0.0,0.0,0.0,0.0,0.0,0.0,0.0,0.0,0.0,0.0,0.0,0.0,0.0,0.0,0.0,0.0,0.0,0.0,0.0,0.0,0.0,0.0,0.0,0.0,0.0,0.0,0.0,0.0,0.0,0.0,0.0,0.0,0.0,0.0,0.0,0.0,0.0,0.0,0.0,0.0,0.0,0.0,0.0,0.0,0.0,0.0,0.0,0.0,0.0,0.0,0.0,0.0,0.0,0.0,0.0,0.0,0.0,0.0,0.0,0.0,0.0,0.0,0.0,0.0,0.0,0.0,0.0,0.0,0.0,0.0,0.0,0.0,0.0,0.0,0.0,0.0,0.0,0.0,0.0,0.0,0.0,0.0,0.0,0.0,0.0,0.0,0.0,0.0,0.0,0.0,0.0,0.0,0.0,0.0,0.0,0.0,0.0,0.0,0.0,0.0,0.0,0.0,0.0,0.0,0.0,0.0,0.0,0.0,0.0,0.0,0.0,0.0,0.0,0.0,0.0,0.0,0.0,0.0,0.0,0.0,0.0,0.0,0.0,0.0,0.0,0.0,0.0,0.0,0.0,0.0,0.0,0.0,0.0,0.0,0.0,0.0,0.0,0.0,0.0,0.0,0.0,0.0,0.0,0.0,0.0,0.0,0.0,0.0,0.0,0.0,0.0,0.0,0.0,0.0,0.0,0.0,0.0,0.0,0.0,0.0,0.0,0.0,0.0,0.0,0.0,0.0,0.0,0.0,0.0,0.0,0.0,0.0,0.0,0.0,0.0,0.0,0.0,0.0,0.0,0.0,0.0,0.0,0.0,0.0,0.0,0.0,0.0,0.0,0.0,0.0,0.0,0.0,0.0,0.0,0.0,0.0,0.0,0.0,0.0,0.0,0.0,0.0,0.0,0.0,0.0,0.0,0.0,0.0,0.0,0.0,0.0,0.0,0.0,0.0,0.0,0.0,0.0,0.0,0.0,0.0,0.0,0.0,0.0,0.0,0.0,0.0,0.0,0.0,0.0,0.0,0.0,0.0,0.0,0.0,0.0,0.0,0.0,0.0,0.0,0.0,0.0,0.0,0.0,0.0,0.0,0.0,0.0,0.0,0.0,0.0,0.0,0.0,0.0,0.0,0.0,0.0,0.0,0.0,0.0,0.0,0.0,0.0,0.0,0.0,0.0,0.0,0.0,0.0,0.0,0.0,0.0,0.0,0.0,0.0,0.0,0.0,0.0,0.0,0.0,0.0,0.0,0.0,0.0,0.0,0.0,0.0,0.0,0.0,0.0,0.0,0.0,0.0,0.0,0.0,0.0,0.0,0.0,0.0,0.0,0.0,0.0,0.0,0.0,0.0,0.0,0.0,0.0,0.0,0.0,0.0,0.0,0.0,0.0,0.0,0.0,0.0,0.0,0.0,0.0,0.0,0.0,0.0,0.0,0.0,0.0,0.0,0.0,0.0,0.0,0.0,0.0,0.0,0.0,0.0,0.0,0.0,0.0,0.0,0.0,0.0,0.0,0.0,0.0,0.0,0.0,0.0,0.0,0.0,0.0,0.0,0.0,0.0,0.0,0.0,0.0,0.0,0.0,0.0,0.0,0.0,0.0,0.0,0.0,0.0,0.0,0.0,0.0,0.0,0.0,0.0,0.0,0.0,0.0,0.0,0.0,0.0,0.0,0.0,0.0,0.0,0.0,0.0,0.0,0.0,0.0,0.0,0.0,0.0,0.0,0.0,0.0,0.0,0.0,0.0,0.0,0.0,0.0,0.0,0.0,0.0,0.0,0.0,0.0,0.0,0.0,0.0,0.0,0.0,0.0,0.0,0.0,0.0]}],[{"header":{"parameterUnit":"kt","parameterCategory":2,"dx":1,"dy":1,"la1":29.587661999999998,"la2":31.0,"lo1":-88.76705300000003,"lo2":-86.6583820000003,"nx":115,"ny":88,"refTime":"2022-10-18T06:00:00:Z","depth":0,"parameterNumber":2,"parameterNumberName":"V-component_of_WINDS"},"data":[-3.8205,-3.8489,-3.8773,-3.8947,-3.9041,-3.9278,-3.9452,-3.9499,-3.9499,-3.9499,-3.8688,-3.7876,-3.6657,-3.4621,-3.5436,-3.5029,-3.4213,-3.4621,-3.4621,-3.4621,-3.3819,-3.4621,-3.5436,-3.5436,-3.4621,-3.4621,-3.4227,-3.3819,-3.3003,-3.3411,-3.3806,-3.4621,-3.4621,-3.5422,-3.5829,-3.6235,-3.6657,-3.747,-3.7891,-3.7891,-3.7876,-3.7048,-3.6235,-3.5422,-3.4213,-3.3411,-3.3161,-3.3583,-3.3781,-3.4031,-3.4374,-3.5495,-3.6448,-3.7734,-3.9019,-4.0286,-4.114,-4.1567,-4.1346,-4.0951,-4.0699,-4.0478,-3.9973,-3.9562,-3.9531,-3.9499,-3.9499,-3.9499,-3.9499,-3.9499,-3.9499,-3.9499,-3.9499,-3.9499,-3.9499,-3.9499,-3.9499,-3.9499,-3.9499,-3.9499,-3.9499,-3.9499,-3.9499,-3.9499,-3.9499,-3.9499,-3.9499,-3.9499,-3.9499,-3.9499,-3.9499,-3.9499,-3.9499,-3.9499,-3.9499,-3.9499,-3.9531,-3.9625,-3.9767,-4.0146,-4.043,-4.0573,-4.073,-4.092,-4.0873,-4.0778,-4.1212,-4.1372,-4.1711,-4.213,-4.2434,-4.3185,-4.4069,-4.4884,-4.5591,-3.8426,-3.8473,-3.8536,-3.8725,-3.8994,-3.9073,-3.9246,-3.9467,-3.9499,-3.9094,-3.7876,-3.7048,-3.5829,-3.4621,-3.3819,-3.3411,-3.3411,-3.3819,-3.3819,-3.3411,-3.3411,-3.4227,-3.4621,-3.4621,-3.4621,-3.4213,-3.3819,-3.3411,-3.3411,-3.3819,-3.4213,-3.4621,-3.5422,-3.6235,-3.6235,-3.6235,-3.7063,-3.7876,-3.8297,-3.8703,-3.7876,-3.7455,-3.6642,-3.5422,-3.4213,-3.3003,-3.3187,-3.3478,-3.3807,-3.4097,-3.4401,-3.5936,-3.7334,-3.8235,-3.9491,-4.0775,-4.163,-4.1567,-4.1441,-4.0967,-4.0699,-4.0383,-3.9831,-3.9546,-3.9515,-3.9499,-3.9499,-3.9499,-3.9499,-3.9499,-3.9499,-3.9499,-3.9499,-3.9499,-3.9499,-3.9499,-3.9499,-3.9499,-3.9499,-3.9499,-3.9499,-3.9499,-3.9499,-3.9499,-3.9499,-3.9499,-3.9499,-3.9499,-3.9499,-3.9499,-3.9499,-3.9499,-3.9499,-3.9499,-3.9499,-3.9515,-3.9531,-3.9673,-3.9957,-4.0399,-4.0746,-4.0904,-4.1062,-4.1236,-4.1315,-4.1283,-4.1707,-4.2049,-4.2602,-4.3091,-4.3805,-4.453,-4.5809,-4.6942,-4.7251,-3.8773,-3.8789,-3.8962,-3.9025,-3.9041,-3.9215,-3.9357,-3.9483,-3.9499,-3.8688,-3.7063,-3.6235,-3.5436,-3.3819,-3.3411,-3.3003,-3.3003,-3.3003,-3.3003,-3.3003,-3.3411,-3.3819,-3.3819,-3.4213,-3.4213,-3.4213,-3.3411,-3.3411,-3.3806,-3.4621,-3.5436,-3.6657,-3.6657,-3.747,-3.7861,-3.7861,-3.8282,-3.8688,-3.8703,-3.9094,-3.9094,-3.7455,-3.6221,-3.5422,-3.4663,-3.3531,-3.3306,-3.3596,-3.3913,-3.4203,-3.448,-3.6019,-3.7504,-3.838,-3.9686,-4.0945,-4.1678,-4.1567,-4.1441,-4.1141,-4.0794,-4.0494,-4.0036,-3.9625,-3.9578,-3.9499,-3.9499,-3.9499,-3.9499,-3.9499,-3.9499,-3.9499,-3.9499,-3.9499,-3.9499,-3.9499,-3.9499,-3.9499,-3.9499,-3.9499,-3.9499,-3.9499,-3.9499,-3.9499,-3.9499,-3.9499,-3.9499,-3.9499,-3.9499,-3.9499,-3.9499,-3.9499,-3.9499,-3.9499,-3.9499,-3.9515,-3.9562,-3.9846,-4.0131,-4.0525,-4.0888,-4.1141,-4.1346,-4.1409,-4.1472,-4.1994,-4.242,-4.2749,-4.3239,-4.4549,-4.5399,-4.6248,-4.7466,-4.8605,-4.9773,-3.912,-3.9152,-3.9389,-3.9373,-3.9168,-3.9389,-3.9499,-3.9499,-3.9094,-3.7876,-3.6235,-3.5829,-3.4621,-3.3411,-3.3003,-3.3003,-3.3003,-3.3003,-3.3003,-3.3003,-3.3003,-3.3411,-3.3819,-3.3411,-3.3411,-3.3819,-3.3819,-3.3411,-3.3806,-3.5029,-3.5843,-3.747,-3.8282,-3.8282,-3.9094,-3.9094,-3.9094,-3.9094,-3.9094,-3.9094,-3.8688,-3.7455,-3.5829,-3.5015,-3.4241,-3.3135,-3.3398,-3.3702,-3.3992,-3.4295,-3.4572,-3.6142,-3.8164,-3.8611,-4.0359,-4.1609,-4.1757,-4.1615,-4.1457,-4.1236,-4.0873,-4.0541,-4.0209,-3.9878,-3.9641,-3.9546,-3.9499,-3.9499,-3.9499,-3.9499,-3.9499,-3.9499,-3.9499,-3.9499,-3.9499,-3.9499,-3.9499,-3.9499,-3.9499,-3.9499,-3.9499,-3.9499,-3.9499,-3.9499,-3.9499,-3.9499,-3.9499,-3.9499,-3.9499,-3.9499,-3.9499,-3.9499,-3.9499,-3.9499,-3.9499,-3.9531,-3.9657,-3.991,-4.0225,-4.0604,-4.0999,-4.1236,-4.1457,-4.1536,-4.1994,-4.242,-4.2846,-4.3698,-4.4549,-4.5823,-4.7096,-4.7943,-4.9194,-5.0442,-5.1725,-3.9452,-3.9452,-3.9483,-3.9467,-3.9467,-3.9467,-3.9499,-3.9499,-3.8703,-3.747,-3.6235,-3.5029,-3.4213,-3.3411,-3.3003,-3.3003,-3.3411,-3.3411,-3.3411,-3.3003,-3.3411,-3.3411,-3.3411,-3.3003,-3.3411,-3.3003,-3.3003,-3.3003,-3.3819,-3.5029,-3.6657,-3.7891,-3.8688,-3.9094,-3.9499,-3.9499,-3.9499,-3.9499,-3.9499,-3.9094,-3.7876,-3.7063,-3.5829,-3.4621,-3.3846,-3.3161,-3.3438,-3.3702,-3.4005,-3.4295,-3.4585,-3.5293,-3.7255,-3.8684,-4.0404,-4.1609,-4.1772,-4.163,-4.1488,-4.1315,-4.0951,-4.0573,-4.0225,-3.991,-4.0064,-3.992,-3.9904,-3.9904,-3.9904,-3.9904,-3.9499,-3.9499,-3.9499,-3.9499,-3.9499,-3.9499,-3.9499,-3.9499,-3.9499,-3.9499,-3.9499,-3.9499,-3.9499,-3.9499,-3.9499,-3.9499,-3.9499,-3.9499,-3.9499,-3.9499,-3.9499,-3.9499,-3.9499,-3.9499,-3.9499,-3.9562,-3.9704,-3.9988,-4.0304,-4.0683,-4.1125,-4.1362,-4.1551,-4.1994,-4.242,-4.2846,-4.4107,-4.4957,-4.6248,-4.7096,-4.8367,-4.9654,-5.0921,-5.2166,-5.3428,-3.9499,-3.9499,-3.9499,-3.9499,-3.9499,-3.9499,-3.9499,-3.9094,-3.8282,-3.7063,-3.6235,-3.5029,-3.4213,-3.3003,-3.3003,-3.3411,-3.3806,-3.3819,-3.4213,-3.4213,-3.4213,-3.3806,-3.3819,-3.3411,-3.3003,-3.3003,-3.3003,-3.3003,-3.3411,-3.5029,-3.7048,-3.8688,-3.9094,-3.9499,-3.9499,-3.9499,-3.9499,-3.9499,-3.9499,-3.8688,-3.7876,-3.6642,-3.5829,-3.4621,-3.3819,-3.3293,-3.3649,-3.3768,-3.4124,-3.4519,-3.4611,-3.536,-3.7098,-3.8901,-4.0225,-4.1875,-4.193,-4.1615,-4.1536,-4.1409,-4.1062,-4.0683,-4.0415,-4.0447,-4.0551,-4.031,-4.0714,-4.031,-4.031,-4.031,-3.9904,-3.9499,-3.9499,-3.9499,-3.9499,-3.9499,-3.9499,-3.9499,-3.9499,-3.9499,-3.9499,-3.9499,-3.9499,-3.9499,-3.9499,-3.9499,-3.9499,-3.9499,-3.9499,-3.9499,-3.9499,-3.9499,-3.9499,-3.9499,-3.9499,-3.9531,-3.9846,-4.0178,-4.043,-4.0746,-4.1251,-4.1488,-4.1551,-4.1994,-4.2846,-4.4107,-4.5381,-4.623,-4.752,-4.8367,-4.9654,-5.0921,-5.2166,-5.3428,-5.4289,-3.9499,-3.9499,-3.9499,-3.9499,-3.9499,-3.9499,-3.9499,-3.9094,-3.7876,-3.7063,-3.6235,-3.4621,-3.3819,-3.3003,-3.3411,-3.3819,-3.4621,-3.5029,-3.5422,-3.5422,-3.5029,-3.4621,-3.4213,-3.3411,-3.3003,-3.3003,-3.3003,-3.3003,-3.3411,-3.5029,-3.7455,-3.9094,-3.9499,-3.9499,-3.9499,-3.9499,-3.9499,-3.9499,-3.9499,-3.8688,-3.747,-3.6642,-3.5422,-3.4213,-3.3411,-3.3319,-3.3675,-3.3847,-3.4163,-3.4585,-3.4704,-3.5873,-3.7703,-3.8579,-4.0375,-4.2078,-4.2025,-4.1567,-4.1567,-4.1551,-4.1267,-4.0699,-4.0941,-4.1382,-4.1366,-4.1507,-4.1524,-4.1524,-4.1524,-4.1119,-4.0714,-4.031,-3.9904,-3.9904,-3.9499,-3.9499,-3.9499,-3.9499,-3.9499,-3.9499,-3.9499,-3.9499,-3.9499,-3.9499,-3.9499,-3.9499,-3.9499,-3.9499,-3.9499,-3.9499,-3.9499,-3.9499,-3.9499,-3.9499,-3.9499,-3.9499,-3.9941,-4.0336,-4.0478,-4.073,-4.122,-4.152,-4.1978,-4.242,-4.2846,-4.4532,-4.6248,-4.752,-4.879,-4.9654,-5.0921,-5.2166,-5.3428,-5.4289,-5.5128,-3.9499,-3.9499,-3.9499,-3.9499,-3.9499,-3.9499,-3.9499,-3.9094,-3.7048,-3.6235,-3.5829,-3.4213,-3.3003,-3.3411,-3.4213,-3.4621,-3.5029,-3.5829,-3.6235,-3.6235,-3.5843,-3.5029,-3.4621,-3.3819,-3.3411,-3.3003,-3.3003,-3.3003,-3.3411,-3.5015,-3.7048,-3.8688,-3.9094,-3.9499,-3.9499,-3.9499,-3.9499,-3.9499,-3.9499,-3.8282,-3.7048,-3.6235,-3.5015,-3.3833,-3.3095,-3.3385,-3.3689,-3.3939,-3.4242,-3.4519,-3.473,-3.6821,-3.7914,-3.88,-4.0225,-4.1471,-4.1978,-4.1693,-4.1583,-4.1567,-4.1204,-4.1085,-4.1788,-4.2188,-4.2586,-4.2719,-4.2719,-4.2719,-4.2719,-4.1928,-4.1524,-4.1119,-4.0714,-4.031,-3.9904,-3.9904,-3.9904,-3.9499,-3.9499,-3.9904,-3.9904,-3.9904,-3.9904,-3.9904,-3.9904,-3.9499,-3.9499,-3.9499,-3.9499,-3.9499,-3.9499,-3.9499,-3.9499,-3.9499,-3.9499,-3.9499,-3.9878,-4.0415,-4.0557,-4.073,-4.1188,-4.1567,-4.1994,-4.2846,-4.3272,-4.4549,-4.6248,-4.7943,-4.9635,-5.0902,-5.2186,-5.3408,-5.4062,-5.4961,-5.5316,-3.9499,-3.9499,-3.9499,-3.9499,-3.9499,-3.9499,-3.9499,-3.9094,-3.7048,-3.6221,-3.5829,-3.3806,-3.3003,-3.3411,-3.4213,-3.4621,-3.5829,-3.6657,-3.747,-3.8267,-3.7063,-3.625,-3.5436,-3.4621,-3.3819,-3.3003,-3.3003,-3.3003,-3.3003,-3.5015,-3.6642,-3.7861,-3.8688,-3.9094,-3.9499,-3.9499,-3.9499,-3.9499,-3.9094,-3.8267,-3.6642,-3.5829,-3.5029,-3.386,-3.3201,-3.3451,-3.3794,-3.4084,-3.4335,-3.4585,-3.5227,-3.6306,-3.8364,-3.9308,-4.012,-4.1533,-4.2167,-4.1836,-4.1615,-4.1567,-4.1643,-4.187,-4.2619,-4.3471,-4.3735,-4.3947,-4.3929,-4.3929,-4.3929,-4.3123,-4.2332,-4.2332,-4.1928,-4.1928,-4.1524,-4.1524,-4.1119,-4.0714,-4.0714,-4.1507,-4.1911,-4.1119,-4.0714,-4.0714,-4.031,-3.9904,-3.9499,-3.9499,-3.9499,-3.9499,-3.9499,-3.9499,-3.9499,-3.9499,-3.9499,-3.9499,-3.9878,-4.043,-4.0652,-4.0794,-4.122,-4.242,-4.2846,-4.3272,-4.4549,-4.5399,-4.7096,-4.8367,-5.0058,-5.1323,-5.2967,-5.3644,-5.4731,-5.4999,-5.5679,-3.9499,-3.9499,-3.9499,-3.9499,-3.9499,-3.9499,-3.9499,-3.9094,-3.7861,-3.7048,-3.5829,-3.3806,-3.3003,-3.3819,-3.4621,-3.5843,-3.6642,-3.7891,-3.8703,-3.9094,-3.8297,-3.747,-3.6235,-3.5029,-3.4213,-3.3411,-3.3003,-3.3003,-3.3003,-3.5029,-3.5829,-3.6642,-3.8267,-3.9499,-3.9499,-3.9499,-3.9499,-3.9499,-3.9094,-3.8282,-3.6642,-3.6235,-3.5029,-3.3016,-3.3267,-3.3543,-3.3847,-3.4137,-3.4414,-3.4677,-3.4888,-3.5981,-3.807,-3.88,-3.9656,-4.1143,-4.212,-4.1804,-4.1662,-4.1946,-4.2504,-4.2868,-4.3795,-4.4327,-4.4878,-4.4753,-4.4735,-4.4735,-4.4735,-4.4332,-4.3526,-4.3123,-4.3123,-4.2719,-4.2736,-4.2332,-4.2332,-4.1928,-4.1911,-4.2719,-4.2719,-4.2315,-4.1524,-4.1507,-4.0698,-4.031,-4.031,-4.031,-3.9499,-3.9499,-3.9499,-3.9499,-3.9499,-3.9499,-3.9499,-3.9499,-3.9783,-4.0352,-4.0652,-4.0873,-4.2017,-4.2781,-4.3698,-4.4549,-4.5823,-4.6654,-4.7943,-4.8808,-5.0499,-5.2087,-5.3185,-5.4273,-5.4915,-5.5572,-5.5726,-3.9499,-3.9499,-3.9499,-3.9499,-3.9499,-3.9499,-3.9499,-3.9499,-3.9094,-3.7861,-3.5829,-3.3806,-3.3411,-3.4621,-3.5422,-3.6657,-3.747,-3.8688,-3.9499,-3.9094,-3.8703,-3.747,-3.6235,-3.5422,-3.4213,-3.3411,-3.3003,-3.3003,-3.3003,-3.5015,-3.5829,-3.6642,-3.8282,-3.9499,-3.9499,-3.9499,-3.9499,-3.9499,-3.9499,-3.8282,-3.6642,-3.6221,-3.5057,-3.3531,-3.3359,-3.3662,-3.3952,-3.4242,-3.4493,-3.473,-3.4941,-3.6076,-3.7661,-3.8307,-3.9206,-4.0722,-4.15,-4.163,-4.1567,-4.2846,-4.3316,-4.3983,-4.5484,-4.595,-4.6162,-4.5942,-4.5942,-4.5942,-4.5942,-4.554,-4.4735,-4.4332,-4.3929,-4.3526,-4.3123,-4.314,-4.3123,-4.3123,-4.3123,-4.3526,-4.3123,-4.2719,-4.2719,-4.2315,-4.1507,-4.1507,-4.1524,-4.0714,-3.9904,-3.9499,-3.9499,-3.9499,-3.9499,-3.9499,-3.9499,-3.9499,-3.9736,-4.0257,-4.1101,-4.184,-4.257,-4.3206,-4.4549,-4.6248,-4.7096,-4.752,-4.8367,-4.9231,-5.0902,-5.2567,-5.398,-5.4978,-5.5551,-5.5726,-5.6174,-3.9499,-3.9499,-3.9499,-3.9499,-3.9499,-3.9499,-3.9499,-3.9499,-3.9483,-3.8267,-3.6235,-3.4213,-3.3411,-3.4621,-3.5829,-3.6642,-3.7876,-3.9094,-3.9499,-3.9499,-3.9094,-3.7861,-3.6642,-3.5422,-3.4621,-3.3411,-3.3003,-3.3003,-3.3003,-3.5015,-3.5829,-3.7048,-3.8282,-3.9094,-3.9499,-3.9499,-3.9499,-3.9499,-3.9094,-3.8282,-3.6642,-3.6235,-3.5071,-3.3705,-3.3557,-3.3847,-3.4124,-3.4401,-3.4625,-3.4796,-3.5007,-3.6076,-3.6973,-3.8264,-3.9118,-4.0328,-4.1007,-4.1583,-4.1994,-4.2781,-4.4193,-4.5715,-4.6796,-4.7549,-4.8218,-4.8369,-4.7548,-4.7147,-4.7147,-4.6746,-4.554,-4.5138,-4.4735,-4.4735,-4.4332,-4.3929,-4.4332,-4.3929,-4.4332,-4.4332,-4.4735,-4.4735,-4.4332,-4.3929,-4.3526,-4.3123,-4.2315,-4.1119,-3.9904,-3.9499,-3.9499,-3.9499,-3.9499,-3.9499,-3.9531,-3.9704,-3.9941,-4.0415,-4.0762,-4.1921,-4.3026,-4.4006,-4.4957,-4.6672,-4.752,-4.8367,-4.9213,-5.0077,-5.1323,-5.3008,-5.4083,-5.5105,-5.5572,-5.6086,-5.6544,-3.9499,-3.9499,-3.9499,-3.9499,-3.9483,-3.9357,-3.931,-3.9294,-3.9168,-3.7945,-3.6062,-3.4172,-3.3819,-3.5029,-3.5829,-3.7048,-3.8282,-3.9094,-3.9499,-3.9499,-3.9094,-3.8267,-3.7048,-3.5829,-3.5015,-3.3411,-3.3003,-3.3003,-3.3411,-3.5015,-3.6235,-3.7048,-3.8688,-3.9094,-3.9499,-3.9499,-3.9499,-3.9499,-3.9094,-3.7876,-3.6235,-3.5843,-3.4759,-3.3412,-3.3702,-3.4005,-3.4295,-3.4572,-3.4757,-3.4941,-3.5205,-3.576,-3.6251,-3.7985,-3.9221,-3.9493,-4.0914,-4.1599,-4.1994,-4.2797,-4.4363,-4.6381,-4.811,-4.8869,-4.8887,-4.917,-4.877,-4.8369,-4.7968,-4.7548,-4.6344,-4.6344,-4.5942,-4.5942,-4.554,-4.554,-4.5138,-4.5138,-4.5138,-4.5138,-4.554,-4.5942,-4.554,-4.5138,-4.5138,-4.4735,-4.3123,-4.1507,-4.031,-3.9499,-3.9499,-3.9499,-3.9499,-3.9499,-3.9531,-3.9815,-4.0146,-4.0494,-4.0825,-4.2407,-4.3989,-4.4515,-4.5381,-4.6672,-4.7943,-4.879,-4.9635,-5.0921,-5.2186,-5.3848,-5.4982,-5.5584,-5.6071,-5.6477,-5.7322,-3.9467,-3.9467,-3.9467,-3.9452,-3.942,-3.912,-3.901,-3.8947,-3.8631,-3.7517,-3.5844,-3.4455,-3.4566,-3.5829,-3.6235,-3.7455,-3.9499,-3.9499,-3.9499,-3.9499,-3.9094,-3.8267,-3.6642,-3.5829,-3.5029,-3.3411,-3.3003,-3.3003,-3.3819,-3.5422,-3.6657,-3.7876,-3.8688,-3.9094,-3.9499,-3.9499,-3.9499,-3.9094,-3.8688,-3.747,-3.6235,-3.5043,-3.4391,-3.3865,-3.3728,-3.4018,-3.4335,-3.4585,-3.4822,-3.5113,-3.5389,-3.5534,-3.6319,-3.7675,-3.88,-3.9433,-4.0409,-4.1583,-4.242,-4.3272,-4.4515,-4.6442,-4.803,-4.9278,-5.0091,-4.9571,-4.917,-4.917,-4.877,-4.8369,-4.7548,-4.6746,-4.6344,-4.6344,-4.5942,-4.5942,-4.554,-4.554,-4.554,-4.5942,-4.5942,-4.5942,-4.554,-4.554,-4.554,-4.5138,-4.3526,-4.1911,-4.0714,-3.9904,-3.9499,-3.9499,-3.9499,-3.9515,-3.9546,-3.9831,-4.0209,-4.0557,-4.1388,-4.2993,-4.4498,-4.5364,-4.6248,-4.752,-4.8367,-4.9213,-5.0077,-5.1745,-5.3008,-5.4688,-5.5818,-5.6373,-5.7,-5.7148,-5.7859,-3.9136,-3.912,-3.9136,-3.9136,-3.912,-3.9041,-3.8852,-3.8615,-3.8489,-3.7456,-3.6144,-3.5456,-3.5223,-3.6192,-3.6235,-3.7455,-3.9499,-3.9499,-3.9499,-3.9499,-3.9094,-3.8282,-3.6642,-3.5829,-3.5029,-3.3003,-3.3003,-3.3411,-3.4213,-3.5422,-3.6642,-3.7876,-3.9094,-3.9499,-3.9499,-3.9499,-3.9499,-3.9499,-3.8703,-3.747,-3.6235,-3.5029,-3.4103,-3.4025,-3.386,-3.411,-3.4532,-3.4704,-3.4875,-3.5165,-3.5469,-3.5521,-3.5854,-3.7675,-3.8858,-3.8825,-4.0378,-4.1994,-4.2846,-4.4123,-4.5823,-4.7707,-4.9297,-5.0114,-5.0973,-5.1589,-5.119,-5.0391,-4.9971,-4.9571,-4.877,-4.7949,-4.7147,-4.6746,-4.6344,-4.5942,-4.5942,-4.5942,-4.5942,-4.5942,-4.5942,-4.5942,-4.5942,-4.5942,-4.5942,-4.554,-4.4332,-4.2719,-4.1507,-4.031,-3.9904,-3.9499,-3.9515,-3.9531,-3.9689,-3.9973,-4.0288,-4.1069,-4.1969,-4.3582,-4.4498,-4.5381,-4.6672,-4.7943,-4.9231,-5.0077,-5.1323,-5.2587,-5.3848,-5.5526,-5.6718,-5.7224,-5.7676,-5.7981,-5.8627,-3.8536,-3.8552,-3.871,-3.8773,-3.8757,-3.8599,-3.841,-3.822,-3.8094,-3.7104,-3.5909,-3.5569,-3.5025,-3.4973,-3.5829,-3.7455,-3.9094,-3.9499,-3.9499,-3.9499,-3.9094,-3.8267,-3.6642,-3.5829,-3.5029,-3.3411,-3.3003,-3.3819,-3.5029,-3.5829,-3.7048,-3.8282,-3.9094,-3.9499,-3.9499,-3.9499,-3.9499,-3.9094,-3.8688,-3.7876,-3.625,-3.4663,-3.3678,-3.382,-3.3847,-3.419,-3.4559,-3.473,-3.4915,-3.5323,-3.5482,-3.5521,-3.5894,-3.7633,-3.8829,-3.8249,-4.0286,-4.242,-4.3698,-4.4532,-4.6125,-4.8438,-4.9598,-5.0989,-5.164,-5.2133,-5.1988,-5.1589,-5.1169,-5.037,-4.9971,-4.877,-4.8369,-4.7567,-4.7166,-4.6746,-4.5942,-4.5942,-4.5942,-4.5942,-4.5942,-4.5942,-4.5942,-4.5942,-4.5942,-4.554,-4.4332,-4.3123,-4.1911,-4.0698,-3.9904,-3.9499,-3.9515,-3.9562,-3.9815,-4.0131,-4.043,-4.1228,-4.2553,-4.3615,-4.4957,-4.6248,-4.752,-4.879,-4.9654,-5.0902,-5.2166,-5.3428,-5.4688,-5.5945,-5.72,-5.7705,-5.8589,-5.8909,-5.9168,-3.7889,-3.7968,-3.8268,-3.841,-3.8362,-3.8094,-3.792,-3.7841,-3.7605,-3.666,-3.5323,-3.494,-3.4469,-3.4118,-3.5436,-3.7455,-3.8688,-3.9499,-3.9499,-3.9499,-3.9499,-3.8267,-3.6235,-3.6221,-3.5029,-3.3411,-3.3003,-3.4213,-3.5422,-3.6235,-3.7048,-3.9094,-3.9499,-3.9499,-3.9499,-3.9499,-3.9499,-3.9499,-3.9094,-3.8282,-3.6235,-3.4213,-3.3731,-3.3702,-3.3899,-3.4137,-3.4625,-3.4743,-3.4954,-3.5429,-3.5521,-3.5548,-3.6001,-3.7745,-3.8278,-3.8781,-4.0286,-4.2846,-4.4549,-4.5381,-4.6971,-4.9107,-5.0329,-5.07,-5.1824,-5.2237,-5.2387,-5.2387,-5.1589,-5.1169,-5.077,-4.9971,-4.917,-4.8369,-4.7968,-4.7147,-4.6344,-4.6746,-4.6344,-4.5942,-4.5942,-4.5942,-4.5905,-4.5924,-4.5924,-4.5138,-4.4332,-4.3526,-4.2315,-4.0698,-3.9499,-3.9499,-3.9515,-3.9657,-3.9894,-4.0241,-4.0588,-4.1372,-4.2553,-4.409,-4.5381,-4.6672,-4.7943,-4.9213,-5.0077,-5.0921,-5.3008,-5.4688,-5.5526,-5.6782,-5.8036,-5.8602,-5.948,-5.9793,-5.9664,-3.7684,-3.7936,-3.8015,-3.8031,-3.8031,-3.7952,-3.7778,-3.7557,-3.6678,-3.5867,-3.5236,-3.4133,-3.3653,-3.3698,-3.5436,-3.7455,-3.9499,-3.9499,-3.9499,-3.9499,-3.9499,-3.8267,-3.6642,-3.5829,-3.5029,-3.3411,-3.3003,-3.4213,-3.5829,-3.6221,-3.7455,-3.8688,-3.9499,-3.9499,-3.9499,-3.9499,-3.9499,-3.9094,-3.8688,-3.747,-3.5829,-3.4241,-3.328,-3.3794,-3.386,-3.4137,-3.4651,-3.4717,-3.4941,-3.5165,-3.5284,-3.5271,-3.5694,-3.7423,-3.8539,-3.8664,-4.114,-4.3272,-4.4974,-4.623,-4.8165,-5.0225,-5.1096,-5.1927,-5.229,-5.2237,-5.2387,-5.2387,-5.1988,-5.1988,-5.1589,-5.119,-5.037,-4.9971,-4.917,-4.8369,-4.7548,-4.7147,-4.6746,-4.6344,-4.5942,-4.5905,-4.5868,-4.5868,-4.5868,-4.5083,-4.3894,-4.3088,-4.2719,-4.0698,-3.9499,-3.9499,-3.9562,-3.972,-4.0036,-4.0399,-4.1085,-4.1904,-4.3091,-4.4532,-4.5806,-4.7096,-4.8367,-5.0077,-5.0921,-5.2186,-5.3848,-5.5526,-5.6385,-5.764,-5.887,-5.9891,-5.9868,-6.0201,-6.0091,-3.7526,-3.7684,-3.7699,-3.7684,-3.7699,-3.7684,-3.7589,-3.7447,-3.6278,-3.5463,-3.5134,-3.4133,-3.3653,-3.409,-3.5422,-3.7455,-3.9094,-3.9499,-3.9499,-3.9499,-3.9499,-3.8282,-3.6235,-3.6221,-3.5015,-3.3411,-3.3003,-3.4213,-3.5829,-3.6235,-3.7455,-3.9094,-3.9499,-3.9499,-3.9499,-3.9499,-3.9499,-3.9094,-3.8282,-3.747,-3.6235,-3.4621,-3.3718,-3.3702,-3.3899,-3.4163,-3.4598,-3.4717,-3.4862,-3.5086,-3.5165,-3.5165,-3.5995,-3.7213,-3.8322,-3.862,-4.114,-4.3698,-4.4957,-4.7078,-4.8914,-5.0485,-5.1429,-5.2233,-5.2486,-5.2554,-5.2387,-5.2387,-5.2387,-5.2387,-5.2387,-5.1988,-5.119,-5.077,-5.037,-4.9571,-4.877,-4.7968,-4.7567,-4.6764,-4.6689,-4.6233,-4.6196,-4.5777,-4.5795,-4.5029,-4.3841,-4.3071,-4.2719,-4.1103,-3.9499,-3.9499,-3.9515,-3.9799,-4.0241,-4.0478,-4.1101,-4.2423,-4.4056,-4.4957,-4.6248,-4.752,-4.8808,-5.0499,-5.1765,-5.3028,-5.4688,-5.6364,-5.7222,-5.8058,-5.9242,-6.0328,-6.069,-6.0608,-6.0091,-3.7447,-3.7447,-3.7447,-3.7447,-3.7447,-3.7447,-3.7447,-3.7431,-3.6262,-3.5478,-3.484,-3.4119,-3.3653,-3.4497,-3.5829,-3.7455,-3.8688,-3.9499,-3.9499,-3.9499,-3.9094,-3.8282,-3.6235,-3.5829,-3.4621,-3.3411,-3.3411,-3.4213,-3.5829,-3.6235,-3.7861,-3.9094,-3.9499,-3.9499,-3.9499,-3.9499,-3.9499,-3.9094,-3.7876,-3.7048,-3.5829,-3.4649,-3.4076,-3.3675,-3.382,-3.4124,-3.4519,-3.4691,-3.4836,-3.506,-3.5086,-3.5086,-3.5886,-3.7017,-3.8206,-3.9004,-4.1994,-4.4123,-4.5364,-4.7448,-4.9126,-5.0684,-5.1598,-5.2393,-5.2258,-5.2387,-5.2387,-5.2387,-5.2387,-5.2387,-5.2387,-5.1988,-5.1988,-5.119,-5.079,-5.037,-4.9571,-4.877,-4.8369,-4.835,-4.7434,-4.694,-4.6446,-4.5992,-4.5593,-4.5212,-4.4173,-4.3509,-4.2719,-4.1524,-3.9904,-3.9499,-3.9499,-3.991,-4.0304,-4.0399,-4.1101,-4.2828,-4.443,-4.533,-4.7096,-4.7943,-4.9213,-5.0921,-5.2607,-5.3848,-5.5107,-5.6364,-5.764,-5.8892,-5.9612,-6.0351,-6.062,-6.049,-6.0021,-3.7447,-3.7447,-3.7447,-3.7447,-3.7447,-3.7447,-3.7447,-3.7047,-3.5508,-3.5074,-3.4811,-3.3297,-3.3225,-3.451,-3.5814,-3.6657,-3.8282,-3.9094,-3.9499,-3.9499,-3.8688,-3.747,-3.6235,-3.5422,-3.4213,-3.3411,-3.3819,-3.5029,-3.6235,-3.7063,-3.8282,-3.9094,-3.9499,-3.9499,-3.9499,-3.9499,-3.9499,-3.9094,-3.7455,-3.6235,-3.5829,-3.4227,-3.3558,-3.3504,-3.3702,-3.4058,-3.4361,-3.4611,-3.4757,-3.4783,-3.4783,-3.5227,-3.6073,-3.732,-3.8591,-3.9859,-4.283,-4.4974,-4.6619,-4.8895,-5.1037,-5.178,-5.2619,-5.2528,-5.2554,-5.2387,-5.2387,-5.2387,-5.2387,-5.2387,-5.2387,-5.2387,-5.2387,-5.1988,-5.1988,-5.1568,-5.077,-5.037,-4.9951,-4.9911,-4.8895,-4.7432,-4.6563,-4.6222,-4.5788,-4.503,-4.4538,-4.3929,-4.2736,-4.1524,-4.0714,-3.9904,-3.9499,-3.9799,-3.9925,-4.0052,-4.1421,-4.3134,-4.4363,-4.6142,-4.752,-4.8808,-5.0077,-5.1765,-5.3008,-5.4268,-5.5945,-5.72,-5.8475,-5.9703,-6.0397,-6.0464,-6.0434,-6.0373,-5.9716,-3.6647,-3.6662,-3.7431,-3.7447,-3.7447,-3.7447,-3.7447,-3.7062,-3.5123,-3.4613,-3.4611,-3.286,-3.3157,-3.5181,-3.5757,-3.7048,-3.8688,-3.9094,-3.9499,-3.9094,-3.8282,-3.7063,-3.6235,-3.4621,-3.3819,-3.3411,-3.4213,-3.5015,-3.6235,-3.747,-3.8297,-3.9499,-3.9499,-3.9499,-3.9499,-3.9499,-3.9499,-3.9094,-3.7455,-3.6221,-3.5829,-3.4213,-3.3095,-3.324,-3.3636,-3.4005,-3.4295,-3.4572,-3.4691,-3.4717,-3.473,-3.516,-3.6461,-3.7305,-3.9019,-4.0713,-4.3256,-4.5399,-4.743,-4.9658,-5.1314,-5.215,-5.2516,-5.2466,-5.2512,-5.2387,-5.2387,-5.2387,-5.2387,-5.2387,-5.2387,-5.2387,-5.2387,-5.2387,-5.2387,-5.1988,-5.1589,-5.1589,-5.1506,-5.0425,-4.9411,-4.7932,-4.7048,-4.6412,-4.6035,-4.5207,-4.4704,-4.4332,-4.3123,-4.2332,-4.1119,-4.031,-3.9904,-3.9531,-3.9625,-4.0319,-4.1691,-4.2951,-4.4649,-4.6178,-4.8367,-4.9654,-5.0921,-5.2186,-5.3448,-5.5107,-5.6364,-5.764,-5.8892,-6.0051,-6.0627,-6.0573,-6.0561,-6.0115,-5.9528,-3.5878,-3.5878,-3.7047,-3.7447,-3.7447,-3.7447,-3.7431,-3.7047,-3.5123,-3.454,-3.4048,-3.2711,-3.342,-3.5801,-3.6018,-3.7395,-3.9078,-3.9499,-3.9499,-3.9094,-3.8282,-3.7063,-3.5422,-3.3819,-3.3003,-3.3411,-3.4213,-3.5422,-3.6235,-3.747,-3.8703,-3.9499,-3.9499,-3.9499,-3.9499,-3.9499,-3.9499,-3.8688,-3.7048,-3.6235,-3.5422,-3.3819,-3.3016,-3.3069,-3.3425,-3.382,-3.4176,-3.4493,-3.4664,-3.4704,-3.4717,-3.5576,-3.6448,-3.7734,-3.9432,-4.1567,-4.4123,-4.6195,-4.8183,-4.9905,-5.1195,-5.2376,-5.2715,-5.2763,-5.2407,-5.2387,-5.2387,-5.2785,-5.2785,-5.2785,-5.2785,-5.2387,-5.2387,-5.2387,-5.2387,-5.2387,-5.2366,-5.2282,-5.1655,-5.0556,-4.9918,-4.9183,-4.7152,-4.6914,-4.6261,-4.5436,-4.4975,-4.4646,-4.3929,-4.314,-4.1928,-4.1119,-4.031,-3.992,-3.9984,-3.972,-4.1463,-4.2752,-4.4581,-4.623,-4.8367,-5.0077,-5.1343,-5.2607,-5.3869,-5.5548,-5.72,-5.8475,-5.9309,-5.9937,-6.097,-6.0504,-6.042,-5.9904,-5.9364,-3.5878,-3.5878,-3.7047,-3.7447,-3.7447,-3.7447,-3.7047,-3.5878,-3.5108,-3.4124,-3.3196,-3.2116,-3.3229,-3.5772,-3.5815,-3.72,-3.9483,-3.9483,-3.9499,-3.9094,-3.7455,-3.5829,-3.5029,-3.3411,-3.3003,-3.3411,-3.5029,-3.5829,-3.6642,-3.8282,-3.9094,-3.9499,-3.9499,-3.9499,-3.9499,-3.9499,-3.9094,-3.8282,-3.6642,-3.5829,-3.5029,-3.3819,-3.3003,-3.3016,-3.3174,-3.3425,-3.3847,-3.4216,-3.4053,-3.344,-3.43,-3.5576,-3.7734,-3.7734,-3.9859,-4.2846,-4.4498,-4.6055,-4.8671,-4.9955,-5.1169,-5.2413,-5.2763,-5.2407,-5.2407,-5.2387,-5.2785,-5.356,-5.3957,-5.3957,-5.356,-5.2764,-5.2785,-5.2387,-5.2387,-5.2387,-5.2303,-5.1989,-5.1717,-5.1654,-4.9758,-4.9207,-4.8473,-4.7913,-4.6503,-4.628,-4.5538,-4.5083,-4.4332,-4.3929,-4.2719,-4.1928,-4.1119,-4.0714,-4.0342,-3.9546,-4.1251,-4.2603,-4.4461,-4.6424,-4.8549,-5.0422,-5.1725,-5.3428,-5.4688,-5.6364,-5.764,-5.8892,-6.0142,-6.0789,-6.076,-6.0748,-6.0326,-5.9786,-5.927,-3.5878,-3.5878,-3.7047,-3.7447,-3.7447,-3.7447,-3.7047,-3.5878,-3.4723,-3.4038,-3.3002,-3.2778,-3.3403,-3.525,-3.6397,-3.7467,-3.9231,-3.9404,-3.9499,-3.9094,-3.7861,-3.6235,-3.4621,-3.3411,-3.3003,-3.3411,-3.5029,-3.5829,-3.6642,-3.8282,-3.9499,-3.9499,-3.9499,-3.9499,-3.9499,-3.9499,-3.9094,-3.7891,-3.6657,-3.5829,-3.4621,-3.3411,-3.3003,-3.3003,-3.3016,-3.2764,-3.2777,-3.3215,-3.3161,-3.3377,-3.43,-3.6019,-3.7734,-3.8162,-3.9859,-4.4107,-4.4329,-4.6264,-4.9335,-5.0037,-5.0829,-5.2611,-5.2638,-5.2428,-5.2387,-5.2387,-5.2785,-5.3957,-5.3957,-5.4355,-5.4773,-5.4376,-5.3979,-5.3581,-5.3979,-5.3849,-5.2801,-5.2567,-5.2248,-5.0963,-5.0181,-4.9631,-4.9025,-4.8105,-4.7267,-4.6902,-4.654,-4.5868,-4.5138,-4.4735,-4.3929,-4.3123,-4.2719,-4.1928,-4.1136,-4.1136,-4.2297,-4.2437,-4.4205,-4.5998,-4.8271,-5.0307,-5.1647,-5.3428,-5.5526,-5.72,-5.8036,-5.9309,-6.0512,-6.1063,-6.0504,-6.049,-6.0115,-5.9646,-5.9129,-3.5878,-3.6262,-3.7047,-3.7447,-3.7447,-3.7447,-3.6662,-3.5493,-3.4737,-3.358,-3.2836,-3.3044,-3.3559,-3.4845,-3.6496,-3.7578,-3.8931,-3.9199,-3.9373,-3.8953,-3.816,-3.6539,-3.4917,-3.3765,-3.3003,-3.3819,-3.5436,-3.6235,-3.6657,-3.8688,-3.9499,-3.9499,-3.9499,-3.9499,-3.9499,-3.9499,-3.8688,-3.747,-3.6642,-3.5422,-3.4213,-3.3003,-3.2594,-3.2594,-3.2173,-3.1879,-3.1268,-3.1776,-3.2171,-3.2357,-3.4196,-3.6019,-3.7734,-3.9019,-4.0713,-4.4056,-4.5054,-4.6906,-4.9993,-5.0641,-5.0995,-5.2466,-5.2554,-5.2387,-5.2387,-5.2387,-5.3183,-5.3957,-5.4355,-5.4752,-5.5963,-5.5963,-5.5567,-5.4773,-5.517,-5.5367,-5.4139,-5.3051,-5.2254,-5.1186,-5.0571,-4.989,-4.9349,-4.8901,-4.809,-4.7828,-4.6977,-4.6344,-4.5942,-4.5138,-4.4735,-4.4332,-4.3929,-4.2719,-4.2332,-4.2736,-4.2975,-4.3144,-4.464,-4.6455,-4.8484,-5.0096,-5.1948,-5.3828,-5.5924,-5.7618,-5.8475,-5.968,-6.0374,-6.1499,-6.0913,-6.0279,-5.9904,-5.9481,-5.8942,-3.5878,-3.6262,-3.7047,-3.7447,-3.7447,-3.7447,-3.6278,-3.4737,-3.4352,-3.3181,-3.2022,-3.2463,-3.375,-3.4758,-3.6077,-3.7466,-3.852,-3.8868,-3.901,-3.8578,-3.702,-3.5815,-3.5442,-3.3657,-3.3371,-3.4213,-3.5422,-3.6642,-3.7485,-3.8688,-3.9499,-3.9499,-3.9499,-3.9499,-3.9499,-3.9499,-3.8282,-3.6642,-3.6235,-3.5029,-3.3411,-3.2173,-3.1356,-3.1356,-3.0538,-3.0141,-2.9838,-3.0254,-3.0539,-3.1044,-3.4027,-3.6406,-3.8148,-4.0286,-4.1978,-4.4481,-4.63,-4.8428,-5.0095,-5.081,-5.164,-5.2133,-5.2428,-5.2387,-5.2387,-5.2387,-5.3183,-5.517,-5.5567,-5.5963,-5.6733,-5.7128,-5.6755,-5.5963,-5.6292,-5.6461,-5.4812,-5.3242,-5.2421,-5.1779,-5.0718,-4.9938,-5.0347,-4.9738,-4.9032,-4.8797,-4.7892,-4.7147,-4.6344,-4.5942,-4.5138,-4.4735,-4.4332,-4.3526,-4.3123,-4.3543,-4.37,-4.4153,-4.5576,-4.7062,-4.8674,-5.0206,-5.2108,-5.448,-5.6321,-5.7618,-5.887,-6.0443,-6.1156,-6.1241,-6.0725,-6.0162,-5.9646,-5.92,-5.8777,-3.6262,-3.7047,-3.7431,-3.7447,-3.7431,-3.6662,-3.5878,-3.4352,-3.3566,-3.2795,-3.2036,-3.3181,-3.4024,-3.4928,-3.6675,-3.7609,-3.8157,-3.8504,-3.8552,-3.7984,-3.6556,-3.5482,-3.5127,-3.3387,-3.3211,-3.458,-3.5829,-3.6642,-3.7891,-3.9094,-3.9499,-3.9499,-3.9499,-3.9499,-3.9499,-3.9499,-3.8267,-3.6642,-3.6221,-3.5015,-3.3411,-3.1777,-3.1356,-3.1356,-3.0117,-2.931,-2.8513,-2.8406,-2.9083,-3.0539,-3.211,-3.4532,-3.772,-4.0271,-4.2307,-4.4615,-4.6363,-4.8035,-4.9667,-5.047,-5.1333,-5.2029,-5.2387,-5.2387,-5.2387,-5.3183,-5.3979,-5.5567,-5.6359,-5.7128,-5.7941,-5.7941,-5.7941,-5.7546,-5.7663,-5.7339,-5.6696,-5.5077,-5.3303,-5.1813,-5.0862,-5.0697,-5.044,-4.9981,-4.9694,-4.9411,-4.8595,-4.7166,-4.7147,-4.6344,-4.5942,-4.554,-4.5138,-4.4735,-4.3929,-4.4,-4.4509,-4.5498,-4.6511,-4.7624,-4.9195,-5.0723,-5.1908,-5.4273,-5.661,-5.7903,-5.9016,-6.0627,-6.1241,-6.0819,-6.0373,-5.9904,-5.9505,-5.9012,-5.8777,-3.6647,-3.7431,-3.7447,-3.7447,-3.7431,-3.6262,-3.5493,-3.4337,-3.3181,-3.2408,-3.1649,-3.358,-3.4352,-3.4796,-3.6879,-3.7778,-3.7794,-3.7999,-3.8015,-3.7484,-3.6182,-3.5543,-3.5602,-3.3874,-3.3735,-3.4721,-3.6033,-3.735,-3.8267,-3.9094,-3.9499,-3.9499,-3.9499,-3.9499,-3.9499,-3.9499,-3.8282,-3.6235,-3.6221,-3.5029,-3.3003,-3.1777,-3.1356,-3.1356,-2.9719,-2.89,-2.8092,-2.7011,-2.8047,-3.0373,-3.0634,-3.3047,-3.8046,-4.1047,-4.2993,-4.483,-4.6869,-4.8461,-4.978,-5.0632,-5.1589,-5.1988,-5.2387,-5.2387,-5.2785,-5.356,-5.4752,-5.5963,-5.6733,-5.7523,-5.8336,-5.8731,-5.8731,-5.8731,-5.8261,-5.7886,-5.7217,-5.6136,-5.4306,-5.2349,-5.1509,-5.0948,-5.0613,-5.0118,-4.9799,-4.9999,-4.8758,-4.7834,-4.751,-4.6746,-4.5942,-4.5942,-4.5942,-4.554,-4.5138,-4.5174,-4.5649,-4.6566,-4.7063,-4.8061,-4.9628,-5.1189,-5.2474,-5.4044,-5.5936,-5.7661,-5.9136,-6.0164,-6.0294,-6.0326,-5.9998,-5.9669,-5.9317,-5.9059,-5.8824,-3.6647,-3.7431,-3.7447,-3.7447,-3.7431,-3.6262,-3.5493,-3.4352,-3.3181,-3.2022,-3.1649,-3.358,-3.4352,-3.4737,-3.6709,-3.7463,-3.7494,-3.7541,-3.7526,-3.751,-3.663,-3.6392,-3.6017,-3.5149,-3.4926,-3.4955,-3.6426,-3.793,-3.9047,-3.9483,-3.9499,-3.9499,-3.9499,-3.9499,-3.9499,-3.9467,-3.8251,-3.6627,-3.6192,-3.5001,-3.3003,-3.1764,-3.1356,-3.0947,-2.931,-2.8092,-2.8092,-2.6872,-2.7815,-2.9708,-3.0385,-3.3279,-3.8782,-4.2488,-4.483,-4.591,-4.8221,-4.9452,-4.9721,-5.1415,-5.1988,-5.2387,-5.2387,-5.2785,-5.356,-5.4355,-5.5148,-5.6733,-5.7128,-5.7523,-5.8336,-5.8731,-5.8707,-5.866,-5.8167,-5.7628,-5.7205,-5.6689,-5.5819,-5.4251,-5.2261,-5.1326,-5.1671,-5.0718,-5.0305,-5.0188,-4.9332,-4.8341,-4.7892,-4.6746,-4.5942,-4.5942,-4.5942,-4.5942,-4.5942,-4.5942,-4.6764,-4.7204,-4.7662,-4.8543,-5.0125,-5.1683,-5.2539,-5.3998,-5.5855,-5.7242,-5.8705,-5.9654,-5.9758,-5.9951,-5.9646,-5.9317,-5.9106,-5.8918,-5.8754,-3.6662,-3.7431,-3.7447,-3.7447,-3.7431,-3.5508,-3.4723,-3.4352,-3.2408,-3.1649,-3.1649,-3.358,-3.4352,-3.4737,-3.6662,-3.7447,-3.7447,-3.7447,-3.7447,-3.7447,-3.6385,-3.6044,-3.609,-3.5221,-3.4975,-3.5033,-3.6496,-3.7624,-3.9152,-3.9389,-3.9499,-3.9499,-3.9499,-3.9499,-3.9452,-3.9278,-3.8068,-3.6569,-3.6033,-3.4833,-3.299,-3.1777,-3.1356,-3.0947,-2.9719,-2.931,-2.931,-2.7261,-2.7793,-2.9661,-3.0183,-3.2475,-3.7452,-4.2016,-4.4347,-4.5325,-4.7901,-4.9681,-4.9808,-5.1271,-5.2387,-5.2387,-5.3183,-5.356,-5.3957,-5.5148,-5.6337,-5.7128,-5.7523,-5.8336,-5.8731,-5.8731,-5.8566,-5.8191,-5.7722,-5.7205,-5.6713,-5.6196,-5.5469,-5.4909,-5.3365,-5.1929,-5.1348,-5.0846,-5.0545,-5.0721,-4.9152,-4.8699,-4.8253,-4.7147,-4.5942,-4.5942,-4.5942,-4.5942,-4.5942,-4.5942,-4.6362,-4.7567,-4.8427,-4.9229,-5.0652,-5.1803,-5.3328,-5.4288,-5.568,-5.7032,-5.8207,-5.9145,-5.9338,-5.9575,-5.9317,-5.9082,-5.8918,-5.8731,-5.8731,-3.5893,-3.6278,-3.7047,-3.7431,-3.6662,-3.5108,-3.4352,-3.3566,-3.2036,-3.1649,-3.2022,-3.358,-3.4737,-3.5108,-3.6662,-3.7447,-3.7447,-3.7447,-3.7447,-3.7431,-3.7047,-3.6647,-3.6293,-3.6105,-3.5837,-3.5882,-3.6936,-3.8062,-3.9203,-3.941,-3.9522,-3.9522,-3.912,-3.912,-3.9089,-3.8915,-3.7701,-3.6276,-3.583,-3.4665,-3.2831,-3.2134,-3.1777,-3.1764,-3.0538,-2.9708,-2.9708,-2.8081,-2.7748,-2.9957,-3.0892,-3.3089,-3.7018,-4.0877,-4.4106,-4.5379,-4.8042,-4.9446,-4.961,-5.119,-5.2387,-5.2785,-5.356,-5.4355,-5.5148,-5.6337,-5.7128,-5.7918,-5.8336,-5.8731,-5.8731,-5.8731,-5.8519,-5.798,-5.7463,-5.6971,-5.6454,-5.5962,-5.5633,-5.526,-5.4488,-5.299,-5.195,-5.0612,-5.021,-5.0285,-4.9183,-4.8424,-4.8419,-4.7072,-4.5942,-4.5942,-4.5942,-4.5942,-4.5942,-4.5942,-4.6746,-4.7968,-4.917,-4.9991,-5.0993,-5.2569,-5.3565,-5.4566,-5.6021,-5.735,-5.7798,-5.8751,-5.927,-5.9106,-5.9036,-5.8848,-5.8731,-5.8731,-5.8731,-3.4352,-3.4737,-3.6662,-3.7047,-3.5878,-3.4737,-3.3952,-3.2781,-3.1649,-3.2022,-3.2795,-3.3966,-3.5123,-3.6262,-3.7047,-3.7447,-3.7447,-3.7447,-3.7447,-3.7447,-3.7431,-3.7431,-3.7447,-3.7447,-3.7447,-3.7125,-3.7794,-3.8485,-4.0002,-4.0051,-4.0035,-4.0067,-3.9311,-3.8504,-3.852,-3.8473,-3.7272,-3.5778,-3.5598,-3.4567,-3.2594,-3.2858,-3.3003,-3.2594,-3.0947,-2.9708,-2.9708,-2.8491,-2.8502,-2.9719,-3.2006,-3.4211,-3.6728,-4.0288,-4.3607,-4.6141,-4.8198,-4.917,-4.9571,-5.119,-5.2785,-5.356,-5.3957,-5.5148,-5.6733,-5.7128,-5.7523,-5.8731,-5.8731,-5.8731,-5.8731,-5.8731,-5.8496,-5.7909,-5.7417,-5.6924,-5.6408,-5.5891,-5.568,-5.5633,-5.526,-5.4488,-5.2967,-5.0734,-4.9875,-4.989,-4.874,-4.8031,-4.8088,-4.6883,-4.5868,-4.5905,-4.5942,-4.5942,-4.5942,-4.6746,-4.7548,-4.877,-4.9571,-5.119,-5.2299,-5.2973,-5.3927,-5.4906,-5.6272,-5.7014,-5.7859,-5.8358,-5.8522,-5.8801,-5.8754,-5.8754,-5.8731,-5.8731,-5.8731,-3.4352,-3.4737,-3.6662,-3.7047,-3.5878,-3.4737,-3.3952,-3.2795,-3.1636,-3.2036,-3.2795,-3.3952,-3.5508,-3.7047,-3.7431,-3.7447,-3.7447,-3.7447,-3.7447,-3.7447,-3.7447,-3.7447,-3.7447,-3.7447,-3.7447,-3.7447,-3.8296,-3.8908,-3.964,-4.0671,-4.0822,-4.0035,-3.964,-3.9246,-3.8441,-3.8189,-3.7012,-3.5675,-3.5366,-3.4343,-3.2971,-3.2858,-3.3003,-3.3003,-3.0947,-3.0117,-3.0947,-2.8912,-2.8912,-3.0947,-3.2237,-3.3914,-3.638,-3.9297,-4.2179,-4.37,-4.7222,-4.9571,-5.037,-5.1589,-5.2785,-5.3957,-5.4752,-5.5545,-5.7128,-5.7918,-5.8336,-5.8707,-5.8731,-5.8731,-5.8731,-5.8731,-5.8332,-5.7487,-5.7276,-5.6783,-5.5985,-5.5751,-5.5633,-5.5633,-5.4886,-5.4114,-5.2614,-5.1111,-4.9371,-4.9042,-4.8113,-4.7269,-4.7182,-4.626,-4.5648,-4.5887,-4.5942,-4.5942,-4.5942,-4.6746,-4.7968,-4.917,-4.9971,-5.1271,-5.2486,-5.3799,-5.4712,-5.5583,-5.6791,-5.7882,-5.8312,-5.8546,-5.8754,-5.8731,-5.8731,-5.8731,-5.8731,-5.8731,-5.8731,-3.4723,-3.5108,-3.6662,-3.6662,-3.5493,-3.4723,-3.3566,-3.2022,-3.1636,-3.2022,-3.3566,-3.4723,-3.5893,-3.7447,-3.7815,-3.8199,-3.8199,-3.8583,-3.8566,-3.8199,-3.8199,-3.7815,-3.7431,-3.7447,-3.7447,-3.7447,-3.8583,-3.9081,-4.0051,-4.1028,-4.1519,-4.0759,-3.998,-3.9201,-3.8811,-3.823,-3.666,-3.4917,-3.5163,-3.4189,-3.2784,-3.2673,-3.2884,-3.299,-3.1356,-3.0538,-3.0947,-3.0129,-3.0129,-3.1752,-3.3384,-3.5365,-3.726,-4.0084,-4.2028,-4.3074,-4.6241,-4.864,-5.0222,-5.1197,-5.2886,-5.4467,-5.5038,-5.6359,-5.7546,-5.8336,-5.8637,-5.8496,-5.8613,-5.8637,-5.8425,-5.8402,-5.798,-5.7088,-5.6853,-5.6525,-5.5727,-5.5633,-5.5633,-5.5633,-5.4511,-5.374,-5.2614,-5.1111,-4.9728,-4.8436,-4.8113,-4.7269,-4.6598,-4.6203,-4.5666,-4.5887,-4.5942,-4.5942,-4.6746,-4.7567,-4.877,-4.9571,-5.077,-5.1733,-5.3333,-5.4373,-5.5671,-5.6701,-5.7708,-5.842,-5.8476,-5.8754,-5.8731,-5.8731,-5.8731,-5.8731,-5.8731,-5.8731,-5.8731,-3.5108,-3.5878,-3.7047,-3.6278,-3.4737,-3.4352,-3.3195,-3.1262,-3.1262,-3.2422,-3.4352,-3.5493,-3.6647,-3.7815,-3.8583,-3.8966,-3.895,-4.0099,-3.9716,-3.895,-3.895,-3.8583,-3.7431,-3.7447,-3.7431,-3.7815,-3.8566,-3.9716,-4.0516,-4.1663,-4.201,-4.201,-4.0099,-3.8983,-3.8966,-3.7831,-3.6662,-3.4366,-3.4946,-3.4063,-3.2093,-3.2396,-3.2673,-3.2924,-3.1714,-3.1306,-3.1243,-3.1281,-3.1676,-3.3304,-3.4917,-3.6811,-3.8562,-4.0926,-4.2364,-4.3215,-4.5139,-4.7093,-4.9082,-5.0991,-5.2397,-5.4377,-5.5145,-5.6157,-5.815,-5.8543,-5.8355,-5.805,-5.8285,-5.87,-5.7909,-5.8251,-5.7849,-5.6975,-5.6454,-5.6196,-5.5751,-5.5633,-5.5633,-5.5633,-5.4488,-5.374,-5.2614,-5.1574,-5.0086,-4.8674,-4.8113,-4.7483,-4.6522,-4.5806,-4.5795,-4.5905,-4.5942,-4.6344,-4.7166,-4.8369,-4.9571,-5.037,-5.1589,-5.2596,-5.4159,-5.4949,-5.5999,-5.717,-5.8178,-5.8489,-5.8662,-5.8731,-5.8731,-5.8731,-5.8731,-5.8731,-5.8731,-5.8731,-5.8731,-3.5108,-3.5878,-3.7047,-3.6662,-3.5493,-3.3952,-3.2408,-3.1262,-3.2022,-3.3181,-3.4337,-3.5493,-3.7031,-3.8583,-3.895,-3.9333,-4.0099,-4.0482,-3.9716,-3.895,-3.895,-3.8566,-3.7431,-3.7447,-3.7815,-3.8566,-3.9716,-4.0482,-4.1628,-4.2755,-4.3136,-4.3136,-4.1229,-3.9716,-3.895,-3.7815,-3.6662,-3.4767,-3.4743,-3.3769,-3.1816,-3.2304,-3.2475,-3.2344,-3.132,-3.1333,-3.193,-3.113,-3.153,-3.3516,-3.4714,-3.6263,-3.8172,-4.0545,-4.2482,-4.4356,-4.6293,-4.7873,-4.9431,-5.0311,-5.1908,-5.3848,-5.4346,-5.5189,-5.7124,-5.751,-5.7463,-5.737,-5.8235,-5.8668,-5.8548,-5.8524,-5.8237,-5.7638,-5.6763,-5.6173,-5.5751,-5.5633,-5.5633,-5.526,-5.4114,-5.299,-5.2681,-5.1412,-5.0465,-4.9765,-4.8679,-4.7209,-4.5942,-4.5336,-4.563,-4.5832,-4.5942,-4.6344,-4.7548,-4.8369,-4.9571,-5.0391,-5.1589,-5.2975,-5.4518,-5.5539,-5.6768,-5.7549,-5.8397,-5.9012,-5.8918,-5.8731,-5.8731,-5.8731,-5.8731,-5.8731,-5.8731,-5.8731,-5.8731,-3.5123,-3.6631,-3.7257,-3.6797,-3.5635,-3.3961,-3.2462,-3.1436,-3.2587,-3.3809,-3.4708,-3.6094,-3.756,-3.8687,-3.928,-3.9969,-4.0724,-4.1277,-4.0605,-3.9481,-3.9632,-3.895,-3.7815,-3.7815,-3.8566,-3.895,-4.0482,-4.1628,-4.1992,-4.3136,-4.3517,-4.3517,-4.2374,-4.1246,-3.9716,-3.8583,-3.7047,-3.4352,-3.4526,-3.3517,-3.1711,-3.2014,-3.2146,-3.2119,-3.1865,-3.1466,-3.2119,-3.1722,-3.2133,-3.4501,-3.5294,-3.7119,-3.9169,-4.0691,-4.2471,-4.4046,-4.5914,-4.7054,-4.8193,-4.8971,-5.0655,-5.3369,-5.3973,-5.4982,-5.5821,-5.5938,-5.6574,-5.7188,-5.783,-5.8354,-5.9114,-5.9114,-5.8516,-5.7583,-5.716,-5.6314,-5.5704,-5.5633,-5.5633,-5.526,-5.374,-5.2614,-5.2614,-5.1141,-5.0294,-4.9569,-4.874,-4.7229,-4.5695,-4.5501,-4.5722,-4.5887,-4.6344,-4.7147,-4.8369,-4.917,-5.037,-5.1169,-5.2366,-5.3752,-5.4941,-5.6277,-5.7481,-5.8259,-5.9082,-5.9294,-5.8824,-5.8731,-5.8731,-5.8731,-5.8731,-5.8731,-5.8731,-5.8731,-5.8731,-3.5863,-3.7336,-3.702,-3.6121,-3.4924,-3.3888,-3.2425,-3.1129,-3.2607,-3.3903,-3.4576,-3.6942,-3.8325,-3.8686,-4.0237,-4.084,-4.1229,-4.2317,-4.1766,-3.9952,-4.0259,-3.93,-3.7815,-3.8583,-3.895,-3.9333,-4.1229,-4.201,-4.2374,-4.3155,-4.3517,-4.3517,-4.3517,-4.2374,-4.0864,-3.9333,-3.7431,-3.4352,-3.4352,-3.3321,-3.1632,-3.1684,-3.1803,-3.1988,-3.2027,-3.204,-3.2001,-3.1988,-3.2792,-3.5163,-3.5893,-3.7562,-4.0065,-4.1435,-4.2572,-4.3727,-4.4677,-4.5717,-4.6448,-4.7543,-4.9407,-5.1732,-5.3387,-5.419,-5.392,-5.4202,-5.5085,-5.6716,-5.7498,-5.8211,-5.9083,-5.9033,-5.8463,-5.7304,-5.6884,-5.6513,-5.5375,-5.5422,-5.5492,-5.5492,-5.3672,-5.2614,-5.2637,-5.1141,-4.9932,-4.8923,-4.8533,-4.7345,-4.6203,-4.574,-4.5905,-4.5942,-4.6746,-4.7968,-4.877,-4.9971,-5.1169,-5.1988,-5.3162,-5.4485,-5.5655,-5.69,-5.8098,-5.8965,-5.9317,-5.9176,-5.8848,-5.8731,-5.8731,-5.8731,-5.8731,-5.8731,-5.8731,-5.8731,-5.8731,-3.6094,-3.6989,-3.6926,-3.5604,-3.3858,-3.3425,-3.2313,-3.0458,0.0,0.0,0.0,-3.6874,-3.8337,-3.9067,-4.0487,-4.1211,-4.1989,-4.2433,-4.1515,-3.9935,-4.0003,-3.9431,-3.8566,-3.895,-3.9716,-4.1229,-4.1992,-4.2374,-4.3136,-4.3517,-4.3517,-4.3517,-4.3517,-4.2755,-4.1628,-3.9716,-3.7415,-3.4737,-3.4352,-3.3223,-3.1342,-3.1579,-3.1618,-3.1421,-3.1645,-3.1658,-3.1421,-3.1407,-3.2573,-3.4511,-3.5019,-3.6734,-3.9642,-4.0911,-4.2193,-4.3897,-4.4598,-4.5109,-4.6172,-4.7234,-4.7823,-4.876,-5.1022,-5.2281,-5.2278,-5.3336,-5.4192,-5.5077,-5.6685,-5.8013,-5.8466,-5.8517,-5.8078,-5.7278,-5.6164,-5.5436,-5.4366,-5.4695,-5.4953,-5.463,-5.3467,-5.2592,-5.2614,-5.152,-5.0035,-4.9248,-4.8481,-4.8166,-4.7358,-4.627,-4.5905,-4.5905,-4.7128,-4.7968,-4.917,-4.9971,-5.119,-5.1988,-5.3162,-5.4398,-5.5656,-5.6472,-5.7661,-5.8895,-5.8871,-5.8848,-5.8754,-5.8731,-5.8731,-5.8731,-5.8731,-5.8731,-5.8731,-5.8731,-5.8684,-3.6291,0.0,-3.6531,-3.5161,0.0,-3.2976,-3.2164,-3.0698,-3.1425,-3.3062,-3.5595,-3.7487,-3.8424,-3.9506,-4.0406,-4.1042,-4.1441,-4.1846,-4.114,-3.9645,-3.985,-3.9364,-3.895,-3.9333,-4.0482,-4.1992,-4.2392,-4.3155,-4.3517,-4.3517,-4.3517,-4.3517,-4.3517,-4.3136,-4.2755,-4.0864,-3.7799,-3.4352,-3.4352,-3.358,-3.1262,-3.1407,-3.1407,-3.1276,-3.1407,0.0,0.0,0.0,0.0,0.0,0.0,0.0,0.0,0.0,0.0,-4.2744,-4.2617,-4.3303,-4.4433,-4.5639,-4.6237,-4.718,-4.8876,-5.0028,-4.9533,-5.0792,-5.2696,-5.4087,-5.56,-5.6674,-5.8168,-5.8296,-5.7562,-5.6497,-5.581,-5.4836,-5.4022,-5.3897,-5.4249,-5.4351,-5.3195,-5.2348,-5.257,-5.1141,-4.9994,-4.8699,-4.8501,-4.7809,-4.6808,-4.6047,-4.5648,-4.5648,-4.6996,-4.877,-4.917,-5.037,-5.1589,-5.2387,-5.3581,-5.4773,-5.5567,-5.6755,-5.7918,-5.8731,-5.8731,-5.8731,-5.8731,-5.8731,-5.8731,-5.8731,-5.8731,-5.8613,-5.8027,-5.7933,-5.7933,-3.6013,-3.6657,-3.6089,-3.4717,-3.2787,-3.241,-3.1527,-3.083,-3.1416,-3.314,-3.5931,-3.7192,-3.8364,-3.9422,-4.0186,-4.0394,-4.0449,-4.1166,-4.0621,-3.9149,-3.9542,-3.9541,-3.9117,-3.9879,-4.102,-4.2159,-4.2918,-4.3297,-4.3297,-4.3297,-4.3315,-4.3297,-4.3297,-4.3297,-4.2918,0.0,0.0,0.0,-3.4693,-3.358,-3.1262,-3.1262,-3.1262,-3.1262,-3.1262,0.0,-3.1262,-3.2408,-3.3153,-3.425,-3.6531,0.0,0.0,0.0,0.0,0.0,0.0,0.0,0.0,0.0,0.0,0.0,-4.6937,-4.7571,-4.6717,-4.801,-5.0223,-5.3238,-5.4083,-5.5576,-5.7368,-5.7498,-5.6808,-5.5078,-5.4732,-5.4257,-5.2983,-5.2794,-5.324,-5.4249,-5.3018,-5.2185,-5.2348,-5.1305,-4.9703,-4.7649,-4.7854,-4.748,-4.551,-4.5189,-4.5281,-4.5372,-4.7225,-4.8653,-4.9551,-5.119,-5.2387,-5.2785,-5.4376,-5.5567,-5.5963,-5.7546,-5.8731,-5.8731,-5.8731,-5.8731,-5.8731,-5.8637,-5.8543,-5.859,-5.8472,-5.8167,-5.7346,-5.7158,-5.7158,-3.6279,-3.5994,-3.59,-3.4579,-3.2439,-3.1845,-3.089,-3.0193,-3.0932,-3.2042,-3.3508,-3.6246,-3.7605,-3.8642,-3.9677,-4.0009,-4.0027,-4.0468,-3.9816,-3.8381,-3.8773,-3.8779,-3.9118,-3.9491,-4.0254,-4.2135,-4.2507,-4.2507,-4.2507,-4.2507,-4.2507,-4.2507,-4.2507,-4.2117,-4.0964,-3.9554,-3.8593,-3.8078,-3.5741,-3.358,-3.1262,-3.1262,-3.1262,-3.1262,-3.1262,-3.1262,-3.1262,-3.2408,-3.3055,-3.3917,-3.5953,-3.7491,-3.7851,-3.8875,-3.9494,0.0,-3.9026,0.0,0.0,0.0,0.0,0.0,0.0,0.0,0.0,-4.556,-4.796,-5.1665,-5.2805,-5.3914,-5.503,-5.516,-5.4473,-5.284,-5.2482,-5.2036,-5.0881,-5.0987,-5.1668,-5.2724,-5.2143,-5.1676,-5.1815,-5.0922,-4.9456,-4.7834,-4.7323,-4.7016,-4.5894,-4.4991,-4.4932,-4.5317,-4.66,-4.7944,-4.9811,-5.1527,-5.2722,-5.3538,-5.4686,-5.5941,-5.6665,-5.7895,-5.8707,-5.8707,-5.866,-5.8684,-5.8731,-5.8332,-5.805,-5.8003,-5.7604,-5.7229,-5.7041,-5.6994,-5.7158,-3.571,-3.5537,-3.5158,-3.3972,-3.2071,-3.1953,-3.1558,-3.1208,-3.1558,-3.2623,-3.3672,-3.5549,-3.6948,-3.79,-3.8238,-3.8594,-3.8649,-3.8767,-3.8432,-3.7936,-3.8329,-3.8791,-3.9354,-3.9726,-4.084,-4.236,-4.236,-4.225,-4.2029,-4.2011,-4.1901,-4.1699,-4.168,-4.0245,-3.7851,-3.7538,-3.729,-3.7071,-3.4954,-3.3013,-3.1249,-3.1262,-3.1262,-3.1262,-3.1262,-3.1262,-3.1262,-3.2629,-3.3622,-3.3845,-3.5852,-3.6761,-3.6732,-3.7097,-3.7064,0.0,0.0,0.0,0.0,0.0,0.0,0.0,0.0,0.0,0.0,0.0,-4.5057,-4.7491,-4.9957,-5.1576,-5.2719,-5.2506,-5.1529,-5.0282,-4.9963,-4.9319,-4.8829,-4.911,-4.9885,-5.148,-5.1086,-5.1064,-5.0949,-5.0466,-4.9474,-4.7592,-4.6896,-4.6138,-4.5039,-4.4783,-4.4472,-4.4656,-4.5661,-4.7067,-4.8798,-5.0433,-5.2005,-5.3159,-5.3942,-5.5136,-5.6306,-5.7085,-5.7862,-5.7862,-5.7862,-5.7862,-5.7839,-5.7651,-5.751,-5.7323,-5.6408,-5.5539,-5.5446,-5.568,-5.5868,-3.4968,-3.4889,-3.3942,-3.258,-3.1457,-3.1775,-3.1911,-3.1911,-3.1911,-3.2611,-3.3605,-3.4856,-3.5677,-3.6763,-3.707,-3.707,-3.7143,-3.733,-3.7209,-3.7168,-3.7629,-3.8176,-3.8808,-3.9907,-4.0657,-4.1772,-4.179,-4.157,-4.1166,-4.1148,-4.0605,-4.0223,-3.9913,-3.801,-3.4973,-3.5909,-3.6305,-3.5742,-3.4549,-3.3141,-3.1914,-3.1609,-3.1262,-3.1262,-3.1262,-3.1236,-3.1157,-3.2462,-3.3336,-3.3396,-3.4875,-3.5548,-3.5598,-3.4824,0.0,0.0,0.0,0.0,0.0,0.0,0.0,0.0,0.0,-3.956,-4.0335,0.0,-4.3054,0.0,-4.7129,-4.9395,-5.0106,-4.9577,0.0,0.0,-4.7167,-4.6963,-4.7022,-4.7139,-4.7937,-5.0002,-5.0024,-5.0141,-5.0307,-5.0134,-4.9535,-4.7714,-4.6396,-4.5437,-4.4805,-4.426,-4.3921,-4.4528,-4.5582,-4.6958,-4.8243,-4.9819,-5.1414,-5.2512,-5.3694,-5.4465,-5.5644,-5.6798,-5.7111,-5.6994,-5.6971,-5.6924,-5.683,-5.6689,-5.6501,-5.6032,-5.4929,-5.3897,-5.3897,-5.4296,-5.4648,-3.391,-3.3768,-3.2127,-3.0755,-3.0095,-3.0413,-3.0564,-3.0564,-3.0564,-3.1547,-3.279,-3.3063,-3.3674,-3.4565,-3.5507,0.0,-3.5876,-3.6096,-3.5869,-3.5648,-3.6348,-3.6895,-3.7287,-3.8344,-3.9047,-4.0137,-4.0119,-3.9898,-3.9513,-3.8821,-3.8278,-3.7849,-3.5782,-3.4583,-3.4184,-3.4907,-3.5442,-3.5363,-3.3849,-3.3584,-3.3508,-3.2272,-3.1262,-3.1262,-3.1262,-3.1131,-3.0867,-3.1971,-3.2201,-3.2164,-3.3217,-3.3801,-3.3737,0.0,0.0,0.0,0.0,0.0,0.0,0.0,0.0,0.0,0.0,0.0,0.0,0.0,0.0,0.0,-4.5394,0.0,-4.7231,-4.7018,0.0,0.0,0.0,-4.4809,-4.5235,-4.5028,-4.5825,-4.789,0.0,0.0,-5.0255,-4.9882,-4.9149,-4.8101,-4.6649,-4.5456,-4.5515,-4.4112,-4.3676,-4.5168,-4.6494,-4.7807,-4.884,-5.0084,-5.1224,-5.311,-5.408,-5.4738,-5.6251,-5.7041,-5.6924,-5.6478,-5.6454,-5.629,-5.5844,-5.5234,-5.4577,-5.3193,-5.3099,-5.331,-5.3263,-5.3639,-5.3967,-3.2237,-3.1211,-3.0295,-2.9609,-2.9333,-2.9673,-2.9828,-2.9828,-2.9828,-3.0453,-3.1653,-3.1842,-3.1984,-3.2651,-3.3285,0.0,0.0,0.0,-3.382,-3.3784,-3.4854,-3.5853,-3.6416,-3.7809,-3.8857,-3.92,-3.8943,-3.8275,-3.7539,-3.699,-3.5533,-3.3308,0.0,0.0,-3.2141,-3.2935,-3.4019,-3.4684,-3.3771,-3.3352,-3.3845,-3.2258,-3.1262,-3.1249,-3.1091,-3.0946,-3.0814,-3.126,-3.0927,-3.0974,-3.1345,-3.1297,0.0,0.0,0.0,0.0,0.0,0.0,0.0,0.0,0.0,0.0,0.0,-3.7496,-3.8106,0.0,0.0,0.0,-4.3558,-4.5072,-4.542,-4.466,0.0,0.0,0.0,0.0,0.0,0.0,0.0,-4.5778,-4.6764,-4.7615,-4.8315,-4.7713,-4.7478,-4.8012,-4.6106,-4.465,-4.5083,0.0,-4.3435,-4.4887,-4.5914,-4.7193,-4.8233,-4.8992,-5.0022,-5.0477,-5.1578,-5.305,-5.4933,-5.5281,-5.5211,-5.5,-5.4742,-5.446,-5.4272,-5.2747,-5.1339,-5.08,-5.0847,-5.1081,-5.1386,-5.1856,-5.2301,-3.0248,0.0,0.0,0.0,0.0,-2.8874,-2.9032,-2.9032,-2.933,-2.9628,-3.0471,-3.0489,0.0,0.0,0.0,0.0,0.0,0.0,-3.1773,-3.1867,-3.3551,-3.4623,-3.534,-3.7026,-3.797,-3.7841,-3.7218,-3.6493,-3.5648,-3.4198,-3.218,-2.9421,0.0,0.0,0.0,0.0,-3.3011,-3.3797,-3.3471,-3.3178,-3.3714,-3.2217,-3.1262,-3.1262,-3.0972,-3.0695,-3.0445,-3.0212,-2.9701,-2.928,-2.9093,0.0,0.0,0.0,0.0,0.0,0.0,0.0,0.0,0.0,0.0,0.0,0.0,0.0,0.0,0.0,0.0,0.0,0.0,0.0,-4.3686,-4.2152,-4.0805,0.0,0.0,0.0,0.0,0.0,0.0,0.0,0.0,0.0,-4.6258,-4.5777,-4.5954,0.0,0.0,-4.3825,-4.4375,-4.3613,-4.3381,-4.4613,-4.6006,0.0,-4.7652,-4.8249,-4.8431,-4.8096,-4.9364,-5.1406,-5.3069,-5.3404,-5.331,-5.2982,-5.2653,-5.2208,-5.1597,-4.9885,-4.8664,-4.8571,-4.8688,-4.8899,-4.9274,-4.9861,-5.0424,0.0,0.0,0.0,0.0,0.0,0.0,0.0,0.0,-2.8178,-2.9027,0.0,-2.9238,0.0,0.0,0.0,0.0,0.0,-3.0036,0.0,0.0,-3.2028,-3.3086,-3.4105,-3.5717,-3.6169,-3.5784,-3.5139,-3.4414,-3.3271,-3.0032,0.0,0.0,0.0,0.0,0.0,0.0,-3.2411,-3.38,-3.3351,-3.3062,-3.3425,-3.2121,-3.1262,-3.1249,-3.0972,-3.0419,-2.9588,-2.8955,-2.8219,-2.7509,-2.715,0.0,0.0,0.0,0.0,0.0,0.0,0.0,0.0,0.0,0.0,0.0,0.0,0.0,0.0,0.0,0.0,0.0,0.0,0.0,0.0,-3.9965,0.0,0.0,0.0,0.0,0.0,0.0,0.0,0.0,0.0,0.0,-4.423,-4.3967,-4.4467,-4.5604,0.0,0.0,0.0,0.0,-4.3731,-4.522,-4.6036,-4.714,-4.7855,-4.7866,-4.7594,-4.7552,0.0,0.0,-5.1577,-5.1832,-5.1504,-5.0518,-5.033,-4.9673,-4.7702,-4.6858,-4.6459,-4.6459,-4.6811,-4.7163,-4.7257,-4.7937,-4.8664,0.0,0.0,0.0,0.0,0.0,0.0,0.0,0.0,0.0,-2.7714,0.0,-2.8583,0.0,0.0,0.0,0.0,0.0,0.0,0.0,0.0,-2.9862,-3.107,-3.1548,-3.3037,-3.3855,0.0,-3.2865,-3.1089,0.0,0.0,0.0,0.0,0.0,0.0,0.0,0.0,-3.1716,-3.3121,-3.2575,-3.2874,-3.3021,-3.2108,-3.1262,-3.1249,-3.0972,-3.0234,-2.8981,-2.7847,-2.6608,0.0,0.0,0.0,0.0,0.0,0.0,0.0,0.0,0.0,0.0,0.0,0.0,0.0,0.0,0.0,0.0,0.0,0.0,0.0,0.0,0.0,0.0,0.0,-3.7594,0.0,0.0,0.0,0.0,0.0,0.0,0.0,0.0,0.0,-4.2493,-4.2697,-4.3246,-4.5009,-4.4161,-4.33,-4.4159,0.0,0.0,0.0,0.0,0.0,0.0,0.0,-4.6798,-4.5898,-4.6992,-4.8339,-4.823,-4.8798,-4.911,-4.8735,0.0,0.0,-4.5051,-4.4464,-4.4347,-4.4347,-4.4488,-4.4699,-4.5028,-4.5403,-4.5849,0.0,0.0,0.0,0.0,0.0,0.0,0.0,0.0,0.0,-2.7045,-2.8132,0.0,0.0,0.0,0.0,0.0,0.0,0.0,0.0,0.0,0.0,0.0,-2.9806,-3.1213,0.0,0.0,0.0,0.0,0.0,0.0,0.0,0.0,0.0,0.0,0.0,0.0,-3.1242,-3.2422,-3.2338,-3.239,-3.3006,-3.2108,-3.1262,-3.1249,-3.0972,-3.0221,-2.8968,0.0,0.0,0.0,0.0,0.0,0.0,0.0,0.0,0.0,0.0,0.0,0.0,0.0,0.0,0.0,0.0,0.0,0.0,0.0,0.0,0.0,0.0,0.0,0.0,0.0,-3.6145,0.0,0.0,0.0,0.0,0.0,0.0,0.0,0.0,0.0,0.0,0.0,-4.1835,-4.3775,-4.3136,-4.314,-4.4155,-4.4358,-4.4978,0.0,0.0,0.0,0.0,0.0,0.0,0.0,0.0,0.0,0.0,0.0,0.0,0.0,0.0,-4.4253,-4.254,-4.2519,-4.2519,-4.2519,0.0,0.0,0.0,0.0,0.0,0.0,0.0,0.0,0.0,0.0,0.0,0.0,0.0,0.0,0.0,0.0,0.0,0.0,-2.6863,0.0,0.0,0.0,0.0,0.0,0.0,0.0,0.0,0.0,0.0,0.0,0.0,0.0,0.0,0.0,0.0,0.0,0.0,0.0,0.0,0.0,0.0,-3.1021,-3.2726,-3.2338,-3.2758,-3.3006,-3.2108,-3.1262,-3.1249,-3.0959,-3.0379,-2.9496,0.0,0.0,0.0,0.0,0.0,0.0,0.0,0.0,0.0,0.0,0.0,0.0,0.0,0.0,0.0,0.0,0.0,0.0,0.0,0.0,0.0,0.0,0.0,0.0,0.0,0.0,-3.4299,-3.3502,-3.3508,0.0,0.0,0.0,0.0,0.0,0.0,0.0,0.0,0.0,0.0,-4.1566,-4.1902,-4.3242,-4.4175,-4.4906,-4.5352,-4.6127,-4.6694,-4.6191,-4.5396,-4.4475,0.0,0.0,0.0,0.0,0.0,0.0,0.0,0.0,0.0,0.0,0.0,0.0,0.0,0.0,0.0,0.0,0.0,0.0,0.0,0.0,0.0,0.0,0.0,0.0,0.0,0.0,0.0,0.0,0.0,0.0,0.0,0.0,0.0,0.0,0.0,0.0,0.0,0.0,0.0,0.0,0.0,0.0,0.0,0.0,0.0,0.0,0.0,0.0,0.0,0.0,0.0,0.0,0.0,0.0,-3.0895,-3.2379,-3.2234,-3.239,-3.3396,-3.2108,-3.1262,-3.1236,-2.982,-2.8794,0.0,0.0,0.0,0.0,0.0,0.0,0.0,0.0,0.0,0.0,0.0,0.0,0.0,0.0,0.0,0.0,0.0,0.0,0.0,0.0,0.0,0.0,0.0,0.0,0.0,0.0,0.0,0.0,-3.3238,-3.319,-3.4521,0.0,0.0,0.0,0.0,0.0,0.0,0.0,0.0,0.0,0.0,-4.3443,-4.3825,-4.4739,-4.5383,-4.5528,-4.5549,-4.5752,-4.527,-4.4705,-4.4202,-4.3282,0.0,0.0,0.0,0.0,0.0,0.0,0.0,0.0,0.0,0.0,0.0,0.0,0.0,0.0,0.0,0.0,0.0,0.0,0.0,0.0,0.0,0.0,0.0,0.0,0.0,0.0,0.0,0.0,0.0,0.0,0.0,0.0,0.0,0.0,0.0,0.0,0.0,0.0,0.0,0.0,0.0,0.0,0.0,0.0,0.0,0.0,0.0,0.0,0.0,0.0,0.0,0.0,0.0,-3.0706,-3.2221,-3.2175,-3.239,-3.3006,-3.2108,-3.1262,-3.1262,-2.9653,-2.816,0.0,0.0,0.0,0.0,0.0,0.0,0.0,0.0,0.0,0.0,0.0,0.0,0.0,0.0,0.0,0.0,0.0,0.0,0.0,0.0,0.0,0.0,0.0,0.0,0.0,0.0,0.0,0.0,-3.2348,-3.2608,-3.3503,0.0,0.0,0.0,0.0,0.0,0.0,0.0,0.0,0.0,0.0,-4.3092,-4.3717,-4.4203,0.0,0.0,-4.4936,-4.4789,-4.435,-4.3722,-4.2822,-4.2092,-4.2015,0.0,0.0,0.0,0.0,0.0,0.0,0.0,0.0,0.0,0.0,0.0,0.0,0.0,0.0,0.0,0.0,0.0,0.0,0.0,0.0,0.0,0.0,0.0,0.0,0.0,0.0,0.0,0.0,0.0,0.0,0.0,0.0,0.0,0.0,0.0,0.0,0.0,0.0,0.0,0.0,0.0,0.0,0.0,0.0,0.0,0.0,0.0,0.0,0.0,0.0,0.0,0.0,0.0,-3.2221,-3.216,-3.2362,-3.3006,-3.2108,-3.1262,-3.1249,-2.9263,-2.806,0.0,0.0,0.0,0.0,0.0,0.0,0.0,0.0,0.0,0.0,0.0,0.0,0.0,0.0,0.0,0.0,0.0,0.0,0.0,0.0,0.0,0.0,0.0,0.0,0.0,0.0,0.0,0.0,0.0,0.0,0.0,0.0,0.0,0.0,0.0,0.0,0.0,0.0,0.0,0.0,0.0,-4.1465,-4.2641,-4.2968,-4.3429,0.0,0.0,-4.3764,-4.3345,-4.2487,-4.144,-4.0448,0.0,0.0,0.0,0.0,0.0,0.0,0.0,0.0,0.0,0.0,0.0,0.0,0.0,0.0,0.0,0.0,0.0,0.0,0.0,0.0,0.0,0.0,0.0,0.0,0.0,0.0,0.0,0.0,0.0,0.0,0.0,0.0,0.0,0.0,0.0,0.0,0.0,0.0,0.0,0.0,0.0,0.0,0.0,0.0,0.0,0.0,0.0,0.0,0.0,0.0,0.0,0.0,0.0,0.0,-3.1198,-3.1573,-3.2147,-3.2243,-3.1725,-3.0863,-3.0076,-2.8325,0.0,0.0,0.0,0.0,0.0,0.0,0.0,0.0,0.0,0.0,0.0,0.0,0.0,0.0,0.0,0.0,0.0,0.0,0.0,0.0,0.0,0.0,0.0,0.0,0.0,0.0,0.0,-3.2246,0.0,0.0,0.0,0.0,0.0,0.0,0.0,0.0,0.0,0.0,0.0,0.0,0.0,0.0,-4.0758,-4.098,-4.1566,-4.1901,0.0,0.0,-4.2005,-4.1901,-4.1085,-4.0554,0.0,0.0,0.0,0.0,0.0,0.0,0.0,0.0,0.0,0.0,0.0,0.0,0.0,0.0,0.0,0.0,0.0,0.0,0.0,0.0,0.0,0.0,0.0,0.0,0.0,0.0,0.0,0.0,0.0,0.0,0.0,0.0,0.0,0.0,0.0,0.0,0.0,0.0,0.0,0.0,0.0,0.0,0.0,0.0,0.0,0.0,0.0,0.0,0.0,0.0,0.0,0.0,0.0,0.0,-2.9594,-3.0655,-3.1426,-3.1683,-3.1854,-3.0946,-3.0476,-2.9701,-2.7516,-2.562,0.0,0.0,0.0,0.0,0.0,0.0,0.0,0.0,0.0,0.0,0.0,0.0,0.0,0.0,0.0,0.0,0.0,0.0,0.0,0.0,0.0,0.0,0.0,0.0,0.0,0.0,0.0,0.0,0.0,0.0,0.0,0.0,0.0,0.0,0.0,0.0,0.0,0.0,0.0,0.0,0.0,0.0,-3.9933,-4.0289,0.0,0.0,0.0,-4.0164,-4.0164,0.0,0.0,0.0,0.0,0.0,0.0,0.0,0.0,0.0,0.0,0.0,0.0,0.0,0.0,0.0,0.0,0.0,0.0,0.0,0.0,0.0,0.0,0.0,0.0,0.0,0.0,0.0,0.0,0.0,0.0,0.0,0.0,0.0,0.0,0.0,0.0,0.0,0.0,0.0,0.0,0.0,0.0,0.0,0.0,0.0,0.0,0.0,0.0,0.0,0.0,0.0,0.0,0.0,0.0,0.0,0.0,0.0,-3.0012,-3.0889,-3.1598,-3.1424,-3.0141,-2.9651,-2.9252,-2.6756,-2.4871,0.0,0.0,0.0,0.0,0.0,0.0,0.0,0.0,0.0,0.0,0.0,0.0,0.0,0.0,0.0,0.0,0.0,0.0,0.0,0.0,0.0,0.0,0.0,0.0,0.0,0.0,0.0,0.0,0.0,0.0,0.0,0.0,0.0,0.0,0.0,0.0,0.0,0.0,0.0,0.0,0.0,-3.8917,-3.8929,-3.9013,-3.8824,0.0,0.0,-3.8259,-3.8259,-3.7882,0.0,0.0,0.0,0.0,0.0,0.0,0.0,0.0,0.0,0.0,0.0,0.0,0.0,0.0,0.0,0.0,0.0,0.0,0.0,0.0,0.0,0.0,0.0,0.0,0.0,0.0,0.0,0.0,0.0,0.0,0.0,0.0,0.0,0.0,0.0,0.0,0.0,0.0,0.0,0.0,0.0,0.0,0.0,0.0,0.0,0.0,0.0,0.0,0.0,0.0,0.0,0.0,0.0,0.0,0.0,0.0,-2.8701,-3.0353,-3.0359,-2.9254,-2.9479,-2.8609,-2.7064,-2.5917,-2.4353,0.0,0.0,0.0,0.0,0.0,0.0,0.0,0.0,0.0,0.0,0.0,0.0,0.0,0.0,0.0,0.0,0.0,0.0,0.0,0.0,0.0,0.0,0.0,0.0,0.0,0.0,0.0,0.0,0.0,0.0,0.0,0.0,0.0,0.0,0.0,0.0,0.0,0.0,0.0,0.0,0.0,-3.7285,-3.7568,-3.7317,0.0,0.0,0.0,0.0,-3.6396,-3.5999,0.0,0.0,0.0,0.0,0.0,0.0,0.0,0.0,0.0,0.0,0.0,0.0,0.0,0.0,0.0,0.0,0.0,0.0,0.0,0.0,0.0,0.0,0.0,0.0,0.0,0.0,0.0,0.0,0.0,0.0,0.0,0.0,0.0,0.0,0.0,0.0,0.0,0.0,0.0,0.0,0.0,0.0,0.0,0.0,0.0,0.0,0.0,0.0,0.0,0.0,0.0,0.0,0.0,0.0,0.0,0.0,-2.8064,-2.9445,-2.9496,-2.8423,-2.8634,-2.7771,-2.6218,-2.5149,-2.3948,0.0,0.0,0.0,0.0,0.0,0.0,0.0,0.0,0.0,0.0,0.0,0.0,0.0,0.0,0.0,0.0,0.0,0.0,0.0,0.0,0.0,0.0,0.0,0.0,0.0,0.0,0.0,0.0,0.0,0.0,0.0,0.0,0.0,0.0,0.0,0.0,0.0,0.0,0.0,0.0,-3.6618,-3.6294,-3.6501,0.0,0.0,0.0,0.0,0.0,0.0,-3.4973,-3.5271,0.0,0.0,0.0,0.0,0.0,0.0,0.0,0.0,0.0,0.0,0.0,0.0,0.0,0.0,0.0,0.0,0.0,0.0,0.0,0.0,0.0,0.0,0.0,0.0,0.0,0.0,0.0,0.0,0.0,0.0,0.0,0.0,0.0,0.0,0.0,0.0,0.0,0.0,0.0,0.0,0.0,0.0,0.0,0.0,0.0,0.0,0.0,0.0,0.0,0.0,0.0,0.0,0.0,0.0,0.0,-2.7735,-2.8546,-2.8652,-2.7991,-2.7805,-2.6937,-2.5769,-2.4382,-2.3164,-2.2118,0.0,0.0,0.0,0.0,0.0,0.0,0.0,0.0,0.0,0.0,0.0,0.0,0.0,0.0,0.0,0.0,0.0,0.0,0.0,0.0,0.0,0.0,0.0,0.0,0.0,0.0,0.0,0.0,0.0,0.0,0.0,0.0,0.0,0.0,0.0,0.0,0.0,0.0,0.0,-3.6523,-3.5985,0.0,0.0,0.0,0.0,0.0,0.0,0.0,0.0,-3.4613,0.0,0.0,0.0,0.0,0.0,0.0,0.0,0.0,0.0,0.0,0.0,0.0,0.0,0.0,0.0,0.0,0.0,0.0,0.0,0.0,0.0,0.0,0.0,0.0,0.0,0.0,0.0,0.0,0.0,0.0,0.0,0.0,0.0,0.0,0.0,0.0,0.0,0.0,0.0,0.0,0.0,0.0,0.0,0.0,0.0,0.0,0.0,0.0,0.0,0.0,0.0,0.0,0.0,0.0,0.0,0.0,-2.7374,-2.7467,-2.6607,-2.6417,-2.5536,-2.479,-2.3925,-2.2942,-2.1442,0.0,0.0,0.0,0.0,0.0,0.0,0.0,0.0,0.0,0.0,0.0,0.0,0.0,0.0,0.0,0.0,0.0,0.0,0.0,0.0,0.0,0.0,0.0,0.0,0.0,0.0,0.0,0.0,0.0,0.0,0.0,0.0,0.0,0.0,0.0,0.0,0.0,0.0,-3.6008,-3.5884,0.0,0.0,0.0,0.0,0.0,0.0,0.0,0.0,-3.3278,0.0,0.0,0.0,0.0,0.0,0.0,0.0,0.0,0.0,0.0,0.0,0.0,0.0,0.0,0.0,0.0,0.0,0.0,0.0,0.0,0.0,0.0,0.0,0.0,0.0,0.0,0.0,0.0,0.0,0.0,0.0,0.0,0.0,0.0,0.0,0.0,0.0,0.0,0.0,0.0,0.0,0.0,0.0,0.0,0.0,0.0,0.0,0.0,0.0,0.0,0.0,0.0,0.0,0.0,0.0,0.0,0.0,0.0,-2.6024,-2.6144,-2.5587,-2.5105,-2.3967,-2.3302,-2.2329,0.0,0.0,0.0,0.0,0.0,0.0,0.0,0.0,0.0,0.0,0.0,0.0,0.0,0.0,0.0,0.0,0.0,0.0,0.0,0.0,0.0,0.0,0.0,0.0,0.0,0.0,0.0,0.0,0.0,0.0,0.0,0.0,0.0,0.0,0.0,0.0,0.0,0.0,0.0,0.0,0.0,0.0,0.0,0.0,0.0,0.0,0.0,0.0,0.0,0.0,0.0,0.0,0.0,0.0,0.0,0.0,0.0,0.0,0.0,0.0,0.0,0.0,0.0,0.0,0.0,0.0,0.0,0.0,0.0,0.0,0.0,0.0,0.0,0.0,0.0,0.0,0.0,0.0,0.0,0.0,0.0,0.0,0.0,0.0,0.0,0.0,0.0,0.0,0.0,0.0,0.0,0.0,0.0,0.0,0.0,0.0,0.0,0.0,0.0,0.0,0.0,0.0,0.0,0.0,0.0,0.0,0.0,0.0,-2.4903,-2.5257,-2.4759,-2.4319,-2.3576,-2.2541,-2.1558,0.0,0.0,0.0,0.0,0.0,0.0,0.0,0.0,0.0,0.0,0.0,0.0,0.0,0.0,0.0,0.0,0.0,0.0,0.0,0.0,0.0,0.0,0.0,0.0,0.0,0.0,0.0,0.0,0.0,0.0,0.0,0.0,0.0,0.0,0.0,0.0,0.0,0.0,0.0,0.0,0.0,0.0,0.0,0.0,0.0,0.0,0.0,0.0,-3.2901,0.0,0.0,0.0,0.0,0.0,0.0,0.0,0.0,0.0,0.0,0.0,0.0,0.0,0.0,0.0,0.0,0.0,0.0,0.0,0.0,0.0,0.0,0.0,0.0,0.0,0.0,0.0,0.0,0.0,0.0,0.0,0.0,0.0,0.0,0.0,0.0,0.0,0.0,0.0,0.0,0.0,0.0,0.0,0.0,0.0,0.0,0.0,0.0,0.0,0.0,0.0,0.0,0.0,0.0,0.0,0.0,0.0,0.0,0.0,-2.371,-2.405,-2.3709,-2.3344,-2.3302,-2.1833,-2.0681,0.0,0.0,0.0,0.0,0.0,0.0,0.0,0.0,0.0,0.0,0.0,0.0,0.0,0.0,0.0,0.0,0.0,0.0,0.0,0.0,0.0,0.0,0.0,0.0,0.0,0.0,0.0,0.0,0.0,0.0,0.0,0.0,0.0,0.0,0.0,0.0,0.0,0.0,0.0,0.0,0.0,0.0,0.0,0.0,0.0,0.0,0.0,0.0,0.0,0.0,0.0,0.0,0.0,0.0,0.0,0.0,0.0,0.0,0.0,0.0,0.0,0.0,0.0,0.0,0.0,0.0,0.0,0.0,0.0,0.0,0.0,0.0,0.0,0.0,0.0,0.0,0.0,0.0,0.0,0.0,0.0,0.0,0.0,0.0,0.0,0.0,0.0,0.0,0.0,0.0,0.0,0.0,0.0,0.0,0.0,0.0,0.0,0.0,0.0,0.0,0.0,0.0,0.0,0.0,0.0,0.0,0.0,0.0,-2.2651,-2.2997,-2.2558,-2.2308,-2.1907,-2.0839,-2.0315,0.0,0.0,0.0,0.0,0.0,0.0,0.0,0.0,0.0,0.0,0.0,0.0,0.0,0.0,0.0,0.0,0.0,0.0,0.0,0.0,0.0,0.0,0.0,0.0,0.0,0.0,0.0,0.0,0.0,0.0,0.0,0.0,0.0,0.0,0.0,0.0,0.0,0.0,0.0,0.0,0.0,0.0,0.0,0.0,0.0,0.0,0.0,0.0,0.0,0.0,0.0,0.0,0.0,0.0,0.0,0.0,0.0,0.0,0.0,0.0,0.0,0.0,0.0,0.0,0.0,0.0,0.0,0.0,0.0,0.0,0.0,0.0,0.0,0.0,0.0,0.0,0.0,0.0,0.0,0.0,0.0,0.0,0.0,0.0,0.0,0.0,0.0,0.0,0.0,0.0,0.0,0.0,0.0,0.0,0.0,0.0,0.0,0.0,0.0,0.0,0.0,0.0,0.0,0.0,0.0,0.0,0.0,0.0,0.0,-2.1798,-2.1463,-2.103,-2.0512,-1.9835,-1.9553,0.0,0.0,0.0,0.0,0.0,0.0,0.0,0.0,0.0,0.0,0.0,0.0,0.0,0.0,0.0,0.0,0.0,0.0,0.0,0.0,0.0,0.0,0.0,0.0,0.0,0.0,0.0,0.0,0.0,0.0,0.0,0.0,0.0,0.0,0.0,0.0,0.0,0.0,0.0,0.0,0.0,0.0,0.0,0.0,0.0,0.0,0.0,0.0,0.0,0.0,0.0,0.0,0.0,0.0,0.0,0.0,0.0,0.0,0.0,0.0,0.0,0.0,0.0,0.0,0.0,0.0,0.0,0.0,0.0,0.0,0.0,0.0,0.0,0.0,0.0,0.0,0.0,0.0,0.0,0.0,0.0,0.0,0.0,0.0,0.0,0.0,0.0,0.0,0.0,0.0,0.0,0.0,0.0,0.0,0.0,0.0,0.0,0.0,0.0,0.0,0.0,0.0,0.0,0.0,0.0,0.0,0.0,0.0,0.0,-1.9909,-1.9719,-1.9603,-1.955,-1.8895,-1.8587,0.0,0.0,0.0,0.0,0.0,0.0,0.0,0.0,0.0,0.0,0.0,0.0,0.0,0.0,0.0,0.0,0.0,0.0,0.0,0.0,0.0,0.0,0.0,0.0,0.0,0.0,0.0,0.0,0.0,0.0,0.0,0.0,0.0,0.0,0.0,0.0,0.0,0.0,0.0,0.0,0.0,0.0,0.0,0.0,0.0,0.0,0.0,0.0,0.0,0.0,0.0,0.0,0.0,0.0,0.0,0.0,0.0,0.0,0.0,0.0,0.0,0.0,0.0,0.0,0.0,0.0,0.0,0.0,0.0,0.0,0.0,0.0,0.0,0.0,0.0,0.0,0.0,0.0,0.0,0.0,0.0,0.0,0.0,0.0,0.0,0.0,0.0,0.0,0.0,0.0,0.0,0.0,0.0,0.0,0.0,0.0,0.0,0.0,0.0,0.0,0.0,0.0,0.0,0.0,0.0,0.0,0.0,0.0,0.0,-1.8726,-1.88,-1.8821,-1.8831,-1.843,-1.849,-1.8932,0.0,0.0,0.0,0.0,0.0,0.0,0.0,0.0,0.0,0.0,0.0,0.0,0.0,0.0,0.0,0.0,0.0,0.0,0.0,0.0,0.0,0.0,0.0,0.0,0.0,0.0,0.0,0.0,0.0,0.0,0.0,0.0,0.0,0.0,0.0,0.0,0.0,0.0,0.0,0.0,0.0,0.0,0.0,0.0,0.0,0.0,0.0,0.0,0.0,0.0,0.0,0.0,0.0,0.0,0.0,0.0,0.0,0.0,0.0,0.0,0.0,0.0,0.0,0.0,0.0,0.0,0.0,0.0,0.0,0.0,0.0,0.0,0.0,0.0,0.0,0.0,0.0,0.0,0.0,0.0,0.0,0.0,0.0,0.0,0.0,0.0,0.0,0.0,0.0,0.0,0.0,0.0,0.0,0.0,0.0,0.0,0.0,0.0,0.0,0.0,0.0,0.0,0.0,0.0,0.0,0.0,0.0,0.0,-1.7754,-1.7997,-1.8123,-1.8113,-1.7817,-1.7934,0.0,0.0,0.0,0.0,0.0,0.0,0.0,0.0,0.0,0.0,0.0,0.0,0.0,0.0,0.0,0.0,0.0,0.0,0.0,0.0,0.0,0.0,0.0,0.0,0.0,0.0,0.0,0.0,0.0,0.0,0.0,0.0,0.0,0.0,0.0,0.0,0.0,0.0,0.0,0.0,0.0,0.0,0.0,0.0,0.0,0.0,0.0,0.0,0.0,0.0,0.0,0.0,0.0,0.0,0.0,0.0,0.0,0.0,0.0,0.0,0.0,0.0,0.0,0.0,0.0,0.0,0.0,0.0,0.0,0.0,0.0,0.0,0.0,0.0,0.0,0.0,0.0,0.0,0.0,0.0,0.0,0.0,0.0,0.0,0.0,0.0,0.0,0.0,0.0,0.0,0.0,0.0,0.0,0.0,0.0,0.0,0.0,0.0,0.0,0.0,0.0,0.0,0.0,0.0,0.0,0.0,0.0,0.0,-1.7131,-1.7035,-1.7289,-1.7437,-1.7405,-1.6982,-1.7386,0.0,0.0,0.0,0.0,0.0,0.0,0.0,0.0,0.0,0.0,0.0,0.0,0.0,0.0,0.0,0.0,0.0,0.0,0.0,0.0,0.0,0.0,0.0,0.0,0.0,0.0,0.0,0.0,0.0,0.0,0.0,0.0,0.0,0.0,0.0,0.0,0.0,0.0,0.0,0.0,0.0,0.0,0.0,0.0,0.0,0.0,0.0,0.0,0.0,0.0,0.0,0.0,0.0,0.0,0.0,0.0,0.0,0.0,0.0,0.0,0.0,0.0,0.0,0.0,0.0,0.0,0.0,0.0,0.0,0.0,0.0,0.0,0.0,0.0,0.0,0.0,0.0,0.0,0.0,0.0,0.0,0.0,0.0,0.0,0.0,0.0,0.0,0.0,0.0,0.0,0.0,0.0,0.0,0.0,0.0,0.0,0.0,0.0,0.0,0.0,0.0,0.0,0.0,0.0,0.0,0.0,0.0,0.0,0.0,-1.6337,0.0,-1.7162,0.0,-1.7389,-1.7542,0.0,0.0,0.0,0.0,0.0,0.0,0.0,0.0,0.0,0.0,0.0,0.0,0.0,0.0,0.0,0.0,0.0,0.0,0.0,0.0,0.0,0.0,0.0,0.0,0.0,0.0,0.0,0.0,0.0,0.0,0.0,0.0,0.0,0.0,0.0,0.0,0.0,0.0,0.0,0.0,0.0,0.0,0.0,0.0,0.0,0.0,0.0,0.0,0.0,0.0,0.0,0.0,0.0,0.0,0.0,0.0,0.0,0.0,0.0,0.0,0.0,0.0,0.0,0.0,0.0,0.0,0.0,0.0,0.0,0.0,0.0,0.0,0.0,0.0,0.0,0.0,0.0,0.0,0.0,0.0,0.0,0.0,0.0,0.0,0.0,0.0,0.0,0.0,0.0,0.0,0.0,0.0,0.0,0.0,0.0,0.0,0.0,0.0,0.0,0.0,0.0,0.0,0.0,0.0,0.0,0.0,0.0,0.0,0.0,-1.601,-1.6528,-1.6845,0.0,-1.7128,-1.7582,0.0,0.0,0.0,0.0,0.0,0.0,0.0,0.0,0.0,0.0,0.0,0.0,0.0,0.0,0.0,0.0,0.0,0.0,0.0,0.0,0.0,0.0,0.0,0.0,0.0,0.0,0.0,0.0,0.0,0.0,0.0,0.0,0.0,0.0,0.0,0.0,0.0,0.0,0.0,0.0,0.0,0.0,0.0,0.0,0.0,0.0,0.0,0.0,0.0,0.0,0.0,0.0,0.0,0.0,0.0,0.0,0.0,0.0,0.0,0.0,0.0,0.0,0.0,0.0,0.0,0.0,0.0,0.0,0.0,0.0,0.0,0.0,0.0,0.0,0.0,0.0,0.0,0.0,0.0,0.0,0.0,0.0,0.0,0.0,0.0,0.0,0.0,0.0,0.0,0.0,0.0,0.0,0.0,0.0,0.0,0.0,0.0,0.0,0.0,0.0,0.0,0.0,0.0,0.0,0.0,0.0,0.0,0.0,0.0,0.0,-1.6221,-1.6454,-1.6665,-1.6746,-1.724,0.0,0.0,0.0,0.0,0.0,0.0,0.0,0.0,0.0,0.0,0.0,0.0,0.0,0.0,0.0,0.0,0.0,0.0,0.0,0.0,0.0,0.0,0.0,0.0,0.0,0.0,0.0,0.0,0.0,0.0,0.0,0.0,0.0,0.0,0.0,0.0,0.0,0.0,0.0,0.0,0.0,0.0,0.0,0.0,0.0,0.0,0.0,0.0,0.0,0.0,0.0,0.0,0.0,0.0,0.0,0.0,0.0,0.0,0.0,0.0,0.0,0.0,0.0,0.0,0.0,0.0,0.0,0.0,0.0,0.0,0.0,0.0,0.0,0.0,0.0,0.0,0.0,0.0,0.0,0.0,0.0,0.0,0.0,0.0,0.0,0.0,0.0,0.0,0.0,0.0,0.0,0.0,0.0,0.0,0.0,0.0,0.0,0.0,0.0,0.0,0.0,0.0,0.0,0.0,0.0,0.0,0.0,0.0,0.0,0.0,-1.5978,0.0,-1.6422,-1.7161,-1.7889,-1.8198,0.0,0.0,0.0,0.0,0.0,0.0,0.0,0.0,0.0,0.0,0.0,0.0,0.0,0.0,0.0,0.0,0.0,0.0,0.0,0.0,0.0,0.0,0.0,0.0,0.0,0.0,0.0,0.0,0.0,0.0,0.0,0.0,0.0,0.0,0.0,0.0,0.0,0.0,0.0,0.0,0.0,0.0,0.0,0.0,0.0,0.0,0.0,0.0,0.0,0.0,0.0,0.0,0.0,0.0,0.0,0.0,0.0,0.0,0.0,0.0,0.0,0.0,0.0,0.0,0.0,0.0,0.0,0.0,0.0,0.0,0.0,0.0,0.0,0.0,0.0,0.0,0.0,0.0,0.0,0.0,0.0,0.0,0.0,0.0,0.0,0.0,0.0,0.0,0.0,0.0,0.0,0.0,0.0,0.0,0.0,0.0,0.0,0.0,0.0,0.0,0.0,0.0,0.0,0.0,0.0,0.0,0.0,0.0,0.0,0.0,0.0,-1.6211,-1.7071,-1.7865,0.0,0.0,0.0,0.0,0.0,0.0,0.0,0.0,0.0,0.0,0.0,0.0,0.0,0.0,0.0,0.0,0.0,0.0,0.0,0.0,0.0,0.0,0.0,0.0,0.0,0.0,0.0,0.0,0.0,0.0,0.0,0.0,0.0,0.0,0.0,0.0,0.0,0.0,0.0,0.0,0.0,0.0,0.0,0.0,0.0,0.0,0.0,0.0,0.0,0.0,0.0,0.0,0.0,0.0,0.0,0.0,0.0,0.0,0.0,0.0,0.0,0.0,0.0,0.0,0.0,0.0,0.0,0.0,0.0,0.0,0.0,0.0,0.0,0.0,0.0,0.0,0.0,0.0,0.0,0.0,0.0,0.0,0.0,0.0,0.0,0.0,0.0,0.0,0.0,0.0,0.0,0.0,0.0,0.0,0.0,0.0,0.0,0.0,0.0,0.0,0.0,0.0,0.0,0.0,0.0,0.0,0.0,0.0,0.0,0.0,0.0,-1.5756,-1.5968,-1.6463,0.0,-1.9299,0.0,0.0,0.0,0.0,0.0,0.0,0.0,0.0,0.0,0.0,0.0,0.0,0.0,0.0,0.0,0.0,0.0,0.0,0.0,0.0,0.0,0.0,0.0,0.0,0.0,0.0,0.0,0.0,0.0,0.0,0.0,0.0,0.0,0.0,0.0,0.0,0.0,0.0,0.0,0.0,0.0,0.0,0.0,0.0,0.0,0.0,0.0,0.0,0.0,0.0,0.0,0.0,0.0,0.0,0.0,0.0,0.0,0.0,0.0,0.0,0.0,0.0,0.0,0.0,0.0,0.0,0.0,0.0,0.0,0.0,0.0,0.0,0.0,0.0,0.0,0.0,0.0,0.0,0.0,0.0,0.0,0.0,0.0,0.0,0.0,0.0,0.0,0.0,0.0,0.0,0.0,0.0,0.0,0.0,0.0,0.0,0.0,0.0,0.0,0.0,0.0,0.0,0.0,0.0,0.0,0.0,0.0,0.0,0.0,0.0,0.0,0.0,-1.6457,-1.6921,-1.7846,0.0,0.0,0.0,0.0,0.0,0.0,0.0,0.0,0.0,0.0,0.0,0.0,0.0,0.0,0.0,0.0,0.0,0.0,0.0,0.0,0.0,0.0,0.0,0.0,0.0,0.0,0.0,0.0,0.0,0.0,0.0,0.0,0.0,0.0,0.0,0.0,0.0,0.0,0.0,0.0,0.0,0.0,0.0,0.0,0.0,0.0,0.0,0.0,0.0,0.0,0.0,0.0,0.0,0.0,0.0,0.0,0.0,0.0,0.0,0.0,0.0,0.0,0.0,0.0,0.0,0.0,0.0,0.0,0.0,0.0,0.0,0.0,0.0,0.0,0.0,0.0,0.0,0.0,0.0,0.0,0.0,0.0,0.0,0.0,0.0,0.0,0.0,0.0,0.0,0.0,0.0,0.0,0.0,0.0,0.0,0.0,0.0,0.0,0.0,0.0,0.0,0.0,0.0,0.0,0.0,0.0,0.0,0.0,0.0,0.0,-1.5733,-1.5984,-1.6694,-1.7174,-1.8133,0.0,0.0,0.0,0.0,0.0,0.0,0.0,0.0,0.0,0.0,0.0,0.0,0.0,0.0,0.0,0.0,0.0,0.0,0.0,0.0,0.0,0.0,0.0,0.0,0.0,0.0,0.0,0.0,0.0,0.0,0.0,0.0,0.0,0.0,0.0,0.0,0.0,0.0,0.0,0.0,0.0,0.0,0.0,0.0,0.0,0.0,0.0,0.0,0.0,0.0,0.0,0.0,0.0,0.0,0.0,0.0,0.0,0.0,0.0,0.0,0.0,0.0,0.0,0.0,0.0,0.0,0.0,0.0,0.0,0.0,0.0,0.0,0.0,0.0,0.0,0.0,0.0,0.0,0.0,0.0,0.0,0.0,0.0,0.0,0.0,0.0,0.0,0.0,0.0,0.0,0.0,0.0,0.0,0.0,0.0,0.0,0.0,0.0,0.0,0.0,0.0,0.0,0.0,0.0,0.0,0.0,0.0,0.0,0.0,0.0,0.0,0.0,0.0,0.0,-1.9092,0.0,0.0,0.0,0.0,0.0,0.0,0.0,0.0,0.0,0.0,0.0,0.0,0.0,0.0,0.0,0.0,0.0,0.0,0.0,0.0,0.0,0.0,0.0,0.0,0.0,0.0,0.0,0.0,0.0,0.0,0.0,0.0,0.0,0.0,0.0,0.0,0.0,0.0,0.0,0.0,0.0,0.0,0.0,0.0,0.0,0.0,0.0,0.0,0.0,0.0,0.0,0.0,0.0,0.0,0.0,0.0,0.0,0.0,0.0,0.0,0.0,0.0,0.0,0.0,0.0,0.0,0.0,0.0,0.0,0.0,0.0,0.0,0.0,0.0,0.0,0.0,0.0,0.0,0.0,0.0,0.0,0.0,0.0,0.0,0.0,0.0,0.0,0.0,0.0,0.0,0.0,0.0,0.0,0.0,0.0,0.0,0.0,0.0,0.0,0.0,0.0,0.0,0.0,0.0,0.0,0.0,0.0,0.0,0.0,0.0,0.0,0.0,0.0,0.0,0.0,0.0,0.0,0.0,0.0,0.0,0.0,0.0,0.0,0.0,0.0,0.0,0.0,0.0,0.0,0.0,0.0,0.0,0.0,0.0,0.0,0.0,0.0,0.0,0.0,0.0,0.0,0.0,0.0,0.0,0.0,0.0,0.0,0.0,0.0,0.0,0.0,0.0,0.0,0.0,0.0,0.0,0.0,0.0,0.0,0.0,0.0,0.0,0.0,0.0,0.0,0.0,0.0,0.0,0.0,0.0,0.0,0.0,0.0,0.0,0.0,0.0,0.0,0.0,0.0,0.0,0.0,0.0,0.0,0.0,0.0,0.0,0.0,0.0,0.0,0.0,0.0,0.0,0.0,0.0,0.0,0.0,0.0,0.0,0.0,0.0,0.0,0.0,0.0,0.0,0.0,0.0,0.0,0.0,0.0,0.0,0.0,0.0,0.0,0.0,0.0,0.0,0.0,0.0,0.0,0.0,0.0,0.0,0.0,0.0,0.0,0.0,0.0,0.0,0.0,0.0,0.0,0.0,0.0,0.0,0.0,0.0,0.0,0.0,0.0,0.0,0.0,0.0,0.0,0.0,0.0,0.0,0.0,0.0,0.0,0.0,0.0,0.0,0.0,0.0,0.0,0.0,0.0,0.0,0.0,0.0,0.0,0.0,0.0,0.0,0.0,0.0,0.0,0.0,0.0,0.0,0.0,0.0,0.0,0.0,0.0,0.0,0.0,0.0,0.0,0.0,0.0,0.0,0.0,0.0,0.0,0.0,0.0,0.0,0.0,0.0,0.0,0.0,0.0,0.0,0.0,0.0,0.0,0.0,0.0,0.0,0.0,0.0,0.0,0.0,0.0,0.0,0.0,0.0,0.0,0.0,0.0,0.0,0.0,0.0,0.0,0.0,0.0,0.0,0.0,0.0,0.0,0.0,0.0,0.0,0.0,0.0,0.0,0.0,0.0,0.0,0.0,0.0,0.0,0.0,0.0,0.0,0.0,0.0,0.0,0.0,0.0,0.0,0.0,0.0,0.0,0.0,0.0,0.0,0.0,0.0,0.0,0.0,0.0,0.0,0.0,0.0,0.0,0.0,0.0,0.0,0.0,0.0,0.0,0.0,0.0,0.0,0.0,0.0,0.0,0.0,0.0,0.0,0.0,0.0,0.0,0.0,0.0,0.0,0.0,0.0,0.0,0.0,0.0,0.0,0.0,0.0,0.0,0.0,0.0,0.0,0.0,0.0,0.0,0.0,0.0,0.0,0.0,0.0,0.0,0.0,0.0,0.0,0.0,0.0,0.0,0.0,0.0,0.0,0.0,0.0,0.0,0.0,0.0,0.0,0.0,0.0,0.0,0.0,0.0,0.0,0.0,0.0,0.0,0.0,0.0,0.0,0.0,0.0,0.0,0.0,0.0,0.0,0.0,0.0,0.0,0.0,0.0,0.0,0.0,0.0,0.0,0.0,0.0,0.0,0.0,0.0,0.0,0.0,0.0,0.0,0.0,0.0,0.0,0.0,0.0,0.0,0.0,0.0,0.0,0.0,0.0,0.0,0.0,0.0,0.0,0.0,0.0,0.0,0.0,0.0,0.0,0.0,0.0,0.0,0.0,0.0,0.0,0.0,0.0,0.0,0.0,0.0,0.0,0.0,0.0,0.0,0.0,0.0,0.0,0.0,0.0,0.0,0.0,0.0,0.0,0.0,0.0,0.0,0.0,0.0,0.0,0.0,0.0,0.0,0.0,0.0,0.0,0.0,0.0,0.0,0.0,0.0,0.0,0.0,0.0,0.0,0.0,0.0,0.0,0.0,0.0,0.0,0.0,0.0,0.0,0.0,0.0,0.0,0.0,0.0,0.0,0.0,0.0,0.0,0.0,0.0,0.0,0.0,0.0,0.0,0.0,0.0,0.0,0.0,0.0,0.0,0.0,0.0,0.0,0.0,0.0,0.0,0.0,0.0,0.0,0.0,0.0,0.0,0.0,0.0,0.0,0.0,0.0,0.0,0.0,0.0,0.0,0.0,0.0,0.0,0.0,0.0,0.0,0.0,0.0,0.0,0.0,0.0,0.0,0.0,0.0,0.0,0.0,0.0,0.0,0.0,0.0,0.0,0.0,0.0,0.0,0.0,0.0,0.0,0.0,0.0,0.0,0.0,0.0,0.0,0.0,0.0,0.0,0.0,0.0,0.0,0.0,0.0,0.0,0.0,0.0,0.0,0.0,0.0,0.0,0.0,0.0,0.0,0.0,0.0,0.0,0.0,0.0,0.0,0.0,0.0,0.0,0.0,0.0,0.0,0.0,0.0,0.0,0.0,0.0,0.0,0.0,0.0,0.0,0.0,0.0,0.0,0.0,0.0,0.0,0.0,0.0,0.0,0.0,0.0,0.0,0.0,0.0,0.0,0.0,0.0,0.0,0.0,0.0,0.0,0.0,0.0,0.0,0.0,0.0,0.0,0.0,0.0,0.0,0.0,0.0,0.0,0.0,0.0,0.0,0.0,0.0,0.0,0.0,0.0,0.0,0.0,0.0,0.0,0.0,0.0,0.0,0.0,0.0,0.0,0.0,0.0,0.0,0.0,0.0,0.0,0.0,0.0,0.0,0.0,0.0,0.0,0.0,0.0,0.0,0.0,0.0,0.0,0.0,0.0,0.0,0.0,0.0,0.0,0.0,0.0,0.0,0.0,0.0,0.0,0.0,0.0,0.0,0.0,0.0,0.0,0.0,0.0,0.0,0.0,0.0,0.0,0.0,0.0,0.0,0.0,0.0,0.0,0.0,0.0,0.0,0.0,0.0,0.0,0.0,0.0,0.0,0.0,0.0,0.0,0.0,0.0,0.0,0.0,0.0,0.0,0.0,0.0,0.0,0.0,0.0,0.0,0.0,0.0,0.0,0.0,0.0,0.0,0.0,0.0,0.0,0.0,0.0,0.0,0.0,0.0,0.0,0.0,0.0,0.0,0.0,0.0,0.0,0.0,0.0,0.0,0.0,0.0,0.0,0.0,0.0,0.0,0.0,0.0,0.0,0.0,0.0,0.0,0.0,0.0,0.0,0.0,0.0,0.0,0.0,0.0,0.0,0.0,0.0,0.0,0.0,0.0,0.0,0.0,0.0,0.0,0.0,0.0,0.0,0.0,0.0,0.0,0.0,0.0,0.0,0.0,0.0,0.0,0.0,0.0,0.0,0.0,0.0,0.0,0.0,0.0,0.0,0.0,0.0,0.0,0.0,0.0,0.0,0.0,0.0,0.0,0.0,0.0,0.0,0.0,0.0,0.0,0.0,0.0,0.0,0.0,0.0,0.0,0.0,0.0,0.0,0.0,0.0,0.0,0.0,0.0,0.0,0.0,0.0,0.0,0.0,0.0,0.0,0.0,0.0,0.0,0.0,0.0,0.0,0.0,0.0,0.0,0.0,0.0,0.0,0.0,0.0,0.0,0.0,0.0,0.0,0.0,0.0,0.0,0.0,0.0,0.0,0.0,0.0,0.0,0.0,0.0,0.0,0.0,0.0,0.0,0.0,0.0,0.0,0.0,0.0,0.0,0.0,0.0,0.0,0.0,0.0,0.0,0.0,0.0,0.0,0.0,0.0,0.0,0.0,0.0,0.0,0.0,0.0,0.0,0.0,0.0,0.0,0.0,0.0,0.0,0.0,0.0,0.0,0.0,0.0,0.0,0.0,0.0,0.0,0.0,0.0,0.0,0.0,0.0,0.0,0.0,0.0,0.0,0.0,0.0,0.0,0.0,0.0,0.0,0.0,0.0,0.0,0.0,0.0,0.0,0.0,0.0,0.0,0.0,0.0,0.0,0.0,0.0,0.0,0.0,0.0,0.0,0.0,0.0,0.0,0.0,0.0,0.0,0.0,0.0,0.0,0.0]}]]]